     2              OBSERVATION DATA    GPS                 RINEX VERSION / TYPE
ASRINEXO V2.4.4 UX USGS 21-APR-95 09:30                     PGM / RUN BY / DATE
                                                            COMMENT
Original Marker Name: jd84 10_JDG_1984_USGS                 COMMENT
Campaign Name: USGS Parkfield                               COMMENT
4-Character Station Name: IXJD                              COMMENT
6-Character Antenna Code: ASHP12                            COMMENT
Vertical Measurement Point: EGP                             COMMENT
Vertical Offset to Rinex Ref. Point: 0.0593                 COMMENT
Radial Measurement Point: EGP                               COMMENT
Radial Offset to Rinex Ref. Point: 0.1425                   COMMENT
Antenna Height from Field Measurement: 1.5010 m             COMMENT
Additional Antenna Identification Info.:                    COMMENT
Ashtech L1/L2 Revision B (700228DE)                         COMMENT
Original XYZ: -2626753.0700 -4452217.3500 3724663.1400      COMMENT
New XYZ position is based on association with SCEC monument COMMENT
E1F1N4E8+0011. Position of that monument is believed to be  COMMENT
valid to within 1 m horizontally; vertical accuracy         COMMENT
should be no worse than 3-times this value.                 COMMENT
                                                            COMMENT
Revised Rinex header created by UCSD GPS archive for        COMMENT
GSAC on 11-Jul-2000 (2000:193) 17:31:53 GMT                 COMMENT
For assistance contact dagnew@ucsd.edu                      COMMENT
or anderson@python.ucsd.edu                                 COMMENT
                                                            COMMENT
10 JDG 1984                                                 MARKER NAME
CHS US GEOLOGICAL SURVEY                                    OBSERVER / AGENCY
099 ASHTECH L-XII 7A                                        REC # / TYPE / VERS
036 ASHTECH GEODETIC P                                      ANT # / TYPE
 -2626765.8734 -4452186.0028  3724650.5833                  APPROX POSITION XYZ
        1.4349        0.0000        0.0000                  ANTENNA: DELTA H/E/N
     1     2     0                                          WAVELENGTH FACT L1/2
     3    C1    L1    L2                                    # / TYPES OF OBSERV
    30                                                      INTERVAL
  1995     4    19    15    45   30.000000                  TIME OF FIRST OBS
  1995     4    19    22    30    0.000000                  TIME OF LAST OBS
                                                            END OF HEADER
 95  4 19 15 45 30.0000000  0  1 18
  20307655.343     4463310.97019    -15123.921 1
 95  4 19 15 46  0.0000000  0  2 19 18
  20950164.573    24327335.59519    -67477.771 1
  20306209.714     4455726.421 9    -21024.891
 95  4 19 15 46 30.0000000  0  2 19 18
  20943766.042    24293706.576 9    -93680.645 1
  20304921.565     4448945.541 8    -26316.948 1
 95  4 19 15 47  0.0000000  0  5 19 27 29 31 18
  20937502.089    24260795.290 9   -119325.928
  23108504.245    -1424415.98516   -182709.839 1
  21274069.668     4087469.04918     83278.985 1
  23291192.253    -1229219.24416   -192929.557
  20303819.498     4443154.315 9    -30831.635 1
 95  4 19 15 47 30.0000000  0  6 19 27 22 29 31 18
  20931386.503    24228677.557 9   -144325.258
  23093876.082    -1501284.286 6   -242607.133 1
  24820425.277    24786634.68816    173175.832
  21282021.273     4129250.184 8    115835.538 2
  23275619.924    -1311053.542 6   -256696.518 1
  20302923.838     4438439.605 9    -34505.490 1
 95  4 19 15 48  0.0000000  0  6 19 27 22 29 31 18
  20925437.901    24197410.100 9   -168689.391 2
  23079394.068    -1577374.617 6   -301898.261 2
  24839605.129    24887455.233 5    251737.394 1
  21290172.480     4172076.398 8    149206.592 4
  23260225.971    -1391946.427 6   -319729.896 2
  20302236.174     4434844.796 9    -37306.523 5
 95  4 19 15 48 30.0000000  0  7 19 27 22 29 31 28 18
  20919650.018    24166985.232 9   -192397.078 5
  23065060.211    -1652695.374 6   -360589.706 2
  24858932.899    24989004.297 5    330866.491 1
  21298519.362     4215946.401 8    183390.990 5
  23245010.394    -1471917.104 6   -382044.635 2
  23642236.240   -19565377.47915    -46625.441 1
  20301755.697     4432336.731 9    -39260.851 7
 95  4 19 15 49  0.0000000  0  7 19 27 22 29 31 28 18
  20914017.037    24137382.023 9   -215464.518 6
  23050868.096    -1727293.283 6   -418717.908 2
  24878392.487    25091237.885 5    410528.943 1
  21307059.100     4260813.257 8    218352.153 6
  23229957.035    -1551009.263 6   -443674.852 2
  23638176.571   -19586718.573 5    -63254.845 1
  20301476.590     4430847.878 8    -40421.009 8
 95  4 19 15 49 30.0000000  0  7 19 27 22 29 31 28 18
  20908532.694    24108580.985 9   -237906.864 6
  23036803.513    -1801214.498 6   -476318.824 2
  24897966.896    25194120.341 5    490697.122 2
  21315778.024     4306634.180 8    254056.757 6
  23215063.826    -1629277.156 6   -504662.809 2
  23634315.454   -19606999.119 6    -79057.902 2
  20301379.457     4430343.901 9    -40813.727 9
 95  4 19 15 50  0.0000000  0  6 19 27 29 31 28 18
  20903200.106    24080545.584 9   -259752.632 7
  23022850.662    -1874503.809 6   -533427.320 2
  21324670.198     4353364.143 8    290469.672 6
  23200321.232    -1706753.100 6   -565033.620 2
  23630644.735   -19626260.130 5    -94066.463 2
  20301465.228     4430786.082 9    -40469.163 9
 95  4 19 15 50 30.0000000  0  6 19 27 29 31 28 18
  20897997.777    24053216.551 9   -281047.963 7
  23009019.737    -1947218.469 6   -590088.069 2
  21333719.763     4400934.384 8    327537.391 6
  23185723.797    -1783473.007 6   -624815.337 2
  23627168.612   -19644546.644 6   -108315.695 2
  20301724.429     4432139.293 9    -39414.732 9
 95  4 19 15 51  0.0000000  0  6 19 27 29 31 28 18
  20892921.991    24026527.251 9   -301844.818 8
  22995280.938    -2019416.117 6   -646345.951 2
  21342925.790     4449288.794 8    365216.132 7
  23171261.240    -1859482.382 6   -684043.407 2
  23623861.961   -19661907.177 5   -121843.394 2
  20302148.455     4434367.457 9    -37678.499 9
 95  4 19 15 51 30.0000000  0  6 19 27 29 31 28 18
  20887956.828    24000437.845 9   -322174.215 8
  22981634.116    -2091132.358 6   -702228.676 3
  21352270.980     4498400.958 8    403485.337 7
  23156928.432    -1934793.718 6   -742727.533 2
  23620734.766   -19678368.836 5   -134670.699 2
  20302729.963     4437445.476 8    -35280.043 9
 95  4 19 15 52  0.0000000  0  6 19 27 29 31 28 18
  20883099.411    23974920.299 9   -342057.988 8
  22968064.280    -2162394.570 6   -757757.631 3
  21361756.204     4548251.715 8    442330.067 7
  23142727.833    -2009406.894 6   -800867.601 2
  23617771.887   -19693953.156 6   -146814.286 2
  20303473.838     4441346.028 8    -32240.679 9
 95  4 19 15 52 30.0000000  0  6 19 27 29 31 28 18
  20878350.519    23949967.387 9   -361501.818 8
  22954588.279    -2233216.027 6   -812943.123 3
  21371379.452     4598828.700 8    481740.687 7
  23128663.939    -2083345.151 6   -858481.883 2
  23614969.007   -19708671.749 5   -158283.315 2
  20304373.095     4446060.037 8    -28567.427 9
 95  4 19 15 53  0.0000000  0  6 19 27 29 31 28 18
  20873711.081    23925566.913 9   -380515.146 8
  22941199.068    -2303607.271 6   -867793.427 3
  21381137.187     4650118.457 8    521706.714 7
  23114713.727    -2156639.774 6   -915594.473 2
  23612327.626   -19722539.034 5   -169089.026 2
  20305415.383     4451561.137 8    -24280.857 9
 95  4 19 15 53 30.0000000  0  6 19 27 29 31 28 18
  20869168.835    23901707.861 9   -399106.614 8
  22927873.953    -2373599.240 6   -922332.574 3
  21391032.316     4702098.235 8    562210.412 7
  23100885.050    -2229318.145 6   -972226.971 2
  23609848.642   -19735577.965 5   -179249.214 2
  20306609.427     4457818.202 8    -19405.234 9
 95  4 19 15 54  0.0000000  0  6 19 27 29 31 28 18
  20864724.562    23878339.709 9   -417315.545 8
  22914633.739    -2443215.771 6   -976579.177 3
  21401052.670     4754748.060 8    603236.241 7
  23087156.264    -2301423.796 6  -1028413.219 2
  23607517.845   -19747816.023 5   -188785.331 2
  20307938.946     4464809.966 8    -13957.114 9
 95  4 19 15 54 30.0000000  0  6 19 27 29 31 28 18
  20860359.554    23855421.593 9   -435173.802 8
  22901455.372    -2512458.441 6  -1030534.468 3
  21411193.449     4808050.733 8    644770.769 7
  23073540.980    -2372985.219 6  -1084175.316 2
  23605337.845   -19759269.582 5   -197710.174 2
  20309405.441     4472520.662 9     -7948.779 9
 95  4 19 15 55  0.0000000  0  6 19 27 29 31 28 18
  20856081.485    23832929.617 9   -452699.995 9
  22888346.527    -2581329.783 6  -1084200.421 3
  21421460.262     4861996.272 8    686806.239 7
  23060027.505    -2443991.959 6  -1139505.199 2
  23603309.089   -19769949.034 6   -206031.812 2
  20311006.303     4480938.965 8     -1389.062 9
 95  4 19 15 55 30.0000000  0  6 19 27 29 31 28 18
  20851878.335    23810850.892 9   -469904.185 9
  22875312.691    -2649841.996 6  -1137586.518 3
  21431848.130     4916581.497 8    729340.167 7
  23046623.065    -2514437.461 6  -1194397.810 2
  23601414.850   -19779870.394 5   -213762.757 2
  20312744.620     4490069.050 8      5725.291 9
 95  4 19 15 56  0.0000000  0  6 19 27 29 31 28 18
  20847753.281    23789178.666 9   -486791.633 9
  22862342.709    -2718004.050 6  -1190699.743 3
  21442352.888     4971789.370 8    772359.265 7
  23033325.890    -2584325.924 6  -1248856.316 2
  23599668.529   -19789049.861 6   -220915.559 3
  20314617.003     4499906.203 8     13390.594 9
 95  4 19 15 56 30.0000000  0  6 19 27 29 31 28 18
  20843711.509    23767930.545 9   -503348.598 9
  22849435.715    -2785830.970 6  -1243551.870 3
  21452966.890     5027590.640 8    815840.747 7
  23020133.493    -2653652.708 6  -1302877.157 2
  23598057.445   -19797497.617 6   -227498.234 3
  20316623.035     4510436.793 8     21596.248 9
 95  4 19 15 57  0.0000000  0  6 19 27 29 31 28 18
  20839754.098    23747131.738 9   -519555.439 9
  22836579.865    -2853346.212 6  -1296161.086 3
  21463701.079     5083985.220 8    859784.532 7
  23007044.075    -2722417.666 6  -1356460.236 2
  23596596.886   -19805217.198 6   -233513.454 3
  20318758.786     4521657.269 8     30339.470 9
 95  4 19 15 57 30.0000000  0  6 19 27 29 31 28 18
  20835885.157    23726796.845 9   -535400.801 9
  22823796.894    -2920557.421 6  -1348533.420 4
  21474547.750     5140973.320 8    904190.831 7
  22994063.661    -2790637.252 6  -1409618.322 2
  23595258.283   -19812208.286 5   -238961.052 3
  20321022.249     4533556.304 8     39611.446 9
 95  4 19 15 58  0.0000000  0  6 19 27 29 31 28 18
  20832095.450    23706904.521 9   -550901.297 9
  22811059.582    -2987477.425 6  -1400678.850 4
  21485501.387     5198532.376 8    949042.003 7
  22981184.277    -2858320.905 6  -1462358.754 2
  23594068.556   -19818479.903 5   -243848.002 3
  20323409.287     4546097.684 8     49383.946 9
 95  4 19 15 58 30.0000000  0  6 19 27 29 31 28 18
  20828390.315    23687423.486 9   -566081.317 9
  22798378.781    -3054114.716 6  -1452603.991 4
  21496558.662     5256638.261 8    994319.298 7
  22968403.345    -2925490.584 6  -1514698.777 2
  23593002.314   -19824045.526 5   -248184.834 3
  20325911.204     4559253.700 8     59635.377 9
 95  4 19 15 59  0.0000000  0  6 19 27 29 31 28 18
  20824758.630    23668334.328 9   -580955.965 9
  22785751.792    -3120477.589 6  -1504315.261 4
  21507716.578     5315288.298 8   1040020.614 7
  22955714.899    -2992153.499 6  -1566643.873 2
  23592082.191   -19828912.990 5   -251977.651 3
  20328527.973     4573010.317 8     70354.826 9
 95  4 19 15 59 30.0000000  0  6 19 27 29 31 28 18
  20821195.386    23649607.272 9   -595548.475 9
  22773178.017    -3186570.050 6  -1555815.842 4
  21518973.545     5374450.977 8   1086121.386 6
  22943123.256    -3058313.822 6  -1618197.309 2
  23591288.011   -19833094.048 5   -255235.624 3
  20331257.673     4587352.527 8     81530.551 9
 95  4 19 16  0  0.0000000  0  6 19 27 29 31 28 18
  20817695.040    23631210.167 9   -609883.881 9
  22760650.140    -3252398.069 6  -1607110.378 4
  21530325.126     5434099.739 8   1132600.912 6
  22930639.868    -3123981.475 6  -1669366.861 2
  23590622.442   -19836606.563 5   -257972.628 3
  20334097.157     4602280.324 8     93162.615 9
 95  4 19 16  0 30.0000000  0  6 19 27 29 31 28 18
  20814256.720    23613142.097 9   -623962.878 9
  22748169.810    -3317973.975 6  -1658208.460 4
  21541768.444     5494227.254 8   1179453.487 6
  22918229.390    -3189171.001 6  -1720163.872 2
  23590076.340   -19839461.858 5   -260197.556 3
  20337055.809     4617803.234 9    105258.384 9
 95  4 19 16  1  0.0000000  0  6 19 27 29 31 28 18
  20810883.005    23595401.433 9   -637786.771 9
  22735741.943    -3383308.791 7  -1709118.644 4
  21553303.558     5554845.517 8   1226688.458 6
  22905918.233    -3253867.604 6  -1770576.783 2
  23589661.157   -19841656.472 6   -261907.639 3
  20340124.125     4633935.061 8    117828.630 9
 95  4 19 16  1 30.0000000  0  6 19 27 29 31 28 18
  20807564.693    23577974.520 9   -651366.175 9
  22723351.131    -3448397.723 7  -1759837.276 4
  21564932.628     5615962.926 8   1274312.387 6
  22893693.566    -3318080.086 6  -1820612.436 2
  23589365.952   -19843193.436 5   -263105.269 3
  20343310.679     4650688.293 8    130883.094 9
 95  4 19 16  2  0.0000000  0  6 19 27 29 31 28 18
  20804310.026    23560861.985 9   -664700.610 9
  22711007.866    -3513249.860 6  -1810371.380 4
  21576661.168     5677591.480 8   1322334.614 6
  22881566.931    -3381814.584 6  -1870275.662 2
  23589198.728   -19844078.534 5   -263794.983 3
  20346615.951     4668057.744 8    144417.733 9
 95  4 19 16  2 30.0000000  0  6 19 27 29 31 28 18
  20801114.148    23544065.580 9   -677788.718 9
  22698711.039    -3577892.447 7  -1860742.188 4
  21588489.390     5739738.682 8   1370760.976 6
  22869535.270    -3445071.780 6  -1919566.969 2
  23589149.921   -19844316.904 5   -263980.727 3
  20350033.645     4686023.102 8    158416.711 9
 95  4 19 16  3  0.0000000  0  6 19 27 29 31 28 18
  20797971.124    23527573.505 9   -690639.677 9
  22686447.939    -3642333.192 7  -1910955.709 4
  21600411.087     5802389.247 8   1419579.563 6
  22857587.162    -3507860.574 6  -1968493.245 3
  23589230.835   -19843917.860 6   -263669.774 3
  20353562.532     4704560.310 8    172861.270 9
 95  4 19 16  3 30.0000000  0  6 19 27 29 31 28 18
  20794896.303    23511403.676 9   -703239.545 9
  22674218.655    -3706566.632 7  -1961007.728 4
  21612427.248     5865530.654 8   1468780.672 6
  22845724.014    -3570184.385 6  -2017057.228 3
  23589427.889   -19842881.710 6   -262862.408 3
  20357197.276     4723662.220 8    187745.878 9
 95  4 19 16  4  0.0000000  0  6 19 27 29 31 28 18
  20791884.258    23495574.470 9   -715573.983 9
  22662035.209    -3770597.942 7  -2010902.201 4
  21624531.548     5929156.373 8   1518359.133 6
  22833955.631    -3632024.573 6  -2065244.389 3
  23589750.316   -19841206.688 6   -261557.201 3
  20360938.835     4743321.105 8    203064.478 9
 95  4 19 16  4 30.0000000  0  6 19 27 29 31 28 18
  20788933.461    23480074.920 9   -727651.551 9
  22649895.294    -3834421.303 7  -2060634.656 4
  21636732.382     5993256.205 8   1568307.036 6
  22822280.004    -3693374.020 6  -2113049.103 3
  23590186.843   -19838893.766 6   -259754.928 3
  20364783.614     4763541.373 8    218820.530 9
 95  4 19 16  5  0.0000000  0  6 19 27 29 31 28 18
  20786046.340    23464898.096 9   -739477.645 9
  22637790.184    -3898019.445 7  -2110191.624 4
  21649017.367     6057820.010 8   1618616.483 6
  22810700.161    -3754228.038 6  -2160467.783 3
  23590743.918   -19835940.405 6   -257453.623 3
  20368743.782     4784340.970 8    235028.013 9
 95  4 19 16  5 30.0000000  0  6 19 27 29 31 28 18
  20783221.815    23450047.552 9   -751049.500 9
  22625731.482    -3961382.363 7  -2159565.296 4
  21661393.190     6122864.520 8   1669300.495 6
  22799215.052    -3814571.757 6  -2207488.856 3
  23591434.760   -19832339.426 6   -254647.651 3
  20372815.653     4805739.789 8    251702.397 9
 95  4 19 16  6  0.0000000  0  6 19 27 29 31 28 18
  20780454.970    23435505.492 9   -762380.985 9
  22613723.325    -4024510.189 7  -2208755.766 4
  21673864.766     6188386.653 8   1720356.693 6
  22787833.791    -3874407.341 6  -2254113.972 3
  23592239.283   -19828094.617 6   -251340.025 3
  20377002.824     4827740.890 8    268846.117 9
 95  4 19 16  6 30.0000000  0  6 19 27 29 31 28 18
  20777741.429    23421257.043 9   -773483.672 9
  22601757.349    -4087412.632 7  -2257770.623 4
  21686417.286     6254372.203 8   1771773.967 6
  22776536.172    -3933753.016 6  -2300357.302 3
  23593175.654   -19823208.561 6   -247532.722 3
  20381302.718     4850340.228 8    286455.966 9
 95  4 19 16  7  0.0000000  0  6 19 27 29 31 28 18
  20775085.777    23407310.793 9   -784350.860 9
  22589821.412    -4150093.208 7  -2306612.604 4
  21699067.028     6320822.847 8   1823553.684 6
  22765339.014    -3992615.104 6  -2346223.812 3
  23594219.232   -19817675.681 6   -243221.426 3
  20385716.082     4873531.262 8    304526.894 9
 95  4 19 16  7 30.0000000  0  6 19 27 29 31 28 18
  20772496.920    23393667.935 9   -794981.663 9
  22577936.050    -4212562.453 7  -2355289.886 4
  21711796.246     6387730.270 8   1875689.320 6
  22754232.033    -4050990.150 6  -2391710.872 3
  23595399.635   -19811498.097 6   -238407.712 3
  20390240.101     4897301.418 8    323049.085 9
 95  4 19 16  8  0.0000000  0  6 19 27 29 31 28 18
  20769950.243    23380319.227 9   -805383.243 9
  22566084.775    -4274838.274 7  -2403816.448 4
  21724612.704     6455077.579 8   1928167.716 6
  22743214.390    -4108879.166 6  -2436819.138 3
  23596692.849   -19804684.210 6   -233098.215 3
  20394871.534     4921630.304 8    342006.640 9
 95  4 19 16  8 30.0000000  0  6 19 27 29 31 28 18
  20767469.940    23367256.135 9   -815562.277 9
  22554266.116    -4336943.041 7  -2452209.777 4
  21737512.623     6522860.785 8   1980985.771 6
  22732289.204    -4166284.486 6  -2481550.504 3
  23598117.613   -19797250.745 5   -227305.903 3
  20399599.591     4946490.745 8    361378.392 9
 95  4 19 16  9  0.0000000  0  6 19 27 29 31 28 18
  20765033.257    23354479.086 9   -825518.407 9
  22542483.014    -4398872.282 7  -2500466.283 4
  21750495.465     6591081.974 8   2034145.104 6
  22721456.203    -4223201.139 6  -2525901.135 3
  23599646.315   -19789203.648 6   -221035.432 3
  20404430.747     4971881.860 8    381163.659 9
 95  4 19 16  9 30.0000000  0  7 19 27 29 31 28  2 18
  20762659.770    23342000.038 9   -835242.345 9
  22530734.717    -4460621.997 7  -2548582.901 4
  21763560.061     6659755.196 8   2087656.673 6
  22710729.329    -4279611.434 6  -2569857.156 3
  23601286.839   -19780543.166 6   -214287.027 3
  24318982.069    15281483.65215   -204184.667
  20409366.530     4997809.116 8    401366.707 9
 95  4 19 16 10  0.0000000  0  7 19 27 29 31 28  2 18
  20760339.406    23329820.466 9   -844732.912 9
  22519019.067    -4522184.285 7  -2596553.488 4
  21776716.843     6728887.444 8   2141525.916 6
  22700081.001    -4335527.145 6  -2613427.772 3
  23603052.916   -19771273.052 6   -207063.570 3
  24301866.888    15191535.907 5   -274270.394
  20414401.874     5024273.518 8    421988.306 9
 95  4 19 16 10 30.0000000  0  7 19 27 29 31 28  2 18
  20758080.560    23317935.584 9   -853993.840 9
  22507338.884    -4583558.163 7  -2644377.254 4
  21789960.204     6798470.014 7   2195746.095 6
  22689533.613    -4390975.262 6  -2656634.038 3
  23604935.073   -19761403.266 6   -199372.824 3
  24284797.455    15101807.064 5   -344188.930 1
  20419538.907     5051271.937 8    443026.024 9
 95  4 19 16 11  0.0000000  0  7 19 27 29 31 28  2 18
  20755870.040    23306329.023 9   -863037.916 9
  22495697.163    -4644753.469 7  -2692061.867 4
  21803280.673     6868479.546 7   2250298.928 6
  22679067.318    -4445972.324 6  -2699488.892 3
  23606918.440   -19750944.850 5   -191223.426 3
  24267758.480    15012296.652 5   -413937.205 1
  20424778.260     5078796.553 8    464473.759 9
 95  4 19 16 11 30.0000000  0  8 19 27 29 31 28  2 16 18
  20753713.123    23295002.008 9   -871864.149 9
  22484075.588    -4705775.418 7  -2739611.407 4
  21816682.475     6938907.758 7   2305178.032 6
  22668687.754    -4500504.590 6  -2741981.499 3
  23609026.101   -19739898.146 5   -182615.608 3
  24250769.302    14922993.574 5   -483523.928 2
  24945473.568     -161590.84115  -1276436.023 2
  20430112.228     5106848.578 8    486332.464 9
 95  4 19 16 12  0.0000000  0  8 19 27 29 31 28  2 16 18
  20751610.769    23283936.811 9   -880486.363 9
  22472503.540    -4766631.084 7  -2787031.396 4
  21830161.294     7009733.079 7   2360366.574 6
  22658395.519    -4554583.064 6  -2784120.533 3
  23611235.212   -19728266.427 5   -173551.938 3
  24233815.019    14833899.030 5   -552948.274 2
  24931985.905     -232463.777 5  -1331661.743 2
  20435553.701     5135426.579 8    508601.020 9
 95  4 19 16 12 30.0000000  0  8 19 27 29 31 28  2 16 18
  20749553.473    23273119.657 9   -888915.302 9
  22460953.795    -4827324.689 7  -2834325.077 4
  21843713.682     7080954.684 7   2415863.887 6
  22648193.162    -4608186.141 6  -2825889.104 3
  23613567.507   -19716044.049 5   -164027.995 3
  24216908.673    14745032.580 5   -622194.785 2
  24918574.090     -302918.917 5  -1386561.827 2
  20441089.698     5164522.340 8    531273.037 9
 95  4 19 16 13  0.0000000  0  8 19 27 29 31 28  2 16 18
  20747537.579    23262544.304 9   -897155.836 9
  22449433.011    -4887862.987 7  -2881497.760 4
  21857342.996     7152573.223 7   2471670.507 6
  22638093.574    -4661286.800 6  -2867266.237 2
  23616001.912   -19703225.648 5   -154039.638 3
  24200038.272    14656394.351 5   -691263.487 2
  24905256.470     -372940.116 5  -1441123.796 2
  20446725.946     5194140.743 8    554352.288 9
 95  4 19 16 13 30.0000000  0  8 19 27 29 31 28  2 16 18
  20745577.476    23252213.288 9   -905205.971 9
  22437940.557    -4948232.692 7  -2928539.049 4
  21871043.811     7224597.845 7   2527793.579 6
  22628082.454    -4713885.211 7  -2908251.971 2
  23618557.103   -19689802.671 5   -143580.150 3
  24183208.613    14567984.732 5   -760154.034 2
  24892010.230     -442516.528 5  -1495339.170 2
  20452461.785     5224290.247 8    577845.404 9
 95  4 19 16 14  0.0000000  0  8 19 27 29 31 28  2 16 18
  20743654.337    23242118.813 9   -913071.787 9
  22426487.856    -5008426.066 7  -2975442.970 4
  21884831.117     7297043.194 7   2584244.459 6
  22618166.579    -4765994.925 7  -2948856.870 2
  23621235.569   -19675771.341 6   -132646.652 3
  24166428.480    14479810.404 5   -828861.275 2
  24878862.082     -511641.988 5  -1549203.111 2
  20458301.682     5254964.685 8    601747.552 9
 95  4 19 16 14 30.0000000  0  8 19 27 29 31 28  2 16 18
  20741781.983    23232271.817 9   -920744.774 9
  22415072.178    -5068437.519 7  -3022205.090 4
  21898700.205     7369914.372 7   2641027.154 5
  22608349.216    -4817604.462 7  -2989072.060 2
  23624008.080   -19661127.240 5   -121235.652 3
  24149698.861    14391870.625 5   -897385.699 2
  24865800.425     -580315.533 5  -1602714.983 2
  20464241.470     5286176.264 8    626068.249 9
 95  4 19 16 15  0.0000000  0  8 19 27 29 31 28  2 16 18
  20739957.266    23222694.762 9   -928207.403 9
  22403684.982    -5128259.717 7  -3068819.777 4
  21912648.769     7443207.991 7   2698139.040 5
  22598616.813    -4868721.177 6  -3028903.275 2
  23626916.966   -19645868.964 6   -109346.099 3
  24133009.745    14304164.914 5   -965727.709 2
  24852821.959     -648522.620 5  -1655863.332 2
  20470286.246     5317952.995 8    650829.319 9
 95  4 19 16 15 30.0000000  0  8 19 27 29 31 28  2 16 18
  20738186.392    23213389.903 9   -935457.934 9
  22392337.567    -5187893.906 7  -3115287.963 4
  21926673.780     7516914.008 7   2755572.272 5
  22588981.783    -4919352.293 6  -3068356.035 3
  23629933.837   -19630000.212 5    -96980.822 3
  24116363.799    14216702.432 5  -1033880.212 2
  24839922.310     -716256.433 5  -1708642.906 2
  20476436.998     5350280.876 8    676019.867 9
 95  4 19 16 16  0.0000000  0  8 19 27 29 31 28  2 16 18
  20736466.843    23204357.655 9   -942496.043 9
  22381016.175    -5247354.764 7  -3161621.068 5
  21940780.364     7591028.001 7   2813323.397 5
  22579445.445    -4969480.363 6  -3107416.851 3
  23633069.906   -19613528.049 6    -84145.366 3
  24099764.140    14129481.136 5  -1101844.790 2
  24827113.347     -783525.632 5  -1761060.399 2
  20482695.075     5383152.783 8    701634.336 9
 95  4 19 16 16 30.0000000  0  8 19 27 29 31 28  2 16 18
  20734802.545    23195608.273 9   -949313.736 9
  22369736.034    -5306654.339 7  -3207828.488 5
  21954957.069     7665539.091 7   2871383.965 5
  22570004.411    -5019091.268 6  -3146074.697 3
  23636313.091   -19596455.824 5    -70842.337 3
  24083215.687    14042492.032 5  -1169628.473 2
  24814400.648     -850340.245 5  -1813123.753 2
  20489052.564     5416570.759 8    727674.289 9
 95  4 19 16 17  0.0000000  0  8 19 27 29 31 28  2 16 18
  20733191.250    23187138.164 9   -955913.817 9
  22358479.936    -5365800.963 7  -3253916.742 5
  21969210.042     7740456.412 7   2929761.070 5
  22560660.240    -5068182.174 6  -3184327.317 3
  23639681.709   -19578784.120 6    -57072.179 3
  24066703.718    13955733.600 5  -1237232.352 2
  24801781.784     -916692.589 5  -1864826.817 2
  20495513.781     5450516.385 8    754125.438 9
 95  4 19 16 17 30.0000000  0  8 19 27 29 31 28  2 16 18
  20731628.612    23178933.435 9   -962307.099 9
  22347252.259    -5424804.270 7  -3299893.313 5
  21983549.116     7815786.199 7   2988459.570 5
  22551420.127    -5116747.217 6  -3222170.183 3
  23643151.387   -19560516.954 6    -42838.037 3
  24050239.955    13869202.168 5  -1304659.418 2
  24789243.204     -982593.324 5  -1916177.989 2
  20502068.923     5484970.511 8    780972.782 9
 95  4 19 16 18  0.0000000  0  8 19 27 29 31 28  2 16 18
  20730117.958    23170991.521 9   -968495.593 9
  22336058.369    -5483651.901 7  -3345748.567 5
  21997961.368     7891535.640 7   3047485.070 5
  22542280.294    -5164786.194 6  -3259603.128 3
  23646745.089   -19541656.100 6    -28141.239 3
  24033808.421    13782884.200 5  -1371920.096 2
  24776774.776    -1048056.312 5  -1967188.046 2
  20508725.395     5519951.548 8    808230.711 9
 95  4 19 16 18 30.0000000  0  8 19 27 29 31 28  2 16 18
  20728657.249    23163301.334 9   -974487.942 9
  22324893.258    -5542336.877 7  -3391477.112 5
  22012452.946     7967689.916 7   3106826.038 5
  22533233.637    -5212316.723 6  -3296639.897 4
  23650454.961   -19522201.859 6    -12982.130 3
  24017426.831    13696776.617 5  -1439016.859 2
  24764407.527    -1113078.920 5  -2017855.009 2
  20515483.107     5555468.271 8    835906.062 9
 95  4 19 16 19  0.0000000  0  8 19 27 29 31 28  2 16 18
  20727235.064    23155847.005 9   -980296.503 9
  22313754.079    -5600844.314 7  -3437067.251 5
  22027021.930     8044246.915 7   3166480.834 5
  22524284.532    -5259345.618 6  -3333285.768 4
  23654267.781   -19502155.932 6      2638.050 3
  24001081.307    13610890.527 5  -1505941.035 2
  24752122.692    -1177649.558 5  -2068169.758 2
  20522342.628     5591516.971 8    863995.957 9
 95  4 19 16 19 30.0000000  0  8 19 27 29 31 28  2 16 18
  20725860.275    23148629.491 9   -985920.540 9
  22302660.290    -5659153.879 7  -3482503.273 5
  22041665.143     8121197.474 7   3226442.248 5
  22515429.413    -5305870.851 6  -3369539.177 4
  23658194.193   -19481519.543 6     18718.333 3
  23984778.983    13525227.107 5  -1572691.658 2
  24739915.023    -1241770.462 5  -2118134.049 2
  20529307.616     5628098.065 8    892500.699 9
 95  4 19 16 20  0.0000000  0  8 19 27 29 31 28  2 16 18
  20724533.274    23141649.255 9   -991359.673 9
  22291599.717    -5717269.610 7  -3527788.214 5
  22056379.676     8198528.758 7   3286700.362 5
  22506672.895    -5351900.783 6  -3405406.639 4
  23662229.160   -19460298.554 6     35254.160 3
  23968522.317    13439771.294 5  -1639280.594 2
  24727796.213    -1305453.346 5  -2167757.046 2
  20536362.032     5665191.581 8    921404.735 8
 95  4 19 16 20 30.0000000  0  8 19 27 29 31 28  2 16 18
  20723253.310    23134907.652 9   -996612.873 9
  22280573.770    -5775217.854 7  -3572942.674 4
  22071165.050     8276235.444 7   3347250.990 5
  22498009.162    -5397442.467 6  -3440893.636 4
  23666370.463   -19438502.613 6     52237.995 3
  23952299.198    13354527.222 5  -1705704.464 2
  24715765.631    -1368700.593 6  -2217040.575 2
  20543512.502     5702764.623 8    950682.425 8
 95  4 19 16 21  0.0000000  0  8 19 27 29 31 28  2 16 18
  20722015.077    23128408.552 9  -1001677.098 9
  22269573.455    -5833006.395 7  -3617972.661 5
  22086027.981     8354329.224 7   3408103.246 5
  22489436.657    -5442490.373 6  -3475995.894 4
  23670628.205   -19416143.205 6     69660.907 3
  23936118.620    13269493.999 5  -1771964.080 2
  24703805.861    -1431526.770 5  -2265996.032 2
  20550751.081     5740795.345 8    980316.730 8
 95  4 19 16 21 30.0000000  0  8 19 27 29 31 28  2 16 18
  20720826.550    23122160.541 9  -1006545.674 9
  22258605.038    -5890655.777 7  -3662894.224 5
  22100960.823     8432798.616 7   3469248.178 5
  22480952.890    -5487051.345 6  -3510719.508 4
  23674991.984   -19393229.126 6     87515.955 3
  23919969.670    13184657.067 5  -1838070.703 2
  24691932.431    -1493941.982 6  -2314631.215 2
  20558074.621     5779277.147 8   1010302.533 8
 95  4 19 16 22  0.0000000  0  8 19 27 29 31 28  2 16 18
  20719684.281    23116166.043 9  -1011216.697 9
  22247661.205    -5948178.936 7  -3707717.430 5
  22115965.076     8511647.771 7   3530689.057 5
  22472566.346    -5531128.964 6  -3545065.681 4
  23679465.937   -19369757.688 6    105805.381 3
  23903870.515    13100031.489 5  -1904012.708 2
  24680138.326    -1555926.883 5  -2362931.142 2
  20565486.750     5818234.258 8   1040658.725 8
 95  4 19 16 22 30.0000000  0  8 19 27 29 31 28  2 16 18
  20718593.306    23110427.242 9  -1015688.494 9
  22236739.615    -6005565.689 7  -3752434.384 5
  22131043.288     8590888.852 7   3592435.335 5
  22464271.568    -5574714.568 6  -3579028.487 4
  23684039.391   -19345719.587 6    124536.341 3
  23887808.504    13015638.547 5  -1969773.362 2
  24668434.158    -1617445.751 5  -2410867.877 2
  20573000.778     5857701.816 8   1071412.644 8
 95  4 19 16 23  0.0000000  0  8 19 27 29 31 28  2 16 18
  20717549.129    23104931.448 9  -1019970.926 9
  22225846.836    -6062808.487 7  -3797039.115 5
  22146197.826     8670504.135 7   3654473.164 5
  22456071.465    -5617800.985 6  -3612602.286 4
  23688713.065   -19321113.075 6    143710.233 3
  23871793.711    12931469.835 5  -2035359.320 2
  24656814.143    -1678492.320 5  -2458436.569 2
  20580608.281     5897705.182 8   1102584.086 8
 95  4 19 16 23 30.0000000  0  8 19 27 29 31 28  2 16 18
  20716544.824    23099665.344 9  -1024074.386 9
  22214979.300    -6119919.452 7  -3841541.144 5
  22161410.525     8750474.731 7   3716787.883 5
  22447967.026    -5660390.527 6  -3645788.948 4
  23693506.057   -19295937.369 6    163327.607 3
  23855815.762    12847521.702 5  -2100773.420 2
  24645288.322    -1739056.505 5  -2505629.388 2
  20588328.537     5938251.440 8   1134178.559 8
 95  4 19 16 24  0.0000000  0  8 19 27 29 31 28  2 16 18
  20715583.780    23094613.422 9  -1028010.933 9
  22204139.524    -6176893.147 7  -3885936.214 5
  22176700.929     8830807.545 7   3779384.859 5
  22439959.749    -5702470.404 6  -3678578.436 4
  23698406.944   -19270189.940 6    183390.531 3
  23839889.528    12763801.941 5  -2166009.549 2
  24633855.407    -1799143.112 5  -2552450.111 2
  20596145.835     5979347.008 8   1166201.058 8
 95  4 19 16 24 30.0000000  0  8 19 27 29 31 28  2 16 18
  20714661.858    23089772.641 9  -1031782.970 9
  22193316.087    -6233730.938 7  -3930225.371 5
  22192052.732     8911489.224 7   3842253.641 5
  22432052.153    -5744039.870 6  -3710970.195 4
  23703416.806   -19243875.834 6    203894.987 3
  23823996.331    12680297.557 5  -2231077.831 2
  24622506.314    -1858784.427 5  -2598923.784 2
  20604066.921     6020970.753 8   1198635.146 8
 95  4 19 16 25  0.0000000  0  8 19 27 29 31 28  2 16 18
  20713784.695    23085142.815 9  -1035390.619 9
  22182528.955    -6290439.206 7  -3974413.604 5
  22207468.210     8992506.858 7   3905384.238 5
  22424238.783    -5785092.787 6  -3742959.496 4
  23708529.616   -19216999.902 6    224837.272 3
  23808142.826    12597012.407 5  -2295975.268 3
  24611228.601    -1918002.448 5  -2645067.656 2
  20612083.432     6063096.327 8   1231460.258 8
 95  4 19 16 25 30.0000000  0  8 19 27 29 31 28  2 16 18
  20712939.610    23080730.628 9  -1038828.695 9
  22171760.799    -6347020.944 7  -4018503.251 5
  22222955.518     9073877.179 7   3968789.649 5
  22416525.872    -5825635.478 6  -3774551.155 4
  23713748.613   -19189562.984 6    246216.689 3
  23792348.080    12513961.556 5  -2360690.180 2
  24600053.178    -1976792.107 5  -2690877.772 2
  20620189.250     6105700.103 8   1264657.997 8
 95  4 19 16 26  0.0000000  0  8 19 27 29 31 28  2 16 18
  20712148.188    23076552.624 9  -1042084.275 9
  22161021.934    -6403458.621 7  -4062480.624 5
  22238506.922     9155600.658 7   4032470.249 4
  22408898.432    -5865666.361 6  -3805744.021 4
  23719078.054   -19161561.798 6    268035.778 3
  23776584.153    12431152.679 6  -2425216.540 2
  24588936.094    -2035153.209 5  -2736353.909 2
  20628387.884     6148781.044 8   1298227.537 8
 95  4 19 16 26 30.0000000  0  8 19 27 29 31 28  2 16 18
  20711401.165    23072623.416 9  -1045145.992 9
  22150311.458    -6459747.909 7  -4106342.383 5
  22254123.711     9237672.883 7   4096422.590 4
  22401384.524    -5905179.057 6  -3836533.126 4
  23724511.852   -19132990.650 6    290299.001 3
  23760877.067    12348593.318 6  -2489548.451 3
  24577922.199    -2093068.004 5  -2781482.301 2
  20636675.317     6192335.524 8   1332166.078 8
 95  4 19 16 27  0.0000000  0  8 19 27 29 31 28  2 16 18
  20710697.942    23068933.209 9  -1048021.481 9
  22139628.924    -6515887.484 7  -4150087.479 5
  22269807.293     9320093.043 7   4160646.078 4
  22393969.577    -5944158.867 6  -3866906.960 4
  23730062.360   -19103852.414 6    313004.152 3
  23745206.885    12266286.325 6  -2553683.706 3
  24566991.106    -2150512.668 5  -2826244.306 2
  20645054.126     6236362.579 8   1366472.875 8
 95  4 19 16 27 30.0000000  0  8 19 27 29 31 28  2 16 18
  20710037.619    23065473.569 9  -1050717.301 9
  22128974.360    -6571874.735 7  -4193713.892 5
  22285555.181     9402851.202 7   4225132.924 4
  22386655.571    -5982612.975 6  -3896871.161 4
  23735705.533   -19074152.799 6    336146.692 3
  23729598.970    12184214.330 6  -2617635.887 3
  24556148.752    -2207492.245 5  -2870643.951 2
  20653522.934     6280862.334 8   1401147.995 8
 95  4 19 16 28  0.0000000  0  8 19 27 29 31 28  2 16 18
  20709426.163    23062254.042 9  -1053226.024 9
  22118348.996    -6627702.678 7  -4237216.149 5
  22301370.942     9485952.560 7   4289887.196 4
  22379433.630    -6020524.560 6  -3926412.636 4
  23741469.103   -19043885.146 6    359731.889 3
  23714024.932    12102370.346 6  -2681410.368 3
  24545399.394    -2263998.621 5  -2914674.831 2
  20662085.816     6325856.812 8   1436208.619 8
 95  4 19 16 28 30.0000000  0  8 19 27 29 31 28  2 16 18
  20708855.448    23059271.491 9  -1055550.088 9
  22107757.778    -6683378.486 7  -4280599.868 5
  22317251.428     9569416.014 7   4354923.603 4
  22372329.539    -6057881.128 7  -3955521.638 4
  23747340.358   -19013047.115 6    383761.534 3
  23698491.156    12020757.137 6  -2745005.010 3
  24534738.084    -2320015.033 5  -2958323.968 2
  20670741.184     6371352.913 8   1471660.089 8
 95  4 19 16 29  0.0000000  0  8 19 27 29 31 28  2 16 18
  20708334.948    23056524.764 8  -1057690.387 9
  22097190.333    -6738897.433 7  -4323861.366 5
  22333207.013     9653255.181 7   4420252.803 4
  22365325.457    -6094685.599 7  -3984200.393 4
  23753318.160   -18981640.123 6    408234.507 3
  23683001.119    11939372.080 6  -2808421.904 3
  24524168.871    -2375550.919 5  -3001598.615 2
  20679494.944     6417349.441 8   1507501.521 8
 95  4 19 16 29 30.0000000  0  8 19 27 29 31 28  2 16 18
  20707857.109    23054017.019 8  -1059644.478 9
  22086653.858    -6794262.452 7  -4367002.919 5
  22349234.067     9737475.255 7   4485878.765 4
  22358422.466    -6130954.079 7  -4012461.513 4
  23759398.221   -18949668.142 6    433147.780 3
  23667557.611    11858202.883 6  -2871670.594 3
  24513700.268    -2430609.445 5  -3044501.339 2
  20688345.147     6463848.058 8   1543734.173 8
 95  4 19 16 30  0.0000000  0  8 19 27 29 31 28  2 16 18
  20707423.699    23051739.803 8  -1061418.931 9
  22076145.113    -6849483.530 7  -4410032.300 5
  22365331.153     9822079.703 7   4551804.266 4
  22351620.955    -6166691.186 7  -4040308.583 4
  23765597.089   -18917134.397 6    458498.720 3
  23652151.396    11777250.188 6  -2934750.552 3
  24503301.517    -2485189.900 5  -3087031.496 2
  20697291.313     6510859.871 8   1580366.738 8
 95  4 19 16 30 30.0000000  0  8 19 27 29 31 28  2 16 18
  20707031.840    23049676.933 9  -1063026.361 9
  22065666.737    -6904558.502 7  -4452947.856 5
  22381500.370     9907048.557 7   4618013.730 4
  22344927.459    -6201896.566 7  -4067741.326 4
  23771890.243   -18884045.001 6    484282.671 3
  23636792.279    11696515.739 6  -2997660.462 3
  24493004.846    -2539310.610 5  -3129203.483 2
  20706329.456     6558369.646 8   1617387.341 8
 95  4 19 16 31  0.0000000  0  8 19 27 29 31 28  2 16 18
  20706681.083    23047828.735 9  -1064466.505 9
  22055214.803    -6959482.134 7  -4495745.457 5
  22397738.298     9992369.719 7   4684497.699 4
  22338325.279    -6236575.651 7  -4094763.941 4
  23778290.332   -18850402.555 6    510497.577 3
  23621464.011    11615999.874 6  -3060400.057 3
  24482801.229    -2592985.950 5  -3171028.356 2
  20715466.771     6606376.384 8   1654795.193 8
 95  4 19 16 31 30.0000000  0  8 19 27 29 31 28  2 16 18
  20706367.980    23046190.597 8  -1065742.972 9
  22044789.310    -7014277.797 7  -4538443.342 5
  22414037.565    10078015.087 7   4751234.315 4
  22331823.770    -6270737.685 7  -4121383.666 4
  23784792.920   -18816221.356 6    537132.275 3
  23606181.461    11535692.216 6  -3122977.411 3
  24472657.482    -2646219.725 5  -3212509.204 2
  20724693.243     6654874.238 8   1692585.721 8
 95  4 19 16 32  0.0000000  0  8 19 27 29 31 28  2 16 18
  20706096.997    23044751.538 8  -1066864.323 9
  22034382.524    -7068965.690 7  -4581057.253 5
  22430389.894    10163964.573 7   4818207.889 4
  22325421.462    -6304396.817 7  -4147611.540 4
  23791398.727   -18781517.519 6    564174.233 3
  23590945.109    11455599.287 6  -3185387.417 3
  24462610.987    -2699028.861 5  -3253659.103 2
  20734016.189     6703844.935 8   1730744.719 8
 95  4 19 16 32 30.0000000  0  8 19 27 29 31 28  2 16 18
  20705861.780    23043530.304 8  -1067815.929 9
  22023992.497    -7123548.613 7  -4623589.386 5
  22446804.401    10250212.458 7   4885413.988 4
  22319112.090    -6337545.671 7  -4173441.799 4
  23798103.106   -18746295.394 6    591619.995 3
  23575738.616    11375726.964 6  -3247625.528 3
  24452647.205    -2751410.576 5  -3294476.033 2
  20743419.030     6753270.512 8   1769258.117 8
 95  4 19 16 33  0.0000000  0  8 19 27 29 31 28  2 16 18
  20705669.583    23042534.013 8  -1068592.266 9
  22013625.914    -7178035.759 7  -4666046.886 5
  22463274.729    10336758.417 7   4952852.357 4
  22312903.508    -6370190.123 7  -4198879.000 4
  23804904.977   -18710555.858 6    619468.981 3
  23560593.940    11296077.978 6  -3309689.633 3
  24442765.176    -2803346.902 5  -3334945.857 2
  20752908.780     6803151.876 8   1808126.689 8
 95  4 19 16 33 30.0000000  0  8 19 27 29 31 28  2 16 18
  20705523.764    23041753.799 8  -1069200.213 9
  22003275.190    -7232435.116 7  -4708435.954 5
  22479796.321    10423589.276 7   5020512.727 4
  22306782.796    -6402331.060 7  -4223923.838 4
  23811793.788   -18674306.052 6    647715.552 3
  23545473.188    11216644.885 6  -3371585.502 3
  24432964.121    -2854827.291 5  -3375060.409 2
  20762490.027     6853485.367 8   1847347.587 8
 95  4 19 16 34  0.0000000  0  8 19 27 29 31 28  2 16 18
  20705417.907    23041189.527 9  -1069639.897 9
  21992941.374    -7286724.838 7  -4750739.629 5
  22496374.304    10510709.844 7   5088398.833 4
  22300766.950    -6433948.237 7  -4248560.630 4
  23818797.899   -18637534.909 6    676368.326 2
  23530398.274    11137438.611 6  -3433304.615 3
  24423249.826    -2905840.666 5  -3414811.059 2
  20772153.148     6904277.175 8   1886925.586 8
 95  4 19 16 34 30.0000000  0  8 19 27 29 31 28  2 16 18
  20705349.195    23040839.457 9  -1069912.680 9
  21982634.119    -7340878.403 7  -4792937.180 5
  22513013.115    10598130.219 7   5156518.552 4
  22294854.413    -6465012.575 7  -4272766.566 4
  23825905.439   -18600224.859 6    705441.111 2
  23515368.179    11058453.416 6  -3494851.442 3
  24413637.520    -2956367.682 5  -3454182.705 2
  20781909.024     6955538.370 8   1926869.370 8
 95  4 19 16 35  0.0000000  0  8 19 27 29 31 28  2 16 18
  20705326.111    23040694.016 9  -1070026.006 9
  21972362.270    -7394868.813 7  -4835007.611 5
  22529710.236    10685868.408 7   5224885.936 4
  22289047.793    -6495509.674 7  -4296530.529 4
  23833102.796   -18562359.182 6    734946.803 2
  23500383.743    10979693.934 6  -3556222.427 3
  24404122.408    -3006388.320 5  -3493159.836 2
  20791756.397     7007294.651 8   1967198.913 8
 95  4 19 16 35 30.0000000  0  8 19 27 29 31 28  2 16 18
  20705335.255    23040762.531 9  -1069972.608 9
  21962118.212    -7448681.751 7  -4876939.738 5
  22546464.078    10773936.870 7   5293510.680 4
  22283358.572    -6525431.848 7  -4319846.516 4
  23840414.854   -18523932.495 6    764889.623 2
  23485432.553    10901159.907 6  -3617417.733 3
  24394698.522    -3055905.996 5  -3531745.006 2
  20801700.602     7059550.977 8   2007918.114 8
 95  4 19 16 36  0.0000000  0  8 19 27 29 31 28  2 16 18
  20705391.106    23041043.733 9  -1069753.491 9
  21951919.153    -7502314.284 7  -4918731.300 5
  22563287.411    10862335.904 7   5362392.982 4
  22277769.481    -6554785.430 7  -4342719.428 4
  23847832.079   -18484948.753 5    795266.535 2
  23470535.536    10822853.262 6  -3678435.834 3
  24385367.661    -3104934.294 5  -3569948.830 2
  20811738.883     7112296.053 8   2049018.160 8
 95  4 19 16 36 30.0000000  0  8 19 27 29 31 28  2 16 18
  20705486.560    23041550.582 9  -1069358.551 9
  21941748.034    -7555758.086 7  -4960375.796 5
  22580177.358    10951085.130 7   5431548.190 4
  22272292.813    -6583570.714 7  -4365149.496 4
  23855359.238   -18445403.802 6    826080.701 2
  23455678.901    10744778.635 6  -3739273.169 3
  24376131.715    -3153461.643 5  -3607762.330 2
  20821872.108     7165531.559 8   2090500.387 8
 95  4 19 16 37  0.0000000  0  8 19 27 29 31 28  2 16 18
  20705629.861    23042310.438 9  -1068766.453 9
  21931609.413    -7609025.087 7  -5001882.526 5
  22597130.082    11040175.692 7   5500969.368 4
  22266920.202    -6611789.000 7  -4387137.777 4
  23862989.046   -18405300.391 6    857330.098 2
  23440872.572    10666949.784 6  -3799919.005 3
  24366995.600    -3201487.419 5  -3645184.998 2
  20832092.243     7219252.183 8   2132360.581 8
 95  4 19 16 37 30.0000000  0  8 19 27 29 31 28  2 16 18
  20705831.651    23043347.587 9  -1067958.293 9
  21921505.987    -7662119.187 7  -5043254.537 5
  22614143.005    11129597.408 7   5570648.569 4
  22261663.731    -6639431.129 7  -4408677.103 4
  23870723.572   -18364635.527 6    889016.935 2
  23426111.271    10589382.214 6  -3860361.210 3
  24357959.106    -3249004.851 5  -3682211.518 2
  20842407.921     7273454.299 8   2174595.967 8
 95  4 19 16 38  0.0000000  0  8 19 27 29 31 28  2 16 18
  20706076.522    23044657.098 9  -1066937.884 9
  21911435.749    -7715047.592 7  -5084497.433 6
  22631225.988    11219348.723 7   5640584.621 4
  22256514.196    -6666484.366 7  -4429757.548 4
  23878578.464   -18323410.916 6    921139.961 2
  23411397.757    10512087.909 6  -3920590.499 3
  24349007.693    -3296008.567 5  -3718837.791 2
  20852811.019     7328137.518 8   2217206.260 8
 95  4 19 16 38 30.0000000  0  8 19 27 29 31 28  2 16 18
  20706378.892    23046240.941 9  -1065703.717 9
  21901393.841    -7767818.514 7  -5125617.614 6
  22648369.470    11309436.826 7   5710783.117 3
  22251481.640    -6692935.334 7  -4450368.692 4
  23886527.941   -18281624.009 6    953701.154 2
  23396740.184    10435073.682 6  -3980601.543 3
  24340158.569    -3342496.087 5  -3755061.794 2
  20863310.351     7383303.312 8   2260192.587 7
 95  4 19 16 39  0.0000000  0  8 19 27 29 31 28  2 16 18
  20706729.230    23048081.071 9  -1064269.846 9
  21891378.554    -7820445.447 7  -5166625.598 6
  22665574.050    11399860.735 7   5781243.250 3
  22246561.356    -6718787.654 6  -4470513.357 4
  23894578.687   -18239278.396 5    986697.712 2
  23382143.919    10358350.752 6  -4040385.604 3
  24331412.154    -3388473.138 5  -3790888.025 2
  20873903.008     7438960.086 8   2303561.474 7
 95  4 19 16 39 30.0000000  0  8 19 27 29 31 28  2 16 18
  20707125.585    23050159.332 9  -1062650.421 9
  21881389.259    -7872922.452 7  -5207516.742 6
  22682853.397    11490647.545 7   5851986.156 3
  22241756.492    -6744042.659 7  -4490192.567 4
  23902739.818   -18196370.647 5   1020132.209 2
  23367604.074    10281934.057 6  -4099931.038 3
  24322768.897    -3433935.544 5  -3826313.219 2
  20884588.870     7495115.389 8   2347318.833 7
 95  4 19 16 40  0.0000000  0  8 19 27 29 31 28  2 16 18
  20707561.454    23052457.912 9  -1060859.336 9
  21871432.283    -7925248.765 7  -5248290.486 6
  22700199.059    11581810.401 7   5923022.118 3
  22237066.989    -6768702.587 6  -4509408.087 4
  23911015.349   -18152904.730 5   1054001.751 2
  23353122.839    10205822.936 6  -4159238.357 3
  24314209.313    -3478887.803 5  -3861340.976 2
  20895368.687     7551762.576 8   2391459.475 7
 95  4 19 16 40 30.0000000  0  8 19 27 29 31 28  2 16 18
  20708039.413    23054973.606 9  -1058899.048 9
  21861509.992    -7977415.157 7  -5288939.608 6
  22717620.628    11673342.891 7   5994346.095 3
  22232483.312    -6792779.426 6  -4528169.264 3
  23919406.090   -18108885.218 5   1088302.566 2
  23338692.689    10130012.147 6  -4218311.689 3
  24305752.528    -3523319.363 5  -3895962.923 2
  20906241.680     7608899.647 8   2435981.849 7
 95  4 19 16 41  0.0000000  0  8 19 27 29 31 28  2 16 18
  20708558.263    23057699.742 9  -1056774.793 9
  21851610.605    -8029414.827 7  -5329458.793 6
  22735102.726    11765226.194 7   6065943.409 3
  22228005.582    -6816282.154 7  -4546483.063 3
  23927883.801   -18064319.295 5   1123029.237 2
  23324318.870    10054482.923 6  -4277165.591 3
  24297400.759    -3567219.725 5  -3930170.921 2
  20917204.880     7666524.893 8   2480884.600 7
 95  4 19 16 41 30.0000000  0  8 19 27 29 31 28  2 16 18
  20709120.824    23060650.390 9  -1054475.586 9
  21841750.521    -8081233.303 7  -5369836.810 6
  22752649.459    11857433.963 7   6137793.578 3
  22223646.630    -6839204.550 6  -4564344.652 4
  23936462.692   -18019208.457 5   1158180.506 2
  23309997.335     9979213.135 6  -4335817.329 3
  24289140.938    -3610586.063 5  -3963962.858 2
  20928265.813     7724633.606 8   2526164.111 7
 95  4 19 16 42  0.0000000  0  8 19 27 29 31 28  2 16 18
  20709727.004    23063834.047 9  -1051994.803 9
  21831923.594    -8132872.711 8  -5410075.287 6
  22770254.201    11949945.742 7   6209880.642 3
  22219396.352    -6861542.697 7  -4581750.986 3
  23945147.799   -17973558.815 5   1193751.552 2
  23295714.113     9904179.307 6  -4394285.213 3
  24281003.641    -3653411.459 5  -3997333.320 2
  20939411.227     7783228.851 8   2571822.725 7
 95  4 19 16 42 30.0000000  0  8 19 27 29 31 28  2 16 18
  20710375.425    23067248.698 8  -1049334.035 9
  21822130.663    -8184348.030 8  -5450185.907 6
  22787913.266    12042739.351 7   6282187.260 3
  22215258.107    -6883313.191 7  -4598714.998 3
  23953936.005   -17927381.102 5   1229734.181 2
  23281479.847     9829361.539 6  -4452584.730 3
  24272944.590    -3695713.047 5  -4030295.563 2
  20950655.483     7842307.805 8   2617858.252 7
 95  4 19 16 43  0.0000000  0  8 19 27 29 31 28  2 16 18
  20711069.655    23070894.459 8  -1046493.181 9
  21812361.296    -8235678.087 8  -5490183.338 6
  22805621.767    12135802.277 7   6354703.820 3
  22211217.324    -6904523.942 7  -4615242.820 3
  23962819.006   -17880682.903 5   1266122.306 2
  23267282.276     9754749.890 6  -4510723.626 3
  24264990.467    -3737517.402 5  -4062870.337 2
  20961989.826     7901861.036 8   2664263.358 7
 95  4 19 16 43 30.0000000  0  8 19 27 29 31 28  2 16 18
  20711809.932    23074772.142 8  -1043471.610 9
  21802620.290    -8286881.464 8  -5530082.038 6
  22823377.545    12229131.470 7   6427427.804 3
  22207284.197    -6925187.187 7  -4631344.021 4
  23971811.760   -17833478.380 5   1302904.988 2
  23253122.029     9680353.325 6  -4568694.908 4
  24257124.122    -3778854.013 5  -4095080.661 2
  20973410.180     7961878.219 8   2711029.965 7
 95  4 19 16 44  0.0000000  0  8 19 27 29 31 28  2 16 18
  20712591.851    23078882.856 8  -1040268.454 9
  21792898.380    -8337960.455 8  -5569883.840 6
  22841191.602    12322735.627 7   6500366.044 3
  22203459.085    -6945307.521 7  -4647022.217 3
  23980885.009   -17785768.307 6   1340081.651 3
  23239011.817     9606192.090 6  -4626482.883 3
  24249346.367    -3819733.280 5  -4126934.655 2
  20984921.191     8022357.480 8   2758156.636 7
 95  4 19 16 44 30.0000000  0  8 19 27 29 31 28  2 16 18
  20713415.921    23083228.255 8  -1036882.418 9
  21783206.750    -8388896.900 8  -5609574.535 6
  22859057.734    12416623.594 7   6573525.451 3
  22199731.945    -6964876.929 7  -4662271.080 4
  23990059.318   -17737541.682 5   1377660.796 3
  23224940.998     9532287.172 6  -4684071.081 4
  24241649.435    -3860149.544 5  -4158427.809 2
  20996517.134     8083300.998 8   2805645.068 7
 95  4 19 16 45  0.0000000  0  8 19 27 29 31 28  2 16 18
  20714290.415    23087820.005 8  -1033304.435 9
  21773542.970    -8439672.217 8  -5649139.678 6
  22876982.325    12510810.133 7   6646917.534 3
  22196118.607    -6983873.854 7  -4677073.855 4
  23999338.314   -17688785.516 6   1415652.587 3
  23210933.255     9458662.307 6  -4741441.048 4
  24234062.078    -3900070.066 5  -4189534.676 2
  21008203.853     8144725.354 8   2853508.178 7
 95  4 19 16 45 30.0000000  0  8 19 27 29 31 28  2 16 18
  20715212.337    23092645.093 8  -1029544.632 9
  21763913.546    -8490276.168 8  -5688571.302 6
  22894967.444    12605308.845 6   6720552.828 3
  22192614.543    -7002284.242 7  -4691419.622 4
  24008715.732   -17639495.545 6   1454060.339 3
  23196986.341     9385325.368 6  -4798586.673 4
  24226558.602    -3939478.876 5  -4220242.831 2
  21019988.425     8206640.589 8   2901753.794 7
 95  4 19 16 46  0.0000000  0  8 19 27 29 31 28  2 16 18
  20716169.185    23097691.025 8  -1025612.736 9
  21754314.521    -8540710.844 8  -5727871.049 6
  22913011.472    12700122.048 6   6794433.202 3
  22189224.160    -7020099.916 7  -4705301.951 4
  24018197.028   -17589669.631 6   1492885.670 3
  23183077.769     9312264.456 6  -4855517.235 4
  24219162.902    -3978358.661 5  -4250538.719 2
  21031859.667     8269038.388 8   2950375.430 7
 95  4 19 16 46 30.0000000  0  8 19 27 29 31 28  2 16 18
  20717171.601    23102951.888 8  -1021513.369 9
  21744747.155    -8590988.625 8  -5767048.532 6
  22931113.750    12795255.341 6   6868562.998 4
  22185945.150    -7037323.186 7  -4718722.668 4
  24027782.053   -17539314.405 6   1532123.471 3
  23169222.711     9239465.187 6  -4912243.876 4
  24211862.926    -4016700.689 5  -4280415.588 2
  21043823.664     8331910.025 8   2999366.290 7
 95  4 19 16 47  0.0000000  0  8 19 27 29 31 28  2 16 18
  20718211.161    23108417.109 8  -1017254.743 9
  21735206.050    -8641122.146 8  -5806113.577 6
  22949266.603    12890700.840 6   6942936.056 3
  22182781.980    -7053956.033 7  -4731683.311 4
  24037464.719   -17488441.743 6   1571764.488 3
  23155420.296     9166919.284 6  -4968773.095 4
  24204671.115    -4054523.410 5  -4309887.843 2
  21055876.160     8395241.616 8   3048715.546 7
 95  4 19 16 47 30.0000000  0  8 19 27 29 31 28  2 16 18
  20719286.127    23114080.144 8  -1012841.995 9
  21725693.665    -8691119.852 8  -5845072.771 6
  22967492.036    12986445.478 6   7017542.226 3
  22179730.752    -7070001.768 7  -4744186.479 4
  24047243.500   -17437061.146 6   1611801.313 3
  23141656.555     9094610.057 6  -5025117.934 4
  24197566.243    -4091848.368 5  -4338972.241 2
  21068011.189     8459008.136 8   3098403.740 7
 95  4 19 16 48  0.0000000  0  8 19 27 29 31 28  2 16 18
  20720405.102    23119956.263 8  -1008263.208 9
  21716207.422    -8740978.630 8  -5883923.751 6
  22985766.425    13082484.657 6   7092377.902 3
  22176781.214    -7085465.282 7  -4756235.942 4
  24057111.348   -17385177.023 6   1652230.480 3
  23127946.656     9022527.701 6  -5081285.961 4
  24190560.993    -4128681.220 5  -4367673.103 2
  21080223.325     8523193.594 8   3148418.340 7
 95  4 19 16 48 30.0000000  0  8 19 27 29 31 28  2 16 18
  20721565.928    23126046.582 8  -1003517.522 9
  21706746.332    -8790684.232 8  -5922655.356 6
  23004097.894    13178810.054 6   7167436.605 3
  22173956.659    -7100344.121 7  -4767829.832 4
  24067083.105   -17332790.530 6   1693051.109 3
  23114269.224     8950678.588 6  -5137272.219 4
  24183635.488    -4165031.762 5  -4395998.177 2
  21092518.114     8587799.442 8   3198760.537 7
 95  4 19 16 49  0.0000000  0  8 19 27 29 31 28  2 16 18
  20722762.910    23132350.828 8   -998605.134 9
  21697316.660    -8840227.145 8  -5961260.218 6
  23022479.819    13275399.606 6   7242701.139 3
  22171235.953    -7114629.272 7  -4778961.121 4
  24077148.487   -17279903.205 6   1734261.997 3
  23100643.837     8879062.360 6  -5193077.026 4
  24176800.789    -4200912.811 5  -4423957.422 2
  21104893.156     8652826.002 8   3249430.569 7
 95  4 19 16 49 30.0000000  0  8 19 27 29 31 28  2 16 18
  20724005.879    23138884.025 8   -993514.322 9
  21687922.004    -8889604.223 8  -5999735.836 6
  23040908.691    13372250.230 6   7318169.118 3
  22168631.776    -7128321.492 7  -4789630.364 4
  24087308.004   -17226517.806 6   1775861.011 3
  23087062.099     8807682.073 6  -5248698.016 4
  24170071.708    -4236306.133 5  -4451536.616 2
  21117350.013     8718286.130 8   3300438.428 7
 95  4 19 16 50  0.0000000  0  8 19 27 29 31 28  2 16 18
  20725293.818    23145640.527 8   -988249.528 9
  21678556.038    -8938822.830 8  -6038087.977 6
  23059388.887    13469351.324 6   7393832.255 3
  22166138.821    -7141429.940 7  -4799844.731 4
  24097553.441   -17172644.416 6   1817840.211 3
  23073526.110     8736546.523 6  -5304128.247 4
  24163439.249    -4271206.908 5  -4478732.015 2
  21129891.680     8784188.686 8   3351791.058 7
 95  4 19 16 50 30.0000000  0  8 19 27 29 31 28  2 16 18
  20726623.487    23152625.711 8   -982806.513 9
  21669220.171    -8987885.468 8  -6076318.585 6
  23077908.926    13566692.113 6   7469682.169 3
  22163756.611    -7153943.055 7  -4809595.196 4
  24107904.465   -17118275.657 6   1860205.486 3
  23060040.126     8665675.805 6  -5359352.136 4
  24156886.356    -4305599.622 5  -4505531.500 2
  21142518.249     8850550.109 8   3403501.224 7
 95  4 19 16 51  0.0000000  0  8 19 27 29 31 28  2 16 18
  20727998.275    23159855.170 8   -977173.162 9
  21659914.074    -9036796.924 8  -6114431.391 6
  23096484.097    13664283.206 6   7545727.143 3
  22161492.038    -7165847.299 7  -4818871.230 4
  24118350.853   -17063402.937 6   1902963.427 3
  23046604.568     8595082.245 6  -5414360.072 4
  24150450.531    -4339454.622 5  -4531912.030 2
  21155235.565     8917386.466 8   3455581.475 7
 95  4 19 16 51 30.0000000  0  8 19 27 29 31 28  2 16 18
  20729421.900    23167339.749 8   -971341.011 9
  21650630.101    -9085572.758 8  -6152438.525 6
  23115104.986    13762144.203 6   7621982.432 3
  22159339.528    -7177148.594 7  -4827677.423 4
  24128888.648   -17008023.157 5   1946116.490 3
  23033224.021     8524774.741 6  -5469145.098 4
  24144111.180    -4372745.854 5  -4557853.249 2
  21168043.898     8984694.799 8   3508029.497 7
 95  4 19 16 52  0.0000000  0  8 19 27 29 31 28  2 16 18
  20730891.003    23175054.453 8   -965329.546 9
  21641369.572    -9134232.198 8  -6190354.962 6
  23133773.032    13860269.373 6   7698443.524 3
  22157306.366    -7187856.793 7  -4836021.469 4
  24139513.922   -16952146.288 5   1989656.837 3
  23019894.589     8454739.453 6  -5523718.022 4
  24137876.096    -4405503.038 5  -4583378.290 2
  21180937.822     9052439.830 8   3560817.814 7
 95  4 19 16 52 30.0000000  0  8 19 27 29 31 28  2 16 18
  20732402.556    23182977.631 8   -959155.643 9
  21632134.195    -9182786.440 8  -6228189.433 6
  23152497.619    13958657.946 6   7775109.897 3
  22155371.685    -7197982.469 7  -4843911.600 4
  24150243.764   -16895782.646 5   2033576.544 3
  23006618.909     8384959.189 6  -5578092.218 4
  24131735.867    -4437743.300 5  -4608500.585 2
  21193905.794     9120594.565 8   3613925.370 7
 95  4 19 16 53  0.0000000  0  8 19 27 29 31 28  2 16 18
  20733939.922    23191102.301 8   -952824.728 9
  21622919.954    -9231215.338 8  -6265926.217 6
  23171278.748    14057332.565 6   7851999.173 3
  22153557.371    -7207523.372 7  -4851346.065 4
  24161062.375   -16838931.160 5   2077876.347 3
  22993386.550     8315437.313 6  -5632265.092 4
  24125700.025    -4469463.456 5  -4633217.569 2
  21206955.970     9189164.202 8   3667356.235 7
 95  4 19 16 53 30.0000000  0  8 19 27 29 31 28  2 16 18
  20735531.041    23199444.864 8   -946324.039 9
  21613730.236    -9279487.330 8  -6303540.735 6
  23190111.080    14156313.932 6   7929127.434 3
  22151852.961    -7216470.032 7  -4858317.459 4
  24171980.696   -16781579.698 5   2122565.738 3
  22980214.359     8246194.385 7  -5686220.585 4
  24119771.869    -4500664.321 5  -4657529.911 2
  21220084.751     9258158.669 8   3721118.126 7
 95  4 19 16 54  0.0000000  0  8 19 27 29 31 28  2 16 18
  20737156.815    23207992.330 8   -939663.680 9
  21604580.000    -9327573.130 8  -6341010.195 6
  23209002.652    14255593.630 6   8006488.197 3
  22150263.162    -7224810.289 7  -4864816.357 4
  24182984.728   -16723729.772 5   2167643.583 3
  22967086.627     8177227.906 7  -5739960.637 4
  24113932.452    -4531357.496 5  -4681446.711 2
  21233296.185     9327585.835 8   3775217.185 7
 95  4 19 16 54 30.0000000  0  8 19 27 29 31 28  2 16 18
  20738827.259    23216755.442 8   -932835.286 9
  21595470.927    -9375456.121 8  -6378321.596 6
  23227952.623    14355153.025 6   8084066.901 3
  22148795.648    -7232548.881 7  -4870846.451 5
  24194096.296   -16665384.050 5   2213107.780 3
  22954013.757     8108531.121 7  -5793490.598 4
  24108194.304    -4561521.181 6  -4704950.804 2
  21246593.749     9397474.877 8   3829676.161 7
 95  4 19 16 55  0.0000000  0  8 19 27 29 31 28  2 16 18
  20740540.423    23225764.262 8   -925815.434 9
  21586397.348    -9423130.261 8  -6415470.247 7
  23246949.422    14454987.473 6   8161859.933 3
  22147439.477    -7239674.620 7  -4876398.960 5
  24205284.910   -16606539.261 5   2258960.787 3
  22940993.950     8040101.088 7  -5846812.666 4
  24102551.731    -4591141.491 6  -4728031.588 2
  21259984.519     9467841.917 8   3884507.579 7
 95  4 19 16 55 30.0000000  0  8 19 27 29 31 28  2 16 18
  20742305.751    23235033.107 8   -918592.951 9
  21577360.014    -9470607.129 8  -6452465.209 7
  23265996.586    14555084.273 6   8239857.372 3
  22146208.529    -7246189.798 7  -4881475.720 5
  24216577.432   -16547193.909 5   2305203.886 3
  22928019.173     7971934.480 7  -5899929.465 4
  24097022.628    -4620217.558 5  -4750688.256 2
  21273465.286     9538676.526 8   3939703.359 7
 95  4 19 16 56  0.0000000  0  8 19 27 29 31 28  2 16 18
  20744114.249    23244548.549 8   -911178.317 9
  21568360.215    -9517901.105 8  -6489317.628 7
  23285088.898    14655422.625 6   8318043.068 3
  22145075.193    -7252100.150 7  -4886081.180 5
  24227969.726   -16487352.627 5   2351833.438 3
  22915098.238     7904021.986 7  -5952848.259 4
  24091591.648    -4648749.935 5  -4772921.240 2
  21287032.004     9609973.565 8   3995259.468 6
 95  4 19 16 56 30.0000000  0  8 19 27 29 31 28  2 16 18
  20745975.360    23254315.174 8   -903567.957 9
  21559393.033    -9565038.743 8  -6526048.241 7
  23304228.578    14756003.202 6   8396417.505 3
  22144062.015    -7257412.577 7  -4890220.742 5
  24239452.106   -16427018.354 5   2398847.119 3
  22902226.409     7836379.696 7  -6005556.548 4
  24086270.032    -4676739.221 5  -4794731.071 2
  21300686.262     9681722.349 8   4051167.575 6
 95  4 19 16 57  0.0000000  0  8 19 27 29 31 28  2 16 18
  20747881.920    23264331.874 8   -895762.752 9
  21550448.905    -9612028.702 8  -6562663.780 7
  23323418.323    14856833.046 6   8474986.145 3
  22143173.460    -7262117.194 7  -4893886.661 5
  24251019.149   -16366186.870 5   2446248.245 3
  22889411.630     7769034.514 7  -6058033.261 4
  24081047.708    -4704192.065 5  -4816122.915 2
  21314421.853     9753905.533 8   4107414.194 6
 95  4 19 16 57 30.0000000  0  8 19 27 29 31 28  2 16 18
  20749830.122    23274573.619 8   -887782.183 9
  21541536.375    -9658872.302 8  -6599165.276 7
  23342646.682    14957912.402 6   8553749.222 3
  22142392.081    -7266212.473 7  -4897077.788 5
  24262693.397   -16304862.048 5   2494033.791 2
  22876658.639     7702003.747 7  -6110265.021 4
  24075910.884    -4731117.219 5  -4837103.554 2
  21328239.827     9826506.715 8   4163986.513 6
 95  4 19 16 58  0.0000000  0  8 19 27 29 31 28  2 16 18
  20751819.664    23285033.212 8   -879631.849 9
  21532650.976    -9705573.775 8  -6635556.021 7
  23361932.421    15059235.415 6   8632702.199 3
  22141729.390    -7269688.133 7  -4899786.110 5
  24274448.229   -16243053.375 5   2542196.362 2
  22863958.681     7635285.488 7  -6162253.283 4
  24070895.326    -4757527.060 5  -4857682.616 2
  21342130.620     9899526.693 8   4220885.164 6
 95  4 19 16 58 30.0000000  0  8 19 27 29 31 28  2 16 18
  20753850.638    23295715.727 8   -871307.827 9
  21523789.890    -9752133.999 8  -6671836.703 7
  23381266.636    15160811.357 6   8711852.205 2
  22141184.367    -7272538.104 7  -4902006.856 5
  24286301.244   -16180771.205 5   2590727.887 2
  22851323.928     7568867.867 7  -6214007.230 4
  24065968.267    -4783423.442 5  -4877861.599 2
  21356108.594     9972959.991 8   4278105.891 6
 95  4 19 16 59  0.0000000  0  8 19 27 29 31 28  2 16 18
  20755927.600    23306616.589 8   -862813.655 9
  21514959.803    -9798538.658 8  -6707996.174 7
  23400640.034    15262641.649 6   8791200.411 3
  22140767.086    -7274758.893 7  -4903737.349 5
  24298246.024   -16118020.054 5   2639624.886 2
  22838740.379     7502729.990 7  -6265543.220 4
  24061139.330    -4808806.091 6  -4897640.310 2
  21370163.194    10046811.614 8   4335652.550 6
 95  4 19 16 59 30.0000000  0  8 19 27 29 31 28  2 16 18
  20758040.927    23317737.890 8   -854147.703 9
  21506160.625    -9844778.702 8  -6744027.346 7
  23420070.752    15364743.802 6   8870760.501 3
  22140466.694    -7276344.838 7  -4904973.147 5
  24310281.252   -16054799.373 4   2688887.688 2
  22826201.080     7436860.629 7  -6316869.991 4
  24056406.806    -4833668.689 5  -4917013.763 2
  21384294.331    10121092.078 8   4393533.412 6
 95  4 19 17  0  0.0000000  0  8 19 27 29 31 28  2 16 18
  20760204.499    23329088.236 8   -845303.286 9
  21497395.323    -9890845.112 8  -6779923.249 7
  23439550.727    15467112.323 6   8950528.077 2
  22140280.972    -7277308.395 7  -4905723.964 5
  24322401.832   -15991108.037 5   2738517.260 2
  22813714.994     7371249.628 7  -6367995.423 4
  24051768.627    -4857996.134 5  -4935970.195 2
  21398518.224    10195824.515 8   4451766.453 6
 95  4 19 17  0 30.0000000  0  8 19 27 29 31 28  2 16 18
  20762405.096    23340654.402 8   -836290.684 9
  21488662.758    -9936723.708 8  -6815672.789 7
  23459079.927    15569740.359 6   9030497.937 3
  22140210.341    -7277672.223 7  -4906007.468 5
  24334596.909   -15926947.021 5   2788512.879 2
  22801278.313     7305887.611 7  -6418926.837 4
  24047248.506    -4881774.692 5  -4954498.969 2
  21412821.892    10271004.843 8   4510348.512 6
 95  4 19 17  1  0.0000000  0  8 19 27 29 31 28  2 16 18
  20764643.436    23352417.376 8   -827124.737 9
  21479965.809    -9982429.944 8  -6851288.045 7
  23478654.156    15672598.168 6   9110646.817 3
  22140253.421    -7277465.259 7  -4905846.207 5
  24346891.758   -15862327.966 5   2838865.310 2
  22788884.653     7240771.353 7  -6469666.776 4
  24042828.276    -4905018.164 5  -4972610.768 2
  21427210.461    10346608.574 8   4569260.482 6
 95  4 19 17  1 30.0000000  0  8 19 27 29 31 28  2 16 18
  20766918.442    23364373.326 8   -817808.416 9
  21471291.704   -10027983.708 8  -6886784.459 7
  23498266.189    15775659.014 6   9190953.894 3
  22140394.204    -7276699.987 7  -4905249.883 5
  24359278.882   -15797260.195 5   2889567.434 2
  22776537.071     7175896.348 7  -6520218.711 5
  24038495.466    -4927730.864 5  -4990308.933 2
  21441674.817    10422616.269 8   4628487.219 6
 95  4 19 17  2  0.0000000  0  8 19 27 29 31 28  2 16 18
  20769225.944    23376527.591 8   -808337.568 9
  21462657.411   -10073383.152 8  -6922160.646 7
  23517911.589    15878903.989 6   9271404.472 3
  22140647.768    -7275373.190 7  -4904216.013 5
  24371746.261   -15731746.791 5   2940616.794 2
  22764240.005     7111257.862 7  -6570586.325 5
  24034282.602    -4949913.716 5  -5007594.268 2
  21456212.713    10499011.801 8   4688016.178 6
 95  4 19 17  2 30.0000000  0  8 19 27 29 31 28  2 16 18
  20771581.893    23388901.535 8   -798695.535 9
  21454046.083   -10118630.277 8  -6957418.142 7
  23537595.272    15982347.677 6   9352009.877 3
  22141014.325    -7273450.815 7  -4902718.060 5
  24384306.996   -15665781.523 6   2992018.295 2
  22751991.114     7046871.206 7  -6620757.749 5
  24030149.963    -4971569.054 5  -5024468.556 2
  21470822.409    10575789.884 8   4747843.227 6
 95  4 19 17  3  0.0000000  0  8 19 27 29 31 28  2 16 18
  20773990.785    23401529.350 8   -788855.677 9
  21445465.183   -10163721.708 8  -6992554.274 7
  23557319.487    16086013.263 6   9432788.161 3
  22141498.400    -7270891.621 7  -4900723.887 5
  24396950.772   -15599347.670 6   3043784.894 2
  22739783.326     6982764.588 7  -6670710.919 5
  24026140.239    -4992682.923 5  -5040920.890 2
  21485508.372    10652971.519 8   4807984.725 6
 95  4 19 17  3 30.0000000  0  8 19 27 29 31 28  2 16 18
  20776441.559    23414427.788 8   -778804.949 9
  21436919.060   -10208640.294 8  -7027555.765 7
  23577091.040    16189917.058 6   9513752.107 3
  22142112.435    -7267668.678 7  -4898212.503 5
  24409673.155   -15532440.432 6   3095920.393 2
  22727644.999     6918937.321 7  -6720446.420 5
  24022224.710    -5013251.606 5  -5056948.472 2
  21500277.048    10730573.465 8   4868453.730 6
 95  4 19 17  4  0.0000000  0  8 19 27 29 31 28  2 16 18
  20778946.894    23427602.679 8   -768538.796 9
  21428408.222   -10253364.772 8  -7062405.990 7
  23596911.848    16294068.442 6   9594908.969 3
  22142853.402    -7263777.754 7  -4895180.611 5
  24422503.822   -15465062.180 6   3148422.881 2
  22715555.208     6855394.164 7  -6769960.577 5
  24018413.478    -5033282.219 5  -5072556.758 2
  21515124.120    10808606.962 8   4929259.026 6
 95  4 19 17  4 30.0000000  0  8 19 27 29 31 28  2 16 18
  20781510.150    23441055.530 9   -758056.056 9
  21419936.626   -10297879.828 8  -7097093.027 7
  23616778.824    16398477.425 6   9676266.534 3
  22143720.102    -7259232.834 7  -4891639.137 5
  24435412.676   -15397206.444 6   3201297.459 2
  22703513.505     6792145.454 7  -6819245.260 5
  24014710.832    -5052772.706 6  -5087744.127 2
  21530061.159    10887091.931 8   4990416.123 6
 95  4 19 17  5  0.0000000  0  8 19 27 29 31 28  2 16 18
  20784123.531    23454779.066 9   -747362.388 9
  21411510.330   -10342174.932 8  -7131608.692 7
  23636702.941    16503141.789 6   9757823.086 3
  22144700.993    -7254056.253 7  -4887605.436 5
  24448415.214   -15328873.013 6   3254544.266 3
  22691534.218     6729199.211 7  -6868294.258 5
  24011101.930    -5071716.688 6  -5102505.634 2
  21545082.979    10966021.063 8   5051919.300 6
 95  4 19 17  5 30.0000000  0  8 19 27 29 31 28  2 16 18
  20786782.180    23468761.530 9   -736466.975 9
  21403120.128   -10386250.827 8  -7165953.527 7
  23656663.932    16608054.552 6   9839573.255 2
  22145810.345    -7248264.999 7  -4883092.772 5
  24461507.091   -15260072.798 6   3308154.820 3
  22679617.138     6666557.086 7  -6917106.272 5
  24007598.226    -5090114.962 5  -5116841.991 2
  21560183.585    11045388.781 8   5113764.252 6
 95  4 19 17  6  0.0000000  0  8 19 27 29 31 28  2 16 18
  20789483.940    23482983.409 8   -725385.003 9
  21394768.840   -10430138.941 8  -7200152.055 8
  23676671.541    16713195.056 6   9921500.859 2
  22147020.607    -7241890.507 7  -4878125.654 4
  24474690.015   -15190822.389 6   3362116.142 3
  22667753.361     6604216.518 7  -6965683.332 5
  24004205.624    -5107973.729 6  -5130757.927 2
  21575365.825    11125178.513 8   5175938.045 6
 95  4 19 17  6 30.0000000  0  8 19 27 29 31 28  2 16 18
  20792236.424    23497426.459 8   -714130.686 9
  21386444.353   -10473870.777 8  -7234228.808 8
  23696725.618    16818560.438 6  10003603.664 2
  22148341.043    -7234940.179 7  -4872709.820 4
  24487947.976   -15121130.659 6   3416421.347 3
  22655948.673     6542171.193 7  -7014030.313 5
  24000912.374    -5125288.165 6  -5144249.679 2
  21590629.578    11205376.126 8   5238429.659 6
 95  4 19 17  7  0.0000000  0  8 19 27 29 31 28  2 16 18
  20795024.704    23512095.809 8   -702700.033 9
  21378149.905   -10517458.295 8  -7268193.084 8
  23716818.788    16924156.435 6  10085886.154 2
  22149779.447    -7227374.783 7  -4866814.693 4
  24501292.368   -15050993.771 5   3471073.460 3
  22644201.036     6480439.059 7  -7062133.247 5
  23997723.362    -5142041.468 6  -5157304.219 2
  21605968.699    11285979.583 8   5301237.503 6
 95  4 19 17  7 30.0000000  0  8 19 27 29 31 28  2 16 18
  20797866.976    23526996.297 8   -691089.279 9
  21369889.753   -10560886.608 8  -7302033.315 8
  23736952.220    17029981.113 6  10168346.850 2
  22151339.057    -7219175.601 7  -4860425.748 4
  24514725.739   -14980407.276 5   3526075.906 3
  22632513.117     6419013.204 7  -7109997.534 5
  23994640.206    -5158237.348 6  -5169924.357 2
  21621384.747    11366997.423 8   5364368.260 6
 95  4 19 17  8  0.0000000  0  8 19 27 29 31 28  2 16 18
  20800741.446    23542126.309 9   -679299.657 9
  21361657.692   -10604142.707 8  -7335739.353 8
  23757139.165    17136028.824 6  10250981.397 2
  22153025.390    -7210333.339 7  -4853535.671 4
  24528237.085   -14909362.897 5   3581435.083 3
  22620879.431     6357887.162 7  -7157628.190 5
  23991662.638    -5173879.208 6  -5182112.827 2
  21636877.391    11448416.896 8   5427811.985 6
 95  4 19 17  8 30.0000000  0  8 19 27 29 31 28  2 16 18
  20803666.162    23557482.783 8   -667333.595 9
  21353458.248   -10647209.142 8  -7369297.612 8
  23777355.699    17242299.520 6  10333789.599 2
  22154829.511    -7200835.090 7  -4846134.453 4
  24541856.177   -14837862.025 5   3637150.013 3
  22609304.624     6297059.031 7  -7205026.717 5
  23988787.598    -5188972.050 6  -5193873.521 2
  21652443.995    11530225.389 8   5491558.812 6
 95  4 19 17  9  0.0000000  0  8 19 27 29 31 28  2 16 18
  20806633.357    23573078.400 8   -655181.179 9
  21345306.862   -10690065.202 8  -7402691.937 8
  23797617.832    17348778.626 6  10416760.248 2
  22156767.489    -7190680.879 7  -4838222.075 4
  24555541.283   -14765905.204 5   3693220.260 3
  22597786.988     6236525.837 7  -7252195.414 5
  23986024.891    -5203514.986 6  -5205205.666 2
  21668087.705    11612419.844 8   5555606.400 6
 95  4 19 17  9 30.0000000  0  8 19 27 29 31 28  2 16 18
  20809646.571    23588918.578 8   -642838.198 9
  21337192.349   -10732705.602 8  -7435918.214 8
  23817919.687    17455454.286 6  10499884.061 2
  22158815.611    -7179897.635 7  -4829819.564 4
  24569326.040   -14693501.651 5   3749638.566 3
  22586313.271     6176260.400 7  -7299155.463 5
  23983346.994    -5217523.130 6  -5216121.086 2
  21683802.196    11695001.405 8   5619955.621 6
 95  4 19 17 10  0.0000000  0  8 19 27 29 31 28  2 16 18
  20812708.142    23605003.986 8   -630304.110 9
  21329117.739   -10775148.648 8  -7468990.714 8
  23838255.179    17562333.697 5  10583166.609 2
  22160980.802    -7168487.621 7  -4820928.652 4
  24583184.096   -14620652.985 5   3806403.755 3
  22574899.302     6116274.060 7  -7345898.043 5
  23980793.362    -5230986.522 6  -5226612.038 2
  21699590.766    11777985.636 8   5684618.623 6
 95  4 19 17 10 30.0000000  0  8 19 27 29 31 28  2 16 18
  20815819.568    23621359.483 8   -617559.581 9
  21321079.254   -10817387.912 8  -7501904.428 8
  23858636.749    17669441.300 5  10666627.004 2
  22163285.127    -7156433.505 7  -4811535.815 4
  24597130.831   -14547351.340 4   3863521.837 3
  22563546.432     6056586.114 7  -7392408.118 5
  23978340.340    -5243888.458 6  -5236665.486 2
  21715465.976    11861405.465 8   5749621.044 6
 95  4 19 17 11  0.0000000  0  8 19 27 29 31 28  2 16 18
  20818983.398    23637990.080 8   -604600.682 9
  21313077.284   -10859426.160 8  -7534661.485 8
  23879063.828    17776778.693 5  10750266.425 2
  22165696.538    -7143739.383 7  -4801644.314 4
  24611174.968   -14473596.750 5   3920992.916 3
  22552245.126     5997201.355 7  -7438681.926 5
  23975990.297    -5256228.380 6  -5246281.047 2
  21731426.836    11945270.913 8   5814970.713 6
 95  4 19 17 11 30.0000000  0  8 19 27 29 31 28  2 16 18
  20822198.852    23654875.922 9   -591442.887 9
  21305112.188   -10901275.139 8  -7567271.086 8
  23899539.863    17884353.575 5  10834090.920 2
  22168235.930    -7130405.077 7  -4791253.938 4
  24625290.846   -14399392.638 5   3978814.223 3
  22541003.838     5938134.294 7  -7484708.198 5
  23973743.263    -5268016.298 6  -5255466.418 2
  21747472.658    12029588.998 7   5880673.082 6
 95  4 19 17 12  0.0000000  0  8 19 27 29 31 28  2 16 18
  20825458.555    23672010.047 9   -578091.640 9
  21297186.664   -10942936.295 8  -7599734.329 8
  23920053.432    17992168.145 5  10918102.186 3
  22170899.346    -7116428.456 7  -4780363.078 5
  24639488.357   -14324739.686 5   4036985.362 3
  22529826.556     5879405.185 7  -7530471.140 5
  23971605.803    -5279239.998 6  -5264212.191 2
  21763601.102    12114350.101 7   5946720.647 6
 95  4 19 17 12 30.0000000  0  8 19 27 29 31 28  2 16 18
  20828769.553    23689405.459 9   -564536.787 9
  21289295.168   -10984396.852 8  -7632041.241 8
  23940614.817    18100217.339 5  11002296.227 2
  22173669.278    -7101814.387 7  -4768975.487 4
  24653785.999   -14249639.512 5   4095504.946 3
  22518717.956     5821006.065 7  -7575976.933 5
  23969588.739    -5289900.307 6  -5272518.873 2
  21779810.311    12199531.072 7   6013095.399 6
 95  4 19 17 13  0.0000000  0  8 19 27 29 31 28  2 16 18
  20832127.049    23707038.387 9   -550796.851 9
  21281439.106   -11025684.059 8  -7664213.094 8
  23961210.529    18208457.798 5  11086639.352 2
  22176571.929    -7086597.612 7  -4757118.265 4
  24668152.054   -14174118.099 5   4154352.738 3
  22507659.601     5762905.238 7  -7621250.274 5
  23967662.572    -5300018.879 6  -5280403.476 2
  21796091.500    12285088.942 7   6079763.817 6
 95  4 19 17 13 30.0000000  0  8 19 27 29 31 28  2 16 18
  20835521.359    23724899.346 8   -536879.243 9
  21273612.694   -11066812.445 8  -7696261.173 8
  23981841.257    18316863.365 5  11171111.129 2
  22179574.950    -7070793.142 7  -4744803.096 5
  24682613.142   -14098195.056 5   4213513.519 3
  22496655.509     5705074.303 7  -7666313.333 5
  23965834.948    -5309604.787 6  -5287873.069 2
  21812437.444    12370999.498 7   6146707.068 5
 95  4 19 17 14  0.0000000  0  8 19 27 29 31 28  2 16 18
  20838968.193    23743009.539 9   -522767.399 9
  21265821.658   -11107771.339 8  -7728177.179 8
  24002496.717    18425437.332 5  11255714.133 2
  22182699.477    -7054400.587 7  -4732029.644 5
  24697130.982   -14021872.804 5   4272985.393 3
  22485696.087     5647496.377 7  -7711179.242 5
  23964111.141    -5318654.650 6  -5294924.871 2
  21828850.062    12457237.822 7   6213905.741 5
 95  4 19 17 14 30.0010000  0  8 19 27 29 31 28  2 16 18
  20842460.415    23761364.892 9   -508464.534 9
  21258057.603   -11148561.194 8  -7759961.477 8
  24023199.245    18534184.786 6  11340452.299 2
  22185926.892    -7037415.952 7  -4718794.869 5
  24711722.840   -13945153.144 5   4332766.906 3
  22474781.423     5590162.534 7  -7755854.956 5
  23962491.213    -5327177.133 6  -5301565.768 2
  21845320.419    12543800.149 7   6281356.857 5
 95  4 19 17 15  0.0010000  0  8 19 27 29 31 28  2 16 18
  20845998.685    23779941.524 9   -493989.236 9
  21250326.525   -11189180.558 8  -7791612.920 8
  24043919.851    18643092.786 6  11425315.558 2
  22189270.268    -7019840.096 7  -4705099.398 5
  24726404.666   -13868047.657 5   4392849.055 3
  22463927.587     5533080.106 7  -7800334.753 5
  23960967.997    -5335178.878 6  -5307800.911 2
  21861857.151    12630684.760 7   6349059.115 5
 95  4 19 17 15 30.0010000  0  8 19 27 29 31 28  2 16 18
  20849573.051    23798727.378 9   -479350.908 9
  21242629.713   -11229627.366 8  -7823129.903 8
  24064675.142    18752176.628 6  11510315.901 2
  22192736.768    -7001672.781 7  -4690943.052 5
  24741150.258   -13790562.695 5   4453226.949 2
  22453109.216     5476248.042 7  -7844619.473 5
  23959539.636    -5342673.100 6  -5313640.551 2
  21878451.233    12717898.086 7   6417017.514 5
 95  4 19 17 16  0.0010000  0  8 19 27 29 31 28  2 16 18
  20853183.571    23817711.185 9   -464558.349 8
  21234968.068   -11269903.859 8  -7854514.182 8
  24085473.424    18861439.074 6  11595455.354 2
  22196300.341    -6982920.116 7  -4676330.577 5
  24755964.023   -13712700.275 5   4513898.900 2
  22442344.328     5419677.856 7  -7888700.128 5
  23958207.448    -5349672.969 6  -5319094.988 2
  21895111.510    12805447.684 7   6485237.925 5
 95  4 19 17 16 30.0010000  0  8 19 27 29 31 28  2 16 18
  20856834.864    23836895.914 9   -449609.212 8
  21227337.090   -11310000.893 8  -7885758.615 8
  24106293.530    18970872.499 6  11680728.075 2
  22199981.133    -6963565.231 7  -4661248.855 5
  24770856.243   -13634453.599 5   4574870.309 2
  22431634.692     5363384.606 7  -7932564.987 5
  23956974.282    -5356166.342 6  -5324154.839 2
  21911840.708    12893369.119 7   6553748.096 5
 95  4 19 17 17  0.0010000  0  8 19 27 29 31 28  2 16 18
  20860527.857    23856288.130 9   -434498.413 8
  21219740.409   -11349922.804 8  -7916866.579 8
  24127153.299    19080469.826 5  11766128.514 2
  22203777.165    -6943613.204 7  -4645701.825 5
  24785801.107   -13555823.443 4   4636140.512 2
  22420973.623     5307370.458 7  -7976212.374 5
  23955835.190    -5362150.504 6  -5328817.783 2
  21928646.204    12981672.182 7   6622555.630 5
 95  4 19 17 17 30.0010000  0  8 19 27 29 31 28  2 16 18
  20864258.474    23875895.295 9   -419220.112 8
  21212178.624   -11389667.754 8  -7947836.663 8
  24148033.604    19190235.499 5  11851660.063 2
  22207693.444    -6923053.443 7  -4629681.248 5
  24800852.967   -13476809.716 5   4697709.642 2
  22410366.906     5251645.286 7  -8019634.559 5
  23954795.930    -5367616.983 6  -5333077.397 2
  21945521.312    13070352.363 7   6691657.020 5
 95  4 19 17 18  0.0010000  0  8 19 27 29 31 28  2 16 18
  20868029.684    23895730.223 8   -403764.320 8
  21204649.876   -11429230.841 8  -7978665.034 8
  24168955.250    19300158.983 5  11937314.642 2
  22211722.115    -6901872.245 7  -4613176.402 5
  24815961.517   -13397404.070 5   4759584.104 2
  22399826.353     5196228.408 7  -8062816.509 5
  23953856.021    -5372549.389 6  -5336920.840 2
  21962471.008    13159408.216 7   6761051.152 5
 95  4 19 17 18 30.0010000  0  8 19 27 29 31 28  2 16 18
  20871852.277    23915804.705 9   -388121.888 8
  21197154.405   -11468595.742 8  -8009338.972 8
  24189905.767    19410245.264 5  12023096.042 2
  22215876.699    -6880056.033 7  -4596176.769 5
  24831149.453   -13317596.253 5   4821772.053 2
  22389340.032     5141122.852 7  -8105755.898 5
  23953031.411    -5376921.431 6  -5340327.649 2
  21979489.116    13248844.140 8   6830741.442 5
 95  4 19 17 19  0.0010000  0  8 19 27 29 31 28  2 16 18
  20875715.193    23936114.541 8   -372296.038 8
  21189706.691   -11507756.406 8  -8039853.763 8
  24210890.819    19520498.269 5  12109007.398 2
  22220143.255    -6857613.175 7  -4578688.827 5
  24846413.386   -13237384.665 5   4884274.599 2
  22378907.765     5086327.440 7  -8148453.587 5
  23952292.723    -5380740.327 6  -5343303.407 2
  21996578.695    13338651.871 7   6900721.451 5
 95  4 19 17 19 30.0010000  0  8 19 27 29 31 28  2 16 18
  20879627.605    23956653.979 8   -356291.295 8
  21182286.918   -11546709.337 8  -8070206.687 8
  24231897.367    19630897.803 5  12195032.901 2
  22224534.915    -6834542.380 7  -4560711.579 5
  24861755.115   -13156779.163 5   4947084.082 2
  22368537.314     5031820.262 8  -8190926.707 6
  23951672.542    -5384017.097 6  -5345856.744 2
  22013736.088    13428819.192 7   6970981.658 5
 95  4 19 17 20  0.0010000  0  8 19 27 29 31 28  2 16 18
  20883576.321    23977423.984 8   -340106.877 8
  21174918.679   -11585453.093 8  -8100396.627 8
  24252927.987    19741432.249 5  12281163.485 2
  22229042.174    -6810865.056 7  -4542261.736 5
  24877163.968   -13075783.807 5   5010197.340 1
  22358213.361     4977573.252 7  -8233197.091 6
  23951157.888    -5386751.679 6  -5347987.631 2
  22030967.888    13519358.263 7   7041531.535 5
 95  4 19 17 20 30.0010000  0  8 19 27 29 31 28  2 16 18
  20887575.792    23998429.137 8   -323739.235 8
  21167588.963   -11623983.880 8  -8130420.603 8
  24273995.213    19852120.571 5  12367414.037 2
  22233664.165    -6786589.382 7  -4523345.651 5
  24892650.856   -12994400.998 6   5073612.478 1
  22347940.253     4923573.332 7  -8275274.947 6
  23950734.701    -5388947.409 6  -5349698.549 2
  22048267.502    13610278.537 7   7112378.451 5
 95  4 19 17 21  0.0010000  0  8 19 27 29 31 28  2 16 18
  20891621.162    24019691.426 8   -307171.234 8
  21160297.741   -11662303.533 8  -8160280.072 8
  24295081.535    19962973.391 5  12453792.675 2
  22238397.018    -6761700.327 7  -4503951.581 5
  24908213.563   -12912626.444 5   5137332.959 1
  22337711.334     4869845.543 8  -8317140.746 6
  23950419.380    -5390611.251 6  -5350995.073 2
  22065640.505    13701570.842 7   7183515.273 5
 95  4 19 17 21 30.0010000  0  8 19 27 29 31 28  2 16 18
  20895717.676    24041215.728 8   -290399.058 8
  21153043.872   -11700422.918 8  -8189983.486 8
  24316216.753    20073990.858 5  12540299.757 2
  22243250.358    -6736198.812 7  -4484080.283 5
  24923840.874   -12830465.063 5   5201354.817 1
  22327546.541     4816403.220 7  -8358784.108 6
  23950205.808    -5391729.134 6  -5351866.171 2
  22083078.743    13793217.529 7   7254928.232 5
 95  4 19 17 22  0.0010000  0  8 19 27 29 31 28  2 16 18
  20899860.148    24062991.144 8   -273431.198 8
  21145825.260   -11738357.812 8  -8219543.128 8
  24337369.000    20185178.510 5  12626939.346 2
  22248217.260    -6710096.987 7  -4463741.210 5
  24939553.776   -12747931.561 5   5265666.625 1
  22317434.362     4763266.252 8  -8400189.532 6
  23950095.244    -5392310.529 6  -5352319.215 2
  22100581.166    13885190.792 7   7326595.684 5
 95  4 19 17 22 30.0010000  0  8 19 27 29 31 28  2 16 18
  20904054.934    24085026.427 8   -256260.860 8
  21138636.686   -11776108.354 8  -8248959.137 8
  24358562.288    20296533.420 5  12713709.297 2
  22253302.219    -6683378.480 7  -4442921.594 5
  24955328.975   -12665030.185 5   5330265.046 2
  22307385.558     4710455.189 8  -8441340.989 6
  23950089.008    -5392370.834 5  -5352366.218 2
  22118138.871    13977460.062 7   7398493.771 5
 95  4 19 17 23  0.0010000  0  8 19 27 29 31 28  2 16 18
  20908296.338    24107321.745 8   -238887.893 8
  21131494.821   -11813661.081 8  -8278220.995 8
  24379782.768    20408044.594 5  12800601.032 2
  22258502.150    -6656034.678 7  -4421614.771 5
  24971178.673   -12581759.352 5   5395151.437 2
  22297396.803     4657978.982 7  -8482231.522 6
  23950175.319    -5391898.427 5  -5351998.135 2
  22135754.016    14070021.781 7   7470619.736 5
 95  4 19 17 23 30.0010000  0  8 19 27 29 31 28  2 16 18
  20912590.295    24129873.110 8   -221315.423 8
  21124385.902   -11850997.597 8  -8307314.383 8
  24401033.136    20519718.019 5  12887619.134 2
  22263826.973    -6628070.519 7  -4399824.525 5
  24987088.808   -12498115.527 5   5460328.432 2
  22287469.686     4605827.773 8  -8522868.797 6
  23950366.556    -5390874.990 5  -5351200.697 2
  22153429.570    14162905.019 7   7542996.242 5
 95  4 19 17 24  0.0010000  0  8 19 27 29 31 28  2 16 18
  20916929.131    24152684.432 8   -203540.384 8
  21117326.869   -11888105.496 8  -8336229.632 8
  24422308.058    20631555.038 5  12974764.793 2
  22269264.399    -6599489.186 7  -4377553.360 5
  25003082.466   -12414097.168 5   5525797.251 2
  22277611.161     4553996.747 8  -8563256.573 6
  23950666.559    -5389309.742 5  -5349981.020 2
  22171169.729    14256134.204 7   7615642.324 5
 95  4 19 17 24 30.0010000  0  7 19 27 29 31  2 16 18
  20921320.012    24175740.053 8   -185574.979 8
  21110308.787   -11924990.702 8  -8364971.347 9
  24443630.617    20743537.074 5  13062023.383 2
  22274817.665    -6570312.997 7  -4354818.676 5
  22267802.701     4502458.384 8  -8603416.334 6
  23951066.062    -5387211.433 5  -5348345.998 2
  22188979.289    14349719.417 7   7688565.842 5
 95  4 19 17 25  0.0010000  0  7 19 27 29 31  2 16 18
  20925749.745    24199008.606 8   -167443.653 8
  21103321.105   -11961684.934 8  -8393564.238 9
  24464952.696    20855642.782 5  13149378.354 2
  22280474.239    -6540565.258 7  -4331638.651 5
  22258047.394     4451188.578 8  -8643366.807 6
  23951571.482    -5384593.076 6  -5346305.726 2
  22206854.984    14443663.330 7   7761768.833 5
 95  4 19 17 25 30.0010000  0  7 19 27 29 31  2 16 18
  20930213.954    24222483.289 8   -149151.708 8
  21096371.646   -11998206.559 8  -8422022.658 9
  24486307.542    20967866.593 5  13236825.343 2
  22286250.190    -6510250.937 7  -4308017.119 5
  22248337.896     4400182.454 8  -8683111.827 6
  23952161.654    -5381471.363 6  -5343873.257 2
  22224798.582    14537960.147 7   7835246.850 5
 95  4 19 17 26  0.0010000  0  7 19 27 29 31  2 16 18
  20934720.015    24246166.473 8   -130697.302 8
  21089459.241   -12034559.277 8  -8450349.436 9
  24507692.218    21080205.176 5  13324361.785 2
  22292125.283    -6479357.513 7  -4283944.317 5
  22238684.279     4349439.536 8  -8722651.752 6
  23952846.499    -5377860.628 6  -5341059.712 2
  22242805.017    14632586.376 7   7908981.526 5
 95  4 19 17 26 30.0010000  0  7 19 27 29 31  2 16 18
  20939264.899    24270066.714 8   -112073.735 8
  21082567.672   -12070748.989 8  -8478549.190 9
  24529088.645    21192664.032 5  13411991.897 2
  22298111.748    -6447862.823 7  -4259403.028 5
  22229080.878     4298953.093 8  -8761991.819 6
  23953625.720    -5373759.277 6  -5337863.846 2
  22260873.268    14727529.696 7   7982963.293 5
 95  4 19 17 27  0.0010000  0  7 19 27 29 31  2 16 18
  20943859.278    24294200.731 8    -93268.032 8
  21075715.796   -12106770.566 8  -8506617.960 9
  24550521.048    21305258.069 5  13499727.411 2
  22304232.701    -6415743.147 7  -4234374.732 5
  22219521.515     4248730.809 8  -8801126.040 6
  23954504.831    -5369148.710 6  -5334271.261 2
  22279001.868    14822787.327 7   8057189.981 5
 95  4 19 17 27 30.0010000  0  7 19 27 29 31  2 16 18
  20948497.877    24318583.606 8    -74268.389 8
  21068897.856   -12142596.324 8  -8534534.130 9
  24571972.427    21417999.049 5  13587577.386 2
  22310461.669    -6382996.233 7  -4208857.665 5
  22210013.148     4198779.795 8  -8840048.908 6
  23955480.236    -5364022.276 6  -5330276.626 2
  22297183.381    14918351.188 7   8131655.280 4
 95  4 19 17 28  0.0010000  0  7 19 27 29 31  2 16 18
  20953186.061    24343219.773 8    -55071.383 8
  21062119.788   -12178211.238 8  -8562286.002 9
  24593455.315    21530889.791 5  13675544.067 2
  22316808.095    -6349625.119 7  -4182854.200 5
  22200560.062     4149098.113 8  -8878761.891 6
  23956556.191    -5358376.668 6  -5325877.452 2
  22315428.840    15014219.028 7   8206357.455 4
 95  4 19 17 28 30.0010000  0  7 19 27 29 31  2 16 18
  20957915.797    24368092.541 8    -35690.026 8
  21055383.541   -12213618.037 8  -8589875.720 9
  24614950.344    21643900.926 5  13763604.559 2
  22323275.758    -6315661.892 7  -4156389.372 5
  22191152.994     4099675.682 8  -8917272.862 6
  23957727.390    -5352212.308 6  -5321074.115 2
  22333730.330    15110393.360 7   8281298.453 4
 95  4 19 17 29  0.0010000  0  7 19 27 29 31  2 16 18
  20962693.439    24393183.137 8    -16138.927 8
  21048688.306   -12248809.270 8  -8617297.463 9
  24636483.837    21757010.267 5  13851741.534 2
  22329849.337    -6281142.759 7  -4129491.360 5
  22181800.489     4050514.846 8  -8955580.006 6
  23959001.628    -5345536.042 6  -5315871.850 2
  22352084.464    15206864.792 7   8356470.946 4
 95  4 19 17 29 30.0010000  0  7 19 27 29 31  2 16 18
  20967511.344    24418497.563 8      3586.590 8
  21042033.903   -12283775.135 8  -8644543.592 9
  24658021.107    21870212.169 5  13939950.717 2
  22336513.633    -6246078.826 7  -4102168.842 5
  22172500.897     4001635.066 8  -8993668.135 6
  23960363.016    -5338355.064 6  -5310276.309 2
  22370498.406    15303631.955 7   8431873.893 4
 95  4 19 17 30  0.0010000  0  7 19 27 29 31  2 16 18
  20972373.138    24444044.087 8     23492.976 8
  21035423.419   -12318517.985 8  -8671615.940 9
  24679585.089    21983511.159 5  14028235.456 2
  22343296.258    -6210459.169 7  -4074413.291 5
  22163253.709     3953057.799 8  -9031520.518 6
  23961832.808    -5330649.662 6  -5304272.099 2
  22388976.744    15400713.138 7   8507521.518 4
 95  4 19 17 30 30.0010000  0  7 19 27 29 31  2 16 18
  20977281.820    24469835.211 8     43589.940 8
  21028856.016   -12353036.223 8  -8698513.251 9
  24701167.687    22096914.299 5  14116601.448 2
  22350179.912    -6174264.299 7  -4046209.508 5
  22154074.124     3904806.952 8  -9069118.572 6
  23963399.434    -5322400.565 6  -5297844.272 2
  22407512.432    15498120.490 7   8583423.329 4
 95  4 19 17 31  0.0010000  0  7 19 27 29 31  2 16 18
  20982239.668    24495903.080 8     63902.538 8
  21022331.813   -12387317.791 8  -8725226.157 9
  24722773.580    22210454.333 5  14205074.018 2
  22357185.612    -6137463.376 7  -4017533.478 5
  22144959.324     3856913.922 8  -9106437.813 6
  23965070.537    -5313595.949 6  -5290983.570 2
  22426112.785    15595861.364 7   8659584.983 4
 95  4 19 17 31 30.0010000  0  7 19 27 29 31  2 16 18
  20987260.952    24522285.076 8     84459.975 8
  21015852.668   -12421344.220 8  -8751740.231 9
  24744403.726    22324161.830 5  14293677.196 2
  22364308.501    -6100003.128 7  -3988343.655 5
  22135919.442     3809409.025 8  -9143454.567 6
  23966862.277    -5304211.595 5  -5283671.101 2
  22444779.153    15693969.935 7   8736033.227 4
 95  4 19 17 32  0.0010000  0  7 19 27 29 31  2 16 18
  20992388.872    24549242.106 8    105465.399 7
  21009481.239   -12454844.086 8  -8777844.048 9
  24766127.647    22438312.812 4  14382625.758 2
  22371621.159    -6061604.232 7  -3958422.487 5
  22127002.385     3762543.328 8  -9179973.304 6
  23968816.594    -5293981.567 5  -5275699.694 2
  22463574.731    15792726.349 7   8812986.194 4
 95  4 19 17 32 30.0010000  0  7 19 27 29 31  2 16 18
  20997560.891    24576430.833 8    126651.415 7
  21003139.339   -12488168.972 8  -8803811.492 9
  24787873.123    22552554.052 4  14471644.806 2
  22379037.785    -6022623.094 7  -3928047.568 5
  22118133.055     3715946.938 8  -9216282.177 6
  23970847.897    -5283262.737 6  -5267347.365 2
  22482421.124    15891769.511 7   8890162.640 4
 95  4 19 17 33  0.0010000  0  7 19 27 29 31  2 16 18
  21002789.661    24603894.808 8    148051.913 7
  20996841.719   -12521270.053 8  -8829604.522 9
  24809634.128    22666925.082 4  14560764.873 1
  22386569.051    -5983030.974 7  -3897196.602 5
  22109322.634     3669645.780 8  -9252360.968 6
  23972987.846    -5272018.275 5  -5258585.493 2
  22501330.653    15991130.384 7   8967586.666 4
 95  4 19 17 33 30.0010000  0  7 19 27 29 31  2 16 18
  21008072.784    24631637.218 8    169669.352 7
  20990585.290   -12554142.075 8  -8855219.091 9
  24831417.617    22781436.981 4  14649994.814 1
  22394223.142    -5942821.342 7  -3865864.432 5
  22100563.838     3623627.845 8  -9288219.074 6
  23975228.075    -5260228.693 5  -5249398.830 2
  22520298.702    16090813.598 7   9045261.843 4
 95  4 19 17 34  0.0010000  0  7 19 27 29 31  2 16 18
  21013404.473    24659663.173 8    191507.750 7
  20984374.370   -12586769.024 8  -8880642.684 9
  24853239.960    22896086.896 5  14739332.195 1
  22401991.874    -5902007.656 7  -3834061.570 5
  22091861.253     3577881.050 8  -9323865.917 6
  23977570.443    -5247881.634 5  -5239777.742 2
  22539324.910    16190807.238 7   9123178.938 4
 95  4 19 17 34 30.0010000  0  7 19 27 29 31  2 16 18
  21018792.733    24687977.839 8    213571.117 7
  20978213.005   -12619146.372 8  -8905871.783 9
  24875076.123    23010857.989 5  14828764.117 1
  22409872.608    -5860598.347 7  -3801794.585 5
  22083207.534     3532404.724 8  -9359301.990 6
  23980026.463    -5234978.326 5  -5229723.262 2
  22558410.837    16291093.615 7   9201324.123 4
 95  4 19 17 35  0.0010000  0  7 19 27 29 31  2 16 18
  21024231.627    24716553.820 8    235838.099 7
  20972100.357   -12651279.175 8  -8930910.341 9
  24896945.054    23125736.898 5  14918279.952 1
  22417865.734    -5818605.057 7  -3769072.566 4
  22074603.460     3487193.109 8  -9394531.812 6
  23982587.560    -5221548.954 5  -5219258.861 2
  22577547.879    16391665.550 7   9279691.826 4
 95  4 19 17 35 30.0010000  0  7 19 27 29 31  2 16 18
  21029712.103    24745361.222 8    258285.415 7
  20966029.680   -12683183.488 8  -8955770.844 9
  24918821.809    23240697.909 5  15007859.784 1
  22425958.872    -5776043.679 7  -3735907.882 4
  22066051.281     3442240.697 8  -9429559.649 6
  23985244.051    -5207619.395 5  -5208404.680 2
  22596736.365    16492517.695 7   9358277.859 4
 95  4 19 17 36  0.0010000  0  7 19 27 29 31  2 16 18
  21035231.882    24774373.332 8    280892.243 7
  20959998.485   -12714867.597 8  -8980459.760 9
  24940708.787    23355713.898 5  15097482.462 1
  22434161.223    -5732926.935 7  -3702310.412 4
  22057545.269     3397547.909 8  -9464385.191 6
  23987975.610    -5193215.372 5  -5197180.774 2
  22615984.959    16593649.536 7   9437081.850 4
 95  4 19 17 36 30.0010000  0  6 19 27 31  2 16 18
  21040789.075    24803568.595 8    303641.791 7
  20954007.433   -12746355.549 8  -9004995.825 9
  22442476.387    -5689262.127 7  -3668285.895 4
  22049089.563     3353125.513 8  -9499000.022 6
  23990808.349    -5178355.557 5  -5185601.753 2
  22635283.229    16695058.250 7   9516101.582 4
 95  4 19 17 37  0.0010000  0  6 19 27 31  2 16 18
  21046376.127    24832946.150 8    326533.369 7
  20948054.514   -12777634.773 8  -9029369.256 9
  22450889.133    -5645030.182 7  -3633819.470 4
  22040696.303     3309003.118 8  -9533381.093 6
  23993728.447    -5163030.999 5  -5173660.526 2
  22654635.582    16796758.074 7   9595348.134 4
 95  4 19 17 37 30.0010000  0  6 19 27 31  2 16 18
  21052010.456    24862533.452 8    349588.404 7
  20942145.784   -12808682.091 8  -9053561.962 9
  22459419.937    -5600212.948 7  -3598896.982 4
  22032365.791     3265212.874 8  -9567503.350 6
  23996742.021    -5147205.008 5  -5161328.635 2
  22674045.285    16898755.587 7   9674826.663 4
 95  4 19 17 38  0.0010000  0  6 19 27 31  2 16 18
  21057684.718    24892354.929 8    372825.913 7
  20936286.041   -12839497.563 9  -9077574.024 9
  22468060.495    -5554799.948 7  -3563510.242 4
  22024091.878     3221755.908 8  -9601365.913 6
  23999854.347    -5130859.849 5  -5148592.191 2
  22693507.092    17001041.558 7   9754529.985 4
 95  4 19 17 38 30.0010000  0  6 19 27 31  2 16 18
  21063407.966    24922435.598 8    396265.385 7
  20930465.240   -12870067.120 8  -9101394.458 9
  22476817.073    -5508796.376 7  -3527663.331 4
  22015884.730     3178629.428 8  -9634970.933 6
  24003056.730    -5113994.009 5  -5135450.004 2
  22713027.208    17103598.935 7   9834444.757 4
 95  4 19 17 39  0.0010000  0  6 19 27 31  2 16 18
  21069184.967    24952803.886 8    419928.969 7
  20924699.362   -12900379.018 9  -9125014.123 9
  22485677.889    -5462196.150 7  -3491351.492 4
  22007736.341     3135829.713 8  -9668321.358 6
  24006368.717    -5096592.226 6  -5121890.212 2
  22732595.262    17206431.766 7   9914574.184 4
 95  4 19 17 39 30.0010000  0  6 19 27 31  2 16 18
  21075025.134    24983493.446 8    443842.908 7
  20918978.543   -12930446.400 9  -9148443.252 9
  22494665.967    -5415005.292 7  -3454579.434 4
  21999654.056     3093334.002 8  -9701434.880 6
  24009785.152    -5078640.309 5  -5107901.700 2
  22752211.492    17309542.383 7   9994920.085 4
 95  4 19 17 40  0.0010000  0  7 19 27 31  2 16 18  7
  21080924.749    25014497.505 8    468001.912 7
  20913300.503   -12960286.438 9  -9171695.239 9
  22503755.584    -5367224.531 7  -3417347.697 4
  21991617.970     3051112.396 8  -9734334.814 6
  24013302.497    -5060158.764 5  -5093500.529 2
  22771887.440    17412927.164 7  10075479.589 4
  24885291.971    15211304.27515  -1010478.777 2
 95  4 19 17 40 30.0010000  0  7 19 27 31  2 16 18  7
  21086878.628    25045795.413 8    492389.871 7
  20907664.765   -12989903.322 8  -9194773.326 9
  22512956.095    -5318870.433 7  -3379669.198 4
  21983632.938     3009152.047 8  -9767031.182 6
  24016911.008    -5041174.377 5  -5078707.587 2
  22791612.945    17516581.345 7  10156249.018 4
  24865764.419    15108696.515 4  -1090432.629 2
 95  4 19 17 41  0.0010000  0  7 19 27 31  2 16 18  7
  21092890.726    25077376.004 8    516998.110 7
  20902068.599   -13019304.077 8  -9217683.007 9
  22522273.375    -5269928.126 7  -3341532.355 4
  21975702.108     2967462.959 8  -9799516.177 6
  24020622.829    -5021681.370 5  -5063518.222 2
  22811390.433    17620515.725 7  10237236.800 4
  24846221.819    15006052.101 4  -1170415.067 2
 95  4 19 17 41 30.0010000  0  7 19 27 31  2 16 18  7
  21098954.358    25109230.374 8    541819.681 7
  20896519.561   -13048470.821 8  -9240410.344 9
  22531700.258    -5220392.805 7  -3302933.437 4
  21967823.532     2926057.110 8  -9831780.451 6
  24024425.486    -5001677.842 5  -5047931.082 2
  22831226.381    17724738.030 7  10318448.912 4
  24826707.848    14903393.909 4  -1250408.277 1
 95  4 19 17 42  0.0010000  0  7 19 27 31  2 16 18  7
  21105067.786    25141346.324 8    566845.086 7
  20891020.378   -13077366.725 8  -9262926.633 9
  22541242.143    -5170254.169 7  -3263864.392 4
  21960003.506     2884967.089 8  -9863798.635 6
  24028332.382    -4981173.462 6  -5031953.733 2
  22851112.514    17829261.178 7  10399895.484 4
  24807162.759    14800748.263 4  -1330391.689 1
 95  4 19 17 42 30.0010000  0  7 19 27 31  2 16 18  7
  21111226.962    25173724.569 8    592074.880 7
  20885576.476   -13105976.488 8  -9285219.957 9
  22550888.325    -5119531.637 7  -3224340.369 4
  21952245.027     2844208.905 8  -9895558.255 6
  24032334.581    -4960169.652 6  -5015587.113 2
  22871061.574    17934086.191 7  10481577.237 4
  24787628.282    14698136.247 4  -1410348.935 1
 95  4 19 17 43  0.0010000  0  7 19 27 31  2 16 18  7
  21117437.372    25206361.902 8    617506.540 7
  20880184.679   -13134291.870 8  -9307283.888 9
  22560652.175    -5068238.374 7  -3184371.637 4
  21944554.571     2803789.104 8  -9927054.188 6
  24036418.354    -4938652.930 6  -4998820.881 2
  22891068.583    18039203.852 7  10563487.056 4
  24768115.151    14595568.847 4  -1490271.366 1
 95  4 19 17 43 30.0010000  0  7 19 27 31  2 16 18  7
  21123695.780    25239275.671 8    643153.630 7
  20874852.870   -13162301.746 8  -9329109.761 9
  22570519.994    -5016377.889 7  -3143960.893 4
  21936932.737     2763712.036 8  -9958283.054 6
  24040617.907    -4916624.069 5  -4981655.563 2
  22911124.818    18144619.003 7  10645628.657 4
  24748611.763    14493058.390 5  -1570149.514 1
 95  4 19 17 44  0.0010000  0  7 19 27 31  2 16 18  7
  21130016.664    25272475.919 8    669023.924 7
  20869580.360   -13190007.400 8  -9350698.587 9
  22580499.306    -4963943.771 7  -3103103.161 4
  21929370.143     2723985.138 8  -9989239.080 6
  24044904.849    -4894079.229 5  -4964088.206 2
  22931241.162    18250336.135 7  10728005.572 4
  24729105.017    14390592.044 5  -1649993.220 1
 95  4 19 17 44 30.0010000  0  7 19 27 31  2 16 18  7
  21136390.132    25305962.041 8    695116.993 7
  20864363.072   -13217428.270 8  -9372065.495 9
  22590586.452    -4910936.213 7  -3061798.588 4
  21921873.503     2684595.582 8 -10019932.212 6
  24049295.969    -4870992.753 5  -4946098.764 2
  22951416.865    18356342.471 7  10810607.845 4
  24709605.136    14288153.099 5  -1729815.590 1
 95  4 19 17 45  0.0010000  0  7 19 27 31  2 16 18  7
  21142815.943    25339736.523 8    721434.756 7
  20859201.935   -13244572.911 8  -9393217.151 9
  22600787.041    -4857334.161 7  -3020030.800 4
  21914440.958     2645537.629 8 -10050366.968 6
  24053801.999    -4847355.416 5  -4927680.091 2
  22971638.705    18462631.196 6  10893430.145 4
  24690127.201    14185721.829 5  -1809632.017 1
 95  4 19 17 45 30.0010000  0  7 19 27 31  2 16 18  7
  21149302.852    25373807.323 8    747983.418 7
  20854083.039   -13271459.832 8  -9414167.998 9
  22611105.417    -4803122.066 7  -2977787.642 4
  21907071.280     2606808.007 8 -10080545.897 6
  24058399.317    -4823188.536 5  -4908848.770 2
  22991919.785    18569200.692 6  10976471.262 4
  24670626.331    14083280.949 5  -1889455.924 1
 95  4 19 17 46  0.0010000  0  7 19 27 31  2 16 18  7
  21155839.587    25408165.108 8    774755.703 7
  20849019.334   -13298088.292 8  -9434917.448 9
  22621533.698    -4748302.317 7  -2935070.980 5
  21899763.149     2568402.448 8 -10110472.293 6
  24063096.285    -4798488.150 5  -4889601.773 2
  23012249.191    18676042.914 6  11059724.867 4
  24651134.215    13980830.334 5  -1969287.405 2
 95  4 19 17 46 30.0010000  0  7 19 27 31  2 16 18  7
  21162433.432    25442824.372 8    801762.896 7
  20843998.500   -13324450.815 8  -9455459.668 9
  22632081.656    -4692875.503 7  -2891881.282 4
  21892516.027     2530315.706 8 -10140150.256 7
  24067899.590    -4773254.320 5  -4869939.076 2
  23032637.267    18783155.681 6  11143189.305 4
  24631638.891    13878396.752 5  -2049105.634 2
 95  4 19 17 47  0.0010000  0  7 19 27 31  2 16 18  7
  21169092.063    25477797.252 8    829014.472 7
  20839034.657   -13350545.203 8  -9475792.965 9
  22642741.436    -4636851.657 7  -2848226.381 4
  21885329.971     2492552.447 8 -10169576.157 7
  24072798.229    -4747513.960 5  -4849881.689 2
  23053064.705    18890537.745 6  11226863.567 4
  24612157.628    13775992.784 5  -2128900.792 2
 95  4 19 17 47 30.0010000  0  7 19 27 31  2 16 18  7
  21175803.306    25513081.580 8    856508.737 7
  20834121.508   -13376367.453 9  -9495914.198 9
  22653514.808    -4580249.137 7  -2804120.532 4
  21878200.997     2455106.691 8 -10198754.659 7
  24077787.225    -4721279.326 5  -4829439.167 2
  23073552.762    18998186.727 6  11310745.807 4
  24592683.290    13673639.614 5  -2208656.352 2
 95  4 19 17 48  0.0010000  0  7 19 27 31  2 16 18  7
  21182574.239    25548659.580 8    884231.846 7
  20829259.504   -13401909.433 8  -9515817.034 9
  22664391.518    -4523093.672 7  -2759583.850 4
  21871137.257     2417953.217 8 -10227705.401 7
  24082874.553    -4694550.526 5  -4808611.577 2
  23094079.431    19106087.205 6  11394824.048 4
  24573214.108    13571344.783 5  -2288366.447 2
 95  4 19 17 48 30.0010000  0  7 19 27 31  2 16 18  7
  21189397.935    25584530.422 8    912183.150 7
  20824454.460   -13427172.193 8  -9535502.306 9
  22675364.222    -4465394.918 7  -2714623.822 4
  21864118.816     2381086.867 8 -10256432.397 7
  24088053.617    -4667340.444 5  -4787408.924 2
  23114665.940    19214230.573 6  11479091.534 3
  24553752.421    13469100.646 5  -2368037.103 2
 95  4 19 17 49  0.0010000  0  7 19 27 31  2 16 18  7
  21196276.883    25620678.286 8    940350.297 7
  20819701.940   -13452135.158 8  -9554953.961 9
  22686458.012    -4407152.026 7  -2669239.765 4
  21857162.221     2344522.121 8 -10284924.405 7
  24093319.532    -4639652.529 5  -4765833.996 2
  23135293.849    19322621.390 6  11563551.855 3
  24534310.970    13366910.057 5  -2447666.003 2
 95  4 19 17 49 30.0010000  0  7 19 27 31  2 16 18  7
  21203207.635    25657091.308 8    968724.054 7
  20815013.456   -13476787.602 8  -9574163.660 9
  22697638.952    -4348353.584 7  -2623422.846 4
  21850258.331     2308257.558 8 -10313182.472 7
  24098690.404    -4611469.462 5  -4743873.176 2
  23155965.529    19431266.988 6  11648210.690 3
  24514881.631    13264783.597 5  -2527244.958 2
 95  4 19 17 50  0.0010000  0  7 19 27 31  2 16 18  7
  21210186.503    25693760.963 8    997297.811 7
  20810374.318   -13501146.156 8  -9593144.360 9
  22708934.742    -4289014.397 7  -2577184.553 4
  21843412.090     2272283.030 8 -10341214.557 7
  24104145.667    -4582798.959 5  -4721532.571 2
  23176688.083    19540156.525 6  11733059.625 3
  24495452.351    13162697.352 4  -2606792.544 2
 95  4 19 17 50 30.0010000  0  7 19 27 31  2 16 18  7
  21217212.589    25730671.687 8   1026059.383 7
  20805791.330   -13525233.373 8  -9611913.606 9
  22720328.744    -4229146.089 7  -2530533.942 4
  21836623.680     2236605.488 8 -10369015.233 7
  24109685.592    -4553655.664 5  -4698823.578 2
  23197455.636    19649270.437 6  11818083.380 3
  24476026.579    13060635.205 4  -2686321.390 2
 95  4 19 17 51  0.0010000  0  7 19 27 31  2 16 18  7
  21224278.428    25767810.043 8   1054998.334 7
  20801256.430   -13549065.815 8  -9630484.338 9
  22731816.611    -4168754.096 6  -2483475.277 4
  21829891.601     2201218.553 8 -10396589.445 7
  24115311.857    -4524046.853 5  -4675751.790 2
  23218251.759    19758594.438 6  11903270.849 3
  24456608.242    12958595.709 4  -2765832.541 2
 95  4 19 17 51 30.0010000  0  7 19 27 31  2 16 18  7
  21231393.312    25805194.639 8   1084129.172 7
  20796765.179   -13572668.208 8  -9648875.822 9
  22743409.135    -4107836.612 6  -2436007.146 4
  21823210.366     2166118.148 8 -10423940.395 7
  24121045.448    -4493965.673 5  -4652311.928 2
  23239097.558    19868116.821 6  11988612.884 3
  24437196.951    12856569.489 4  -2845333.379 2
 95  4 19 17 52  0.0010000  0  7 19 27 31  2 16 18  7
  21238556.283    25842834.950 8   1113459.259 7
  20792317.788   -13596036.821 8  -9667085.129 9
  22755100.951    -4046404.601 6  -2388138.067 4
  21816588.820     2131317.649 8 -10451057.660 7
  24126862.651    -4463421.245 5  -4628511.144 2
  23259973.216    19977832.422 6  12074105.484 3
  24417783.590    12754549.586 5  -2924829.319 2
 95  4 19 17 52 30.0010000  0  7 19 27 31  2 16 18  7
  21245763.984    25880721.282 8   1142981.073 7
  20787913.267   -13619171.712 8  -9685112.324 9
  22766885.103    -3984454.966 6  -2339865.634 4
  21810021.147     2096810.344 8 -10477946.462 7
  24132756.840    -4432425.234 5  -4604358.417 2
  23280892.134    20087731.520 6  12159741.078 3
  24398361.416    12652543.149 5  -3004314.816 2
 95  4 19 17 53  0.0010000  0  7 19 27 31  2 16 18  7
  21253021.749    25918866.413 8   1172704.513 7
  20783560.191   -13642072.545 8  -9702957.135 9
  22778784.735    -3921986.931 7  -2291189.288 4
  21803505.517     2062574.981 8 -10504623.347 7
  24138724.569    -4400987.337 5  -4579861.375 2
  23301834.975    20197825.140 6  12245528.227 3
  24378959.028    12550550.035 5  -3083789.871 2
 95  4 19 17 53 30.0010000  0  7 19 27 31  2 16 18  7
  21260330.240    25957276.361 8   1202634.333 7
  20779246.387   -13664738.514 8  -9720618.930 9
  22790757.907    -3859011.698 6  -2242117.685 4
  21797042.471     2028602.788 8 -10531095.165 7
  24144803.610    -4369111.705 5  -4555023.295 2
  23322825.364    20308122.874 6  12331474.435 3
  24359552.113    12448559.564 5  -3163262.866 2
 95  4 19 17 54  0.0010000  0  7 19 27 31  2 16 18  7
  21267692.183    25995942.725 8   1232763.950 7
  20774976.323   -13687161.031 8  -9738091.029 9
  22802843.560    -3795528.848 6  -2192650.545 4
  21790624.754     1994879.319 9 -10557373.215 7
  24150953.972    -4336813.265 5  -4529855.713 2
  23343857.514    20418642.362 6  12417593.439 3
  24340137.374    12346573.806 5  -3242732.217 2
 95  4 19 17 54 30.0010000  0  7 19 27 31  2 16 18  7
  21275098.736    26034866.848 8   1263094.418 7
  20770758.933   -13709333.683 8  -9755368.415 9
  22815011.116    -3731523.039 6  -2142775.918 4
  21784253.985     1961397.988 9 -10583462.533 7
  24157177.364    -4304093.850 5  -4504360.104 2
  23364931.365    20529381.919 6  12503883.926 3
  24320740.322    12244607.556 5  -3322186.394 2
 95  4 19 17 55  0.0010000  0  7 19 27 31  2 16 18  7
  21282554.394    26074051.550 8   1293627.944 7
  20766587.411   -13731251.318 8  -9772447.095 9
  22827299.699    -3667001.088 7  -2092499.099 4
  21777932.171     1928169.249 9 -10609355.044 7
  24163489.764    -4270949.328 5  -4478533.273 2
  23386043.619    20640335.698 6  12590341.333 3
  24301332.747    12142660.496 5  -3401625.574 2
 95  4 19 17 55 30.0010000  0  7 19 27 31  2 16 18  7
  21290053.972    26113474.321 8   1324346.960 7
  20762469.132   -13752904.850 8  -9789319.988 9
  22839675.941    -3601973.810 7  -2041828.513 4
  21771659.854     1895209.448 9 -10635038.010 7
  24169874.984    -4237378.523 5  -4452374.166 2
  23407197.874    20751480.068 6  12676947.285 3
  24281947.418    12040733.014 5  -3481049.508 2
 95  4 19 17 56  0.0010000  0  7 19 27 31  2 16 18  7
  21297602.746    26153129.568 8   1355247.117 7
  20758398.999   -13774271.468 8  -9805969.295 9
  22852141.282    -3536421.915 7  -1990749.113 4
  21765442.038     1862543.228 9 -10660492.191 7
  24176350.051    -4203361.041 5  -4425867.092 2
  23428375.333    20862793.635 6  12763685.039 2
  24262564.066    11938860.108 5  -3560430.922 2
 95  4 19 17 56 30.0010000  0  7 19 27 31  2 16 18  7
  21305195.110    26193023.315 8   1386333.129 7
  20754391.644   -13795344.291 8  -9822389.684 9
  22864720.393    -3470347.553 7  -1939262.632 4
  21759284.541     1830192.814 9 -10685700.298 7
  24182909.480    -4168871.791 5  -4398992.426 2
  23449588.797    20974257.771 6  12850540.151 2
  24243186.261    11837069.827 5  -3639747.987 2
 95  4 19 17 57  0.0010000  0  7 19 27 31  2 16 18  7
  21312828.396    26233144.118 8   1417596.064 7
  20750431.205   -13816152.334 8  -9838603.740 9
  22877389.503    -3403787.357 7  -1887397.563 4
  21753186.223     1798139.298 9 -10710677.056 7
  24189561.335    -4133915.163 5  -4371753.510 2
  23470827.954    21085863.190 6  12937505.356 2
  24223842.363    11735349.510 5  -3719010.456 2
 95  4 19 17 57 30.0010000  0  7 19 27 31  2 16 18  7
  21320504.522    26273484.146 8   1449029.824 6
  20746519.184   -13836715.168 8  -9854626.724 9
  22890146.631    -3336758.998 7  -1835167.685 4
  21747141.297     1766357.046 9 -10735442.434 7
  24196289.517    -4098505.762 5  -4344161.815 2
  23492092.473    21197603.181 6  13024575.363 2
  24204490.970    11633690.989 5  -3798224.794 2
 95  4 19 17 58  0.0010000  0  7 19 27 31  2 16 18  7
  21328230.623    26314083.527 8   1480665.684 6
  20742649.523   -13857040.212 8  -9870464.428 9
  22902992.588    -3269242.916 7  -1782557.766 4
  21741143.410     1734844.494 9 -10759997.654 7
  24203126.584    -4062639.110 5  -4316213.851 2
  23513381.755    21309510.897 6  13111776.127 2
  24185161.731    11532114.741 5  -3877374.977 2
 95  4 19 17 58 30.0010000  0  7 19 27 31  2 16 18  7
  21336012.576    26354979.659 8   1512532.780 6
  20738833.135   -13877123.544 8  -9886113.800 9
  22915936.817    -3201236.491 7  -1729565.787 4
  21735197.416     1703597.934 9 -10784345.612 7
  24210035.871    -4026318.816 5  -4287912.302 2
  23534721.941    21421634.074 6  13199144.746 2
  24165836.689    11430616.797 5  -3956464.190 2
 95  4 19 17 59  0.0010000  0  7 19 27 31  2 16 18  7
  21343850.290    26396184.438 8   1544640.378 6
  20735057.189   -13896953.352 8  -9901565.600 9
  22928974.521    -3132728.745 7  -1676183.175 4
  21729299.179     1672615.914 9 -10808487.433 7
  24217040.821    -3989551.584 5  -4259262.613 2
  23556102.450    21533991.878 6  13286696.207 2
  24146539.229    11329182.293 5  -4035503.952 2
 95  4 19 17 59 30.0010000  0  7 19 27 31  2 16 18  7
  21351752.339    26437701.424 8   1576991.252 6
  20731333.287   -13916518.072 8  -9916810.853 9
  22942103.902    -3063699.314 7  -1622394.019 5
  21723459.192     1641918.882 9 -10832407.191 7
  24224104.681    -3952350.857 5  -4230275.052 2
  23577525.259    21646574.523 6  13374422.872 2
  24127248.214    11227808.284 5  -4114496.579 2
 95  4 19 18  0  0.0010000  0  7 19 27 31  2 16 18  7
  21359711.230    26479519.249 8   1609576.541 6
  20727662.118   -13935813.136 8  -9931845.966 9
  22955338.180    -2994146.351 7  -1568196.954 4
  21717675.296     1611512.434 9 -10856100.507 7
  24231270.171    -3914722.596 5  -4200954.348 2
  23598988.390    21759367.788 6  13462313.655 2
  24107971.349    11126485.032 5  -4193449.680 2
 95  4 19 18  0 30.0010000  0  7 19 27 31  2 16 18  7
  21367720.335    26521617.821 8   1642380.605 6
  20724044.582   -13954814.939 8  -9946652.559 9
  22968675.167    -2924083.482 7  -1513602.535 4
  21711943.414     1581400.870 9 -10879564.063 7
  24238515.075    -3876663.114 5  -4171297.667 2
  23620489.296    21872347.291 6  13550349.539 2
  24088693.944    11025208.523 5  -4272366.292 2
 95  4 19 18  1  0.0010000  0  7 19 27 31  2 16 18  7
  21375781.185    26563968.764 8   1675381.312 6
  20720487.035   -13973523.335 8  -9961230.541 9
  22982096.456    -2853524.792 6  -1458621.752 4
  21706267.474     1551587.702 9 -10902795.082 8
  24245840.534    -3838183.484 5  -4141313.577 2
  23642018.951    21985472.613 6  13638499.051 2
  24069434.108    10923980.327 5  -4351245.297 2
 95  4 19 18  1 30.0010000  0  7 19 27 31  2 16 18  7
  21383884.245    26606550.171 8   1708561.606 6
  20716981.472   -13991940.430 8  -9975581.538 9
  22995613.138    -2782503.112 7  -1403280.222 4
  21700647.804     1522053.968 9 -10925808.374 8
  24253234.675    -3799303.259 5  -4111017.299 2
  23663567.943    22098720.992 6  13726744.458 2
  24050181.556    10822802.092 5  -4430085.350 2
 95  4 19 18  2  0.0010000  0  7 19 27 31  2 16 18  7
  21392027.927    26649348.058 8   1741910.585 6
  20713530.831   -14010058.545 8  -9989699.546 9
  23009216.251    -2711047.485 6  -1347600.570 4
  21695077.660     1492760.387 9 -10948634.532 8
  24260716.595    -3760023.544 5  -4080409.819 2
  23685142.447    22212090.721 6  13815084.394 2
  24030935.450    10721686.143 5  -4508876.967 2
 95  4 19 18  2 30.0010000  0  7 19 27 31  2 16 18  7
  21400214.540    26692360.830 8   1775427.007 6
  20710140.628   -14027878.174 8 -10003584.984 9
  23022887.836    -2639177.546 6  -1291598.046 4
  21689544.181     1463698.228 9 -10971280.361 8
  24268256.436    -3720345.274 5  -4049491.752 2
  23706736.468    22325582.848 6  13903519.751 2
  24011713.267    10620644.948 5  -4587610.241 2
 95  4 19 18  3  0.0010000  0  7 19 27 31  2 16 18  7
  21408444.172    26735598.684 8   1809118.817 6
  20706807.775   -14045398.316 8 -10017237.031 9
  23036641.295    -2566878.784 6  -1235261.403 4
  21684056.120     1434870.085 9 -10993743.828 8
  24275893.379    -3680265.581 5  -4018260.812 2
  23728362.836    22439216.467 6  13992065.331 3
  23992502.956    10519692.721 5  -4666274.202 2
 95  4 19 18  3 30.0010000  0  7 19 27 31  2 16 18  7
  21416714.757    26779077.183 8   1842998.136 6
  20703533.532   -14062615.480 8 -10030653.009 9
  23050488.589    -2494132.635 6  -1178576.133 4
  21678618.215     1406276.180 9 -11016024.782 8
  24283596.216    -3639776.523 5  -3986710.942 2
  23750016.276    22553016.247 6  14080740.402 3
  23973308.114    10418834.809 5  -4744864.711 2
 95  4 19 18  4  0.0010000  0  7 19 27 31  2 16 18  7
  21425035.856    26822801.611 8   1877069.110 6
  20700310.133   -14079546.659 8 -10043846.129 9
  23064421.473    -2420916.345 6  -1121524.518 4
  21673222.041     1377926.108 9 -11038115.739 8
  24291381.856    -3598870.577 5  -3954836.254 2
  23771707.549    22666978.576 6  14169542.131 3
  23954133.658    10318069.979 5  -4823382.659 2
 95  4 19 18  4 30.0010000  0  7 19 27 31  2 16 18  7
  21433407.531    26866790.183 8   1911345.886 6
  20697138.959   -14096202.631 8 -10056824.812 9
  23078447.713    -2347202.667 6  -1064085.316 4
  21667881.987     1349859.806 9 -11059985.567 8
  24299245.802    -3557547.921 5  -3922636.804 2
  23793421.337    22781099.021 6  14258467.048 2
  23934974.642    10217386.209 5  -4901837.457 2
 95  4 19 18  5  0.0010000  0  7 19 27 31  2 16 18  7
  21441829.900    26911062.769 8   1945843.996 6
  20694025.314   -14112578.421 8 -10069585.163 9
  23092574.234    -2272976.888 6  -1006247.075 4
  21662597.216     1322086.921 9 -11081626.765 8
  24307180.229    -3515810.880 5  -3890114.496 2
  23815166.843    22895382.402 6  14347518.960 2
  23915827.587    10116780.325 5  -4980231.585 2
 95  4 19 18  5 30.0010000  0  7 19 27 31  2 16 18  7
  21450312.198    26955626.797 7   1980569.151 6
  20690960.356   -14128676.133 8 -10082128.836 9
  23106790.602    -2198250.337 6   -948018.622 4
  21657369.345     1294618.269 9 -11103030.905 8
  24315205.643    -3473657.279 5  -3857267.593 2
  23836943.078    23009821.284 6  14436692.034 2
  23896704.696    10016258.380 5  -5058560.285 2
 95  4 19 18  6  0.0010000  0  7 19 27 31  2 16 18  7
  21458844.681    27000461.802 8   2015505.531 6
  20687942.915   -14144519.116 8 -10094474.020 9
  23121103.473    -2123056.898 6   -889426.377 3
  21652196.546     1267440.025 9 -11124208.737 8
  24323299.320    -3431120.149 5  -3824121.862 2
  23858747.553    23124384.005 6  14525961.563 2
  23877589.389     9915810.925 5  -5136830.896 2
 95  4 19 18  6 30.0010000  0  7 19 27 31  2 16 18  7
  21467424.201    27045555.058 8   2050643.103 6
  20684977.758   -14160110.986 8 -10106623.549 9
  23135483.468    -2047438.559 6   -830503.025 3
  21647077.650     1240530.066 9 -11145177.524 8
  24331466.686    -3388228.584 5  -3790699.901 2
  23880564.949    23239067.414 6  14615325.206 2
  23858478.579     9815426.026 5  -5215052.834 2
 95  4 19 18  7  0.0010000  0  7 19 27 31  2 16 18  7
  21476051.479    27090889.128 8   2085968.318 6
  20682061.047   -14175445.539 8 -10118572.553 9
  23149956.219    -1971414.170 6   -771263.284 3
  21641999.076     1213856.686 9 -11165961.959 8
  24339693.381    -3344990.482 5  -3757007.859 2
  23902414.873    23353869.538 6  14704781.307 2
  23839394.421     9715120.689 5  -5293212.748 2
 95  4 19 18  7 30.0010000  0  7 19 27 31  2 16 18  7
  21484724.984    27136461.485 8   2121479.228 6
  20679191.254   -14190518.173 8 -10130317.469 9
  23164502.958    -1894972.066 6   -711698.030 3
  21636970.117     1187424.106 9 -11186558.765 8
  24347982.612    -3301400.075 5  -3723041.401 2
  23924282.604    23468791.597 6  14794330.889 2
  23820323.633     9614920.022 5  -5371291.116 2
 95  4 19 18  8  0.0010000  0  7 19 27 31  2 16 18  7
  21493444.418    27182284.188 7   2157185.215 6
  20676378.001   -14205308.433 8 -10141842.356 9
  23179132.111    -1818090.401 7   -651790.276 3
  21631986.367     1161230.087 9 -11206969.674 8
  24356361.032    -3257437.129 5  -3688784.563 2
  23946175.128    23583844.202 6  14883982.188 2
  23801281.116     9514839.983 5  -5449275.476 3
 95  4 19 18  8 30.0010000  0  7 19 27 31  2 16 18  7
  21502213.258    27228374.389 7   2193099.606 6
  20673623.358   -14219788.091 8 -10153125.210 9
  23193852.940    -1740752.660 7   -591527.134 3
  21627051.634     1135283.894 9 -11227187.480 8
  24364800.819    -3213062.900 5  -3654207.257 2
  23968097.122    23699045.687 6  14973749.487 2
  23782268.368     9414896.192 6  -5527153.667 3
 95  4 19 18  9  0.0010000  0  7 19 27 31  2 16 18  7
  21511035.730    27274736.578 7   2229225.977 6
  20670927.295   -14233954.592 8 -10164164.050 9
  23208661.488    -1662938.942 7   -530893.103 3
  21622163.698     1109607.792 9 -11247194.833 8
  24373323.379    -3168255.844 5  -3619292.712 2
  23990048.945    23814391.727 6  15063629.410 2
  23763277.835     9315098.146 6  -5604918.319 3
 95  4 19 18  9 30.0010000  0  7 19 27 31  2 16 18  7
  21519910.606    27321357.845 7   2265554.206 6
  20668285.194   -14247829.838 8 -10174975.932 9
  23223556.107    -1584670.383 6   -469904.646 3
  21617329.694     1084206.343 9 -11266988.151 8
  24381930.781    -3123034.387 5  -3584055.333 2
  24012022.383    23929860.692 6  15153605.176 2
  23744301.752     9215407.162 6  -5682599.553 3
 95  4 19 18 10  0.0010000  0  7 19 27 31  2 16 18  7
  21528830.930    27368220.363 8   2302070.413 6
  20665698.884   -14261429.424 8 -10185573.003 9
  23238533.528    -1505977.258 6   -408585.391 3
  21612545.846     1059067.059 9 -11286577.199 8
  24390606.235    -3077421.377 5  -3548512.678 2
  24034015.307    24045431.725 5  15243660.417 2
  23725342.008     9115794.642 6  -5760219.611 3
 95  4 19 18 10 30.0010000  0  7 19 27 31  2 16 18  7
  21537789.149    27415324.039 7   2338774.556 6
  20663162.460   -14274760.376 8 -10195960.777 9
  23253584.369    -1426866.309 6   -346940.538 3
  21607815.840     1034206.310 9 -11305949.215 8
  24399353.189    -3031435.808 5  -3512679.837 2
  24056031.256    24161103.587 6  15333794.267 2
  23706411.163     9016261.679 6  -5837777.721 3
 95  4 19 18 11  0.0010000  0  7 19 27 31  2 16 18  7
  21546802.889    27462687.567 7   2375681.184 6
  20660675.832   -14287812.021 8 -10206130.898 9
  23268719.571    -1347313.772 6   -284951.575 3
  21603141.656     1009641.679 9 -11325090.456 8
  24408169.816    -2985081.387 5  -3476559.556 2
  24078059.196    24276871.350 6  15424002.750 2
  23687486.165     8916821.792 6  -5915263.293 2
 95  4 19 18 11 30.0010000  0  7 19 27 31  2 16 18  7
  21555867.414    27510323.159 7   2412799.793 6
  20658253.479   -14300560.020 8 -10216064.400 9
  23283941.713    -1267313.218 6   -222613.522 3
  21598523.983      985368.193 9 -11344004.867 8
  24417068.885    -2938351.409 5  -3440146.642 2
  24100102.366    24392743.740 5  15514292.854 2
  23668585.269     8817496.350 6  -5992659.695 2
 95  4 19 18 12  0.0010000  0  7 19 27 31  2 16 18  7
  21564988.989    27558239.449 7   2450137.146 6
  20655888.386   -14312990.266 8 -10225750.312 9
  23299259.099    -1186861.979 6   -159924.296 3
  21593955.446      961382.522 9 -11362694.978 8
  24426034.838    -2891242.255 5  -3403438.300 2
  24122173.777    24508727.579 5  15604669.779 2
  23649702.452     8718310.854 5  -6069947.024 2
 95  4 19 18 12 30.0010000  0  7 19 27 31  2 16 18  7
  21574158.081    27606441.814 8   2487697.384 6
  20653585.410   -14325089.120 9 -10235177.998 9
  23314646.756    -1105959.334 6    -96883.315 4
  21589446.087      937684.039 9 -11381161.316 8
  24435079.277    -2843743.226 5  -3366426.045 2
  24144265.543    24624825.682 5  15695135.720 2
  23630857.168     8619265.831 5  -6147124.875 2
 95  4 19 18 13  0.0010000  0  7 19 27 31  2 16 18  7
  21583381.766    27654917.604 8   2525470.696 6
  20651347.130   -14336861.603 8 -10244351.363 9
  23330125.280    -1024636.942 6    -33515.259 4
  21584987.364      914243.868 9 -11399426.389 8
  24444189.070    -2795853.760 5  -3329109.650 2
  24166381.023    24741032.699 5  15785686.571 2
  23612034.129     8520348.201 5  -6224203.571 2
 95  4 19 18 13 30.0010000  0  7 19 27 31  2 16 18  7
  21592661.362    27703674.499 8   2563463.083 6
  20649167.069   -14348299.240 8 -10253263.821 9
  23345682.260     -942913.838 6     30165.030 4
  21580575.319      891057.504 9 -11417493.675 8
  24453373.662    -2747570.546 5  -3291486.417 2
  24188524.953    24857374.330 5  15876342.257 2
  23593241.249     8421566.275 5  -6301176.450 2
 95  4 19 18 14  0.0010000  0  7 19 27 31  2 16 18  7
  21601994.650    27752724.109 8   2601683.482 6
  20647053.922   -14359405.995 9 -10261918.432 9
  23361306.094     -860781.710 6     94164.024 4
  21576210.041      868125.128 9 -11435363.051 8
  24462636.979    -2698894.056 5  -3253556.729 2
  24210685.791    24973856.503 5  15967107.482 2
  23574473.492     8322927.840 6  -6378037.467 2
 95  4 19 18 14 30.0010000  0  7 19 27 31  2 16 18  7
  21611384.810    27802063.946 8   2640130.092 6
  20645001.723   -14370189.659 9 -10270321.275 9
  23377013.540     -778245.179 6    158478.165 4
  21571893.659      845432.003 9 -11453045.983 8
  24471986.936    -2649824.422 5  -3215320.690 2
  24232876.039    25090472.038 5  16057976.686 2
  23555724.381     8224431.707 6  -6454787.674 2
 95  4 19 18 15  0.0010000  0  7 19 27 31  2 16 18  7
  21620828.782    27851685.179 8   2678795.945 6
  20643013.049   -14380643.967 9 -10278467.502 9
  23392792.577     -695292.949 6    223116.213 4
  21567619.877      822973.253 9 -11470546.298 8
  24481378.474    -2600378.685 5  -3176791.603 2
  24255101.782    25207215.870 5  16148945.749 2
  23537013.135     8126094.941 6  -6531413.653 2
 95  4 19 18 15 30.0010000  0  7 19 27 31  2 16 18  7
  21630319.941    27901568.385 7   2717665.928 6
  20641082.776   -14390783.912 8 -10286368.759 9
  23408665.748     -611906.583 6    288092.573 4
  21563392.564      800758.022 9 -11487856.865 8
  24490873.531    -2550587.899 5  -3137993.657 2
  24277332.113    25324058.608 5  16239991.978 2
  23518333.996     8027912.191 6  -6607919.618 3
 95  4 19 18 16  0.0010000  0  7 19 27 31  2 16 18  7
  21639854.480    27951681.481 7   2756715.076 6
  20639207.904   -14400633.764 8 -10294043.971 9
  23424615.126     -528099.966 6    353396.388 4
  21559212.018      778785.143 9 -11504978.569 8
  24500391.672    -2500469.892 5  -3098940.710 2
  24299573.475    25440964.740 5  16331087.567 2
  23499672.395     7929879.680 6  -6684308.541 3
 95  4 19 18 16 30.0010000  0  7 19 27 31  2 16 18  7
  21649428.323    28002003.775 7   2795927.212 6
  20637389.483   -14410200.544 8 -10301498.611 9
  23440638.644     -443891.417 6    419013.400 3
  21555076.891      757057.350 9 -11521909.311 8
  24509983.442    -2450043.204 4  -3059647.222 2
  24321832.046    25557922.262 5  16422223.176 2
  23481041.643     7831982.530 6  -6760592.004 3
 95  4 19 18 17  0.0010000  0  7 19 27 31  2 16 18  7
  21659042.697    28052522.601 7   2835292.488 6
  20635619.328   -14419499.690 9 -10308744.712 9
  23456743.824     -359284.322 6    484940.977 3
  21550985.983      735573.368 9 -11538650.068 8
  24519637.718    -2399334.452 5  -3020133.905 2
  24344096.972    25674920.246 5  16513390.339 2
  23462438.952     7734205.815 6  -6836781.596 3
 95  4 19 18 17 30.0010000  0  7 19 27 31  2 16 18  7
  21668702.459    28103271.237 7   2874836.843 6
  20633900.678   -14428540.782 8 -10315789.729 9
  23472915.619     -274288.272 6    551171.618 3
  21546946.939      714350.749 9 -11555187.162 8
  24529355.910    -2348313.464 5  -2980377.373 2
  24366368.884    25791973.347 5  16604600.470 2
  23443855.387     7636554.679 6  -6912873.314 3
 95  4 19 18 18  0.0010000  0  7 19 27 31  2 16 18  7
  21678410.309    28154304.750 7   2914603.200 6
  20632240.337   -14437276.782 9 -10322597.007 9
  23489166.408     -188883.190 6    617721.001 3
  21542961.558      693402.512 9 -11571510.445 8
  24539121.769    -2296939.064 5  -2940345.413 2
  24388665.558    25909128.495 5  16695890.078 2
  23425301.561     7539064.573 6  -6988839.596 3
 95  4 19 18 18 30.0010000  0  7 19 27 31  2 16 18  7
  21688185.342    28205655.747 7   2954616.932 6
  20630639.655   -14445676.596 9 -10329142.323 9
  23505504.168     -103046.895 6    684606.373 3
  21539029.210      672736.406 9 -11587613.882 8
  24548973.279    -2245205.766 5  -2900033.802 2
  24410987.175    26026407.967 5  16787276.570 2
  23406783.861     7441741.897 6  -7064675.427 3
 95  4 19 18 19  0.0010000  0  7 19 27 31  2 16 18  7
  21698019.194    28257335.898 7   2994887.154 6
  20629109.035   -14453733.136 9 -10335420.161 9
  23521915.347      -16788.462 6    751820.722 3
  21535150.855      652355.495 9 -11603495.112 8
  24558892.602    -2193109.074 5  -2859439.053 2
  24433324.771    26143802.293 5  16878752.590 2
  23388301.116     7344591.865 6  -7140376.677 4
 95  4 19 18 19 30.0010000  0  7 19 27 31  2 16 18  7
  21707918.131    28309348.211 7   3035416.195 6
  20627642.330   -14461423.367 9 -10341412.552 9
  23538399.285       69870.137 6    819346.882 3
  21531327.062      632263.840 9 -11619150.926 8
  24568866.008    -2140639.152 4  -2818553.445 2
  24455682.693    26261304.144 5  16970312.308 2
  23369842.715     7247631.131 6  -7215930.447 4
 95  4 19 18 20  0.0010000  0  7 19 27 31  2 16 18  7
  21717873.039    28361664.229 7   3076181.907 6
  20626249.615   -14468731.774 9 -10347107.414 9
  23554974.750      156927.407 6    887183.657 3
  21527557.802      612456.498 9 -11634585.207 8
  24578921.227    -2087826.726 5  -2777400.992 2
  24478057.164    26378905.251 6  17061949.409 2
  23351432.550     7150870.590 6  -7291328.279 3
 95  4 19 18 20 30.0010000  0  7 19 27 31  2 16 18  7
  21727879.092    28414260.176 7   3117165.734 6
  20624927.890   -14475673.691 9 -10352516.706 9
  23571611.373      244376.334 6    955325.669 3
  21523843.883      592936.314 9 -11649795.733 8
  24589032.477    -2034677.762 5  -2735986.260 2
  24500460.174    26496595.690 6  17153656.124 2
  23333053.713     7054294.708 6  -7366582.151 3
 95  4 19 18 21  0.0010000  0  7 19 27 31  2 16 18  7
  21737939.348    28467128.551 7   3158361.821 6
  20623676.856   -14482253.279 9 -10357643.653 9
  23588323.034      332209.953 6   1023767.414 3
  21520182.698      573700.483 9 -11664784.680 8
  24599210.881    -1981178.160 5  -2694298.322 2
  24522869.960    26614370.659 6  17245428.685 2
  23314706.385     6957913.030 6  -7441684.662 4
 95  4 19 18 21 30.0010000  0  7 19 27 31  2 16 18  7
  21748057.043    28520276.027 7   3199775.405 6
  20622495.374   -14488465.420 9 -10362484.300 9
  23605119.506      420452.007 6   1092527.382 3
  21516576.494      554748.479 9 -11679552.465 8
  24609465.312    -1927324.430 5  -2652334.359 2
  24545298.483    26732244.185 6  17337278.098 2
  23296415.507     6861743.016 6  -7516622.315 3
 95  4 19 18 22  0.0010000  0  7 19 27 31  2 16 18  7
  21758222.946    28573689.710 7   3241396.429 6
  20621378.377   -14494345.123 9 -10367065.891 9
  23621976.866      509097.246 6   1161601.545 3
  21513018.707      536054.980 9 -11694118.809 8
  24619784.528    -1873124.917 5  -2610101.110 2
  24567742.596    26850210.427 6  17429199.753 2
  23278150.832     6765758.761 6  -7591415.219 3
 95  4 19 18 22 30.0010000  0  7 19 27 31  2 16 18  7
  21768433.727    28627386.196 7   3283237.804 6
  20620317.951   -14499899.277 9 -10371393.796 9
  23638920.506      598133.572 6   1230980.482 3
  21509514.043      517614.662 9 -11708487.880 8
  24630153.120    -1818561.570 5  -2567584.267 2
  24590211.501    26968257.920 6  17521184.683 2
  23259916.555     6669951.848 6  -7666069.893 3
 95  4 19 18 23  0.0010000  0  7 19 27 31  2 16 18  7
  21778710.403    28681369.299 7   3325302.530 5
  20619325.758   -14505125.467 9 -10375466.167 9
  23655952.135      687545.054 6   1300651.666 3
  21506048.293      499423.708 9 -11722662.631 8
  24640616.806    -1763643.094 5  -2524790.661 2
  24612693.417    27086370.350 6  17613220.235 2
  23241723.590     6574339.856 6  -7740572.696 3
 95  4 19 18 23 30.0010000  0  7 19 27 31  2 16 18  7
  21789037.054    28735643.578 7   3367594.154 5
  20618393.433   -14510018.881 9 -10379279.226 9
  23673026.755      777331.560 6   1370615.146 3
  21502637.644      481486.613 9 -11736639.577 8
  24651127.440    -1708381.735 5  -2481729.982 2
  24635179.680    27204555.607 6  17705312.474 2
  23223566.689     6478921.479 6  -7814924.670 3
 95  4 19 18 24  0.0010000  0  7 19 27 31  2 16 18  7
  21799424.442    28790223.940 7   3410124.274 5
  20617533.179   -14514549.908 9 -10382809.889 9
  23690187.265      867498.848 6   1440875.332 3
  21499273.703      463823.936 9 -11750402.690 8
  24661718.837    -1652771.581 5  -2438397.443 2
  24657680.903    27322819.804 6  17797466.304 2
  23205443.246     6383711.453 6  -7889114.230 3
 95  4 19 18 24 30.0010000  0  8 19 27 26 31  2 16 18  7
  21809872.330    28845119.120 7   3452899.716 5
  20616743.615   -14518693.861 9 -10386038.953 9
  25317302.676     -541291.27515  -1333826.535 2
  23707426.440      958071.264 6   1511451.197 3
  21495969.570      446448.575 9 -11763941.919 8
  24672351.157    -1596827.887 4  -2394805.010 2
  24680201.372    27441160.840 5  17889679.918 2
  23187371.846     6288730.774 6  -7963125.094 3
 95  4 19 18 25  0.0010000  0  8 19 27 26 31  2 16 18  7
  21820376.278    28900323.170 7   3495915.831 5
  20616032.508   -14522440.405 9 -10388958.334 9
  25300470.289     -629778.774 5  -1402777.775 2
  23724742.602     1049078.069 6   1582365.529 3
  21492717.391      429365.377 9 -11777253.486 8
  24683063.401    -1540554.734 5  -2350955.883 2
  24702743.187    27559584.217 5  17981957.856 2
  23169346.645     6193993.831 6  -8036946.079 3
 95  4 19 18 25 30.0010000  0  8 19 27 26 31  2 16 18  7
  21830940.394    28955832.780 7   3539170.038 5
  20615394.190   -14525792.750 9 -10391570.550 9
  25283670.639     -718031.832 5  -1471546.356 2
  23742145.225     1140530.351 6   1653627.011 3
  21489522.113      412580.260 9 -11790332.785 9
  24693847.475    -1483944.027 5  -2306843.646 2
  24725290.038    27678097.104 5  18074305.353 1
  23151362.305     6099506.348 6  -8110572.653 3
 95  4 19 18 26  0.0010000  0  8 19 27 26 31  2 16 18  7
  21841559.943    29011656.304 7   3582668.855 5
  20614830.460   -14528751.255 9 -10393875.869 9
  25266931.337     -806019.740 5  -1540108.323 2
  23759635.267     1232434.519 6   1725240.607 3
  21486386.404      396095.193 9 -11803178.283 9
  24704681.555    -1426975.196 5  -2262452.410 1
  24747867.678    27796694.262 5  18166718.673 1
  23133433.757     6005288.099 6  -8183989.410 3
 95  4 19 18 26 30.0010000  0  8 19 27 26 31  2 16 18  7
  21852243.527    29067783.337 7   3626404.157 5
  20614335.682   -14531338.725 9 -10395892.085 9
  25250235.955     -893759.792 5  -1608477.181 2
  23777205.563     1324771.533 6   1797191.465 3
  21483305.587      379901.861 9 -11815796.443 9
  24715576.133    -1369641.505 4  -2217776.839 1
  24770446.996    27915374.040 5  18259196.200 1
  23115561.420     5911342.828 6  -8257193.470 3
 95  4 19 18 27  0.0010000  0  8 19 27 26 31  2 16 18  7
  21862979.394    29124201.282 7   3670366.158 5
  20613908.538   -14533576.577 9 -10397635.866 9
  25233573.311     -981263.777 5  -1676662.029 2
  23794848.589     1417493.414 6   1869442.258 4
  21480280.861      363998.714 9 -11828188.492 9
  24726571.621    -1311950.245 5  -2172822.693 1
  24793045.502    28034131.198 5  18351734.141 1
  23097732.253     5817654.583 6  -8330197.257 3
 95  4 19 18 27 30.0010000  0  8 19 27 26 31  2 16 18  7
  21873769.974    29180918.818 7   3714561.594 5
  20613551.725   -14535473.666 9 -10399114.107 9
  25216966.008    -1068530.872 5  -1744662.327 2
  23812561.467     1510560.747 6   1941962.199 4
  21477311.267      348387.016 9 -11840353.449 9
  24737619.392    -1253920.548 4  -2127604.841 1
  24815648.384    28152961.553 5  18444329.076 2
  23079945.806     5724209.162 6  -8403011.820 3
 95  4 19 18 28  0.0010000  0  8 19 27 26 31  2 16 18  7
  21884621.262    29237940.704 7   3758994.206 5
  20613253.252   -14537027.357 9 -10400324.781 9
  25200416.085    -1155581.159 5  -1812493.716 2
  23830331.875     1603952.044 6   2014734.610 3
  21474389.789      333057.338 9 -11852298.632 9
  24748715.041    -1195574.644 4  -2082140.515 1
  24838279.807    28271857.049 5  18536974.793 2
  23062210.744     5630983.637 6  -8475655.020 4
 95  4 19 18 28 30.0010000  0  8 19 27 26 31  2 16 18  7
  21895529.690    29295251.639 7   3803652.055 5
  20613023.881   -14538236.761 9 -10401267.168 9
  25183886.128    -1242439.374 5  -1880175.388 2
  23848160.502     1697652.147 6   2087747.617 3
  21471527.791      318010.203 9 -11864023.658 9
  24759865.312    -1136941.370 4  -2036452.296 1
  24860912.398    28390807.256 5  18629663.079 2
  23044498.855     5537956.781 6  -8548143.443 4
 95  4 19 18 29  0.0010000  0  8 19 27 26 31  2 16 18  7
  21906485.995    29352837.348 7   3848523.978 5
  20612857.496   -14539104.619 9 -10401943.425 9
  25167386.661    -1329113.738 5  -1947713.784 2
  23866048.129     1791653.221 6   2160995.170 3
  21468714.208      303224.640 9 -11875544.845 9
  24771078.209    -1078043.145 4  -1990557.687 1
  24883556.322    28509785.299 5  18722373.115 2
  23026836.043     5445098.026 6  -8620500.874 4
 95  4 19 18 29 30.0010000  0  8 19 27 26 31  2 16 18  7
  21917496.323    29410691.420 7   3893605.049 5
  20612759.434   -14539622.082 9 -10402346.645 9
  25150927.305    -1415613.748 5  -2015116.372 2
  23883993.645     1885975.261 6   2234492.794 3
  21465948.323      288680.375 9 -11886878.038 8
  24782332.418    -1018871.967 4  -1944450.390 1
  24906202.915    28628786.558 5  18815101.216 2
  23009194.726     5352412.745 6  -8692723.105 4
 95  4 19 18 30  0.0010000  0  8 19 27 26 31  2 16 18  7
  21928550.780    29468800.277 7   3938884.641 5
  20612727.416   -14539786.230 9 -10402474.569 9
  25134489.805    -1501946.522 5  -2082388.570 2
  23902007.604     1980633.290 6   2308252.241 3
  21463223.360      274368.144 9 -11898030.405 8
  24793655.340     -959410.846 4  -1898117.066 1
  24928855.442    28747806.774 5  18907844.102 2
  22991597.688     5259915.913 6  -8764798.535 4
 95  4 19 18 30 30.0010000  0  8 19 27 26 31  2 16 18  7
  21939656.652    29527154.326 7   3984355.298 5
  20612766.719   -14539600.413 8 -10402329.766 9
  25118106.237    -1588096.543 5  -2149518.438 2
  23920090.546     2075628.448 6   2382274.452 2
  21460540.727      260280.389 9 -11909007.854 8
  24805029.585     -899665.828 4  -1851562.577 1
  24951501.255    28866824.284 6  19000584.870 2
  22974031.439     5167620.196 6  -8836717.236 4
 95  4 19 18 31  0.0010000  0  8 19 27 26 31  2 16 18  7
  21950806.083    29585748.536 7   4030013.102 5
  20612864.571   -14539078.880 9 -10401923.383 9
  25101741.226    -1674075.711 5  -2216515.143 2
  23938227.570     2170948.097 6   2456549.512 2
  21457902.343      246397.919 9 -11919825.347 8
  24816448.320     -839652.208 5  -1804798.772 1
  24974144.819    28985823.597 5  19093311.416 2
  22956510.129     5075520.246 6  -8908483.368 4
 95  4 19 18 31 30.0010000  0  8 19 27 26 31  2 16 18  7
  21962003.841    29644581.306 7   4075856.791 5
  20613023.641   -14538236.231 9 -10401266.776 9
  25085406.045    -1759899.153 5  -2283390.491 2
  23956420.175     2266563.812 6   2531055.197 2
  21455295.558      232708.924 9 -11930492.079 8
  24827912.624     -779401.490 5  -1757850.305 1
  24996783.827    29104788.492 5  19186011.152 2
  22939019.277     4983623.043 6  -8980091.543 4
 95  4 19 18 32  0.0010000  0  8 19 27 26 31  2 16 18  7
  21973243.570    29703652.427 7   4121886.179 5
  20613247.376   -14537075.041 8 -10400361.963 9
  25069114.513    -1845561.571 5  -2350140.394 2
  23974666.564     2362454.843 5   2605775.447 2
  21452725.977      219213.952 9 -11941007.626 8
  24839414.731     -718946.216 4  -1710742.302 1
  25019413.690    29223702.202 5  19278671.054 2
  22921570.757     4891921.012 6  -9051547.648 4
 95  4 19 18 32 30.0010000  0  8 19 27 26 31  2 16 18  7
  21984533.244    29762967.400 7   4168105.607 5
  20613529.990   -14535593.214 8 -10399207.283 9
  25052838.481    -1931054.421 5  -2416758.131 2
  23992975.219     2458613.810 5   2680704.486 2
  21450196.328      205912.528 9 -11951372.356 8
  24850950.445     -658295.772 5  -1663482.325 1
  25042033.661    29342567.630 5  19371293.297 2
  22904155.513     4800410.289 6  -9122854.670 4
 95  4 19 18 33  0.0010000  0  8 19 27 26 31  2 16 18  7
  21995864.740    29822526.808 7   4214515.517 5
  20613869.535   -14533795.314 8 -10397806.341 9
  25036610.535    -2016367.638 5  -2483235.928 2
  24011316.491     2555037.414 5   2755839.635 2
  21447702.624      192803.302 9 -11961587.327 8
  24862531.757     -597437.917 5  -1616060.650 1
  25064645.357    29461410.238 5  19463897.782 2
  22886782.990     4709098.770 6  -9194006.469 4
 95  4 19 18 33 30.0010000  0  8 19 27 26 31  2 16 18  7
  22007247.170    29882330.865 7   4261116.047 5
  20614274.345   -14531678.953 9 -10396157.226 9
  25020412.179    -2101473.484 5  -2549552.124 2
  24029721.380     2651735.184 5   2831188.503 2
  21445244.416      179890.388 9 -11971649.314 8
  24874152.373     -536362.660 5  -1568469.597 1
  25087257.503    29580245.306 4  19556496.310 2
  22869439.816     4618004.555 6  -9264988.950 4
 95  4 19 18 34  0.0010000  0  8 19 27 26 31  2 16 18  7
  22018665.125    29942365.900 7   4307896.557 5
  20614737.254   -14529256.737 9 -10394269.793 9
  25004260.021    -2186366.249 5  -2615702.303 2
  24048171.537     2748725.220 5   2906765.136 2
  21442824.222      167173.204 9 -11981558.807 8
  24885818.257     -475048.726 5  -1520692.637 1
  25109881.071    29699077.447 4  19649092.658 2
  22852152.104     4527125.493 6  -9335803.791 4
 95  4 19 18 34 30.0010000  0  8 19 27 26 31  2 16 18  7
  22030139.532    30002628.878 7   4354854.697 5
  20615251.548   -14526529.532 8 -10392144.695 9
  24988146.896    -2271045.348 5  -2681686.008 2
  24066690.437     2846012.674 6   2982573.461 2
  21440440.842      154664.869 9 -11991305.539 8
  24897540.681     -413475.812 5  -1472713.764 1
  25132488.630    29817914.727 4  19741692.911 2
  22834897.519     4436470.754 6  -9406443.807 4
 95  4 19 18 35  0.0010000  0  8 19 27 26 31  2 16 18  7
  22041644.457    30063099.863 7   4401974.923 5
  20615831.947   -14523496.212 8 -10389781.072 9
  24972070.076    -2355510.599 4  -2747502.988 2
  24085261.081     2943592.274 6   3058609.470 2
  21438101.171      142358.214 9 -12000895.126 8
  24909305.647     -351655.688 5  -1424542.292 1
  25155101.915    29936746.457 4  19834288.937 1
  22817689.912     4346037.721 6  -9476911.102 4
 95  4 19 18 35 30.0010000  0  8 19 27 26 31  2 16 18  7
  22053196.150    30123778.955 7   4449257.286 5
  20616466.877   -14520153.205 8 -10387176.133 9
  24956039.064    -2439777.944 5  -2813165.812 2
  24103875.464     3041460.221 6   3134870.203 3
  21435799.365      130251.901 9 -12010328.595 8
  24921111.563     -289612.554 5  -1376197.091 1
  25177706.417    30055547.142 4  19926860.700 1
  22800516.961     4255816.485 6  -9547213.328 4
 95  4 19 18 36  0.0010000  0  8 19 27 26 31  2 16 18  7
  22064779.351    30184679.519 7   4496712.241 5
  20617169.051   -14516476.036 9 -10384310.808 9
  24940030.986    -2523855.984 5  -2878681.165 2
  24122554.453     3139609.204 6   3211349.882 2
  21433537.461      118361.504 9 -12019593.824 9
  24932958.222     -227345.253 5  -1327677.194 1
  25200309.269    30174311.228 4  20019403.939 1
  22783393.115     4165803.561 6  -9617353.233 4
 95  4 19 18 36 30.0010000  0  8 19 27 26 31  2 16 18  7
  22076411.658    30245808.664 7   4544345.311 5
  20617933.312   -14512443.534 9 -10381168.587 9
  24924069.166    -2607726.874 5  -2944035.017 2
  24141281.828     3238024.957 6   3288037.431 2
  21431316.898      106697.583 9 -12028682.592 8
  24944852.938     -164876.356 5  -1279000.260 1
  25222904.956    30293039.715 4  20111919.432 1
  22766298.679     4075994.775 6  -9687334.083 4
 95  4 19 18 37  0.0010000  0  8 19 27 26 31  2 16 18  7
  22088088.395    30307176.365 7   4592164.258 5
  20618764.816   -14508064.898 8 -10377756.665 9
  24908154.204    -2691384.993 5  -3009223.134 2
  24160063.166     3336706.990 6   3364932.491 3
  21429136.777       95246.530 9 -12037605.467 9
  24956769.268     -102219.504 5  -1230176.816 1
  25245478.729    30411730.093 4  20204405.340 1
  22749250.681     3986383.316 6  -9757161.172 4
 95  4 19 18 37 30.0010000  0  8 19 27 26 31  2 16 18  7
  22099818.404    30368812.052 7   4640192.018 5
  20619666.112   -14503339.851 8 -10374074.795 9
  24892274.617    -2774829.455 5  -3074244.703 2
  24178895.859     3435657.544 6   3442036.785 3
  21426998.687       84014.400 9 -12046357.772 9
  24968729.998      -39380.358 5  -1181211.360 1
  25268072.108    30530384.506 5  20296863.102 1
  22732236.920     3896970.231 6  -9826833.661 5
 95  4 19 18 38  0.0010000  0  7 19 27 26 31  2 16  7
  22111601.627    30430718.853 7   4688431.077 5
  20620634.622   -14498259.416 8 -10370116.016 9
  24876442.397    -2858039.299 5  -3139083.423 2
  24197775.798     3534869.382 6   3519344.648 3
  21424905.027       73004.394 9 -12054936.967 9
  24980729.371       23664.505 4  -1132085.527 1
  22715258.804     3807757.391 7  -9896350.126 5
 95  4 19 18 38 30.0010000  0  7 19 27 26 31  2 16  7
  22123435.394    30492906.087 7   4736888.608 5
  20621663.629   -14492836.961 8 -10365890.716 9
  24860648.911    -2940997.622 5  -3203726.267 2
  24216693.902     3634345.891 5   3596858.752 3
  21422848.511       62204.770 9 -12063352.263 8
  24992760.312       86921.172 4  -1082794.720 1
  22698322.029     3718753.064 7  -9965704.126 5
 95  4 19 18 39  0.0010000  0  7 19 27 26 31  2 16  7
  22135325.643    30555387.815 7   4785575.623 5
  20622758.411   -14487066.440 8 -10361394.201 9
  24844914.963    -3023713.004 5  -3268179.731 2
  24235686.443     3734100.175 5   3674589.319 3
  21420833.456       51616.164 9 -12071603.104 9
  25004840.209      150410.926 4  -1033322.307 1
  22681429.983     3629990.402 7 -10034869.777 5
 95  4 19 18 39 30.0010000  0  7 19 27 26 31  2 16  7
  22147272.013    30618169.653 7   4834496.519 5
  20623931.080   -14480927.227 8 -10356610.379 9
  24829218.280    -3106182.145 5  -3332441.337 2
  24254723.444     3834127.657 5   3752532.735 3
  21418865.168       41257.126 9 -12079675.068 9
  25016969.872      214148.556 4   -983656.700 1
  22664588.452     3541496.584 7 -10103825.944 5
 95  4 19 18 40  0.0010000  0  7 19 27 26 31  2 16  7
  22159277.381    30681230.196 7   4883634.581 5
  20625166.644   -14474431.708 8 -10351548.924 9
  24813577.867    -3188407.161 5  -3396512.708 2
  24273803.795     3934419.866 5   3830682.457 3
  21416933.635       31125.715 9 -12087569.670 9
  25029161.802      278138.882 4   -933794.218 1
  22647807.119     3453287.231 7 -10172560.490 5
 95  4 19 18 40 30.0010000  0  7 19 27 26 31  2 16  7
  22171324.631    30744548.501 7   4932973.468 5
  20626469.392   -14467591.628 8 -10346218.998 9
  24797971.841    -3270403.627 6  -3460406.041 2
  24292934.871     4034984.013 5   3909044.094 3
  21415046.202       21218.547 9 -12095289.519 9
  25041378.045      342360.595 4   -883751.410 1
  22631074.743     3365380.040 7 -10241059.552 5
 95  4 19 18 41  0.0010000  0  7 19 27 26 31  2 16  7
  22183414.692    30808107.505 7   4982499.953 5
  20627837.285   -14460387.606 8 -10340605.458 9
  24782412.013    -3352163.445 5  -3524114.890 2
  24312133.580     4135831.759 5   3987626.674 3
  21413208.774       11552.057 9 -12102821.850 9
  25053631.971      406811.853 4   -833529.767 1
  22614411.649     3277793.470 7 -10309308.777 5
 95  4 19 18 41 30.0010000  0  8 19 27 15 26 31  2 16  7
  22195558.115    30871911.955 7   5032217.660 5
  20629282.045   -14452807.787 8 -10334699.108 9
  25097690.670    -3695338.32814   -558306.882 1
  24766904.079    -3433664.792 6  -3587622.381 2
  24331371.952     4236962.601 5   4066429.865 2
  21411417.934        2130.097 9 -12110163.647 9
  25065961.326      471492.981 5   -783128.982 1
  22597798.650     3190507.232 7 -10377323.989 5
 95  4 19 18 42  0.0010000  0  8 19 27 15 26 31  2 16  7
  22207748.486    30935958.436 7   5082123.952 4
  20630798.425   -14444839.929 8 -10328490.378 9
  25087361.111    -3749635.064 4   -600616.015 1
  24751442.193    -3514888.709 5  -3650913.705 2
  24350680.445     4338385.939 5   4145461.042 2
  21409670.324       -7039.995 9 -12117309.142 9
  25078304.891      536404.748 4   -732548.390 1
  22581249.506     3103521.636 7 -10445104.918 5
 95  4 19 18 42 30.0010000  0  8 19 27 15 26 31  2 16  7
  22219982.266    31000263.738 7   5132231.947 4
  20632392.302   -14436458.401 8 -10321959.329 9
  25077087.524    -3803635.129 4   -642693.844 1
  24736040.116    -3595826.487 6  -3713982.050 2
  24370041.192     4440108.492 5   4224725.312 2
  21407977.306      -15941.539 9 -12124245.401 9
  25090703.258      601544.307 4   -681790.464 1
  22564750.069     3016825.947 7 -10512659.940 5
 95  4 19 18 43  0.0010000  0  8 19 27 15 26 31  2 16  7
  22232269.860    31064854.506 7   5182562.383 5
  20634068.232   -14427663.611 8 -10315106.226 9
  25066860.703    -3857339.892 4   -684541.620 1
  24720699.166    -3676487.649 5  -3776834.851 2
  24389449.036     4542108.702 5   4304205.895 2
  21406335.193      -24578.761 9 -12130975.699 9
  25103128.666      666896.775 4   -630866.531 1
  22548304.444     2930397.407 7 -10580006.799 5
 95  4 19 18 43 30.0010000  0  8 19 27 15 26 31  2 16  7
  22244626.496    31129769.977 7   5233145.819 5
  20635823.277   -14418449.844 8 -10307926.674 9
  25056713.178    -3910729.911 5   -726144.232 1
  24705393.802    -3756865.836 5  -3839467.136 2
  24408908.924     4644388.211 5   4383904.203 2
  21404740.926      -32936.433 9 -12137488.158 9
  25115596.584      732467.414 4   -579772.676 1
  22531912.032     2844247.814 7 -10647136.319 5
 95  4 19 18 44  0.0010000  0  8 19 27 15 26 31  2 16  7
  22257044.529    31195025.848 7   5283994.497 4
  20637654.259   -14408803.365 8 -10300409.939 9
  25046609.753    -3963784.421 5   -767485.298 1
  24690166.593    -3836949.456 5  -3901869.930 2
  24428432.008     4746965.857 5   4463834.771 2
  21403210.845      -40996.408 9 -12143768.650 9
  25128127.849      798265.377 4   -528501.566 1
  22515578.230     2758415.806 7 -10714018.334 5
 95  4 19 18 44 30.0010000  0  8 19 27 15 26 31  2 16  7
  22269532.923    31260650.391 7   5335130.486 4
  20639577.518   -14398721.043 8 -10292553.569 9
  25036583.464    -4016492.930 5   -808556.800 1
  24674976.109    -3916721.779 5  -3964030.122 2
  24448008.636     4849849.876 6   4544004.066 2
  21401731.580      -48766.169 9 -12149822.994 9
  25140693.800      864297.466 3   -477048.083 1
  22499307.923     2672920.274 7 -10780638.176 5
 95  4 19 18 45  0.0010000  0  8 19 27 15 26 31  2 16  7
  22282089.400    31326633.696 7   5386545.995 4
  20641572.846   -14388208.734 8 -10284362.171 9
  25026618.692    -4068861.822 5   -849363.601 1
  24659861.293    -3996170.868 5  -4025938.426 2
  24467642.673     4953040.698 6   4624412.488 2
  21400305.137      -56265.679 9 -12155666.752 9
  25153316.651      930573.010 4   -425404.940 1
  22483103.122     2587771.966 7 -10846987.457 5
 95  4 19 18 45 30.0010000  0  8 19 27 15 26 31  2 16  7
  22294702.958    31392939.680 7   5438212.940 4
  20643653.766   -14377270.079 8 -10275838.539 9
  25016721.104    -4120892.186 5   -889906.630 1
  24644807.185    -4075275.532 5  -4087578.406 2
  24487339.458     5056542.076 6   4705062.856 2
  21398928.010      -63507.382 9 -12161309.632 9
  25165961.957      997100.448 3   -373565.362 1
  22466965.893     2502978.120 7 -10913060.533 5
 95  4 19 18 46  0.0010000  0  8 19 27 15 26 31  2 16  7
  22307381.691    31459561.552 7   5490126.065 4
  20645823.604   -14365889.466 8 -10266970.536 9
  25006881.586    -4172573.403 5   -930177.325 1
  24629828.654    -4154012.190 5  -4148931.575 2
  24507101.597     5160358.389 6   4785958.621 2
  21397596.602      -70497.152 9 -12166756.191 9
  25178665.153     1063898.900 4   -321514.851 1
  22450900.105     2418549.630 7 -10978848.907 5
 95  4 19 18 46 30.0010000  0  8 19 27 15 26 31  2 16  7
  22320122.511    31526495.720 7   5542282.493 4
  20648070.788   -14354063.202 8 -10257755.262 9
  24997108.472    -4223900.708 5   -970172.513 1
  24614913.110    -4232369.036 5  -4209988.820 2
  24526906.366     5264481.219 6   4867093.232 2
  21396312.561      -77230.227 9 -12172002.731 9
  25191432.564     1130967.506 3   -269253.610 1
  22434901.981     2334484.096 7 -11044354.462 5
 95  4 19 18 47  0.0010000  0  8 19 27 15 26 31  2 16  7
  22332912.676    31593715.150 7   5594661.233 4
  20650401.375   -14341807.167 8 -10248205.108 9
  24987402.811    -4274882.690 5  -1009898.738 1
  24600074.253    -4310369.538 5  -4270768.331 2
  24546779.908     5368897.048 6   4948456.207 2
  21395082.453      -83710.988 9 -12177052.672 9
  25204257.446     1198288.167 4   -216796.140 1
  22418970.320     2250762.816 7 -11109591.784 5
 95  4 19 18 47 30.0010000  0  8 19 27 15 26 31  2 16  7
  22345755.096    31661214.894 7   5647258.404 4
  20652814.164   -14329138.557 8 -10238333.471 9
  24977774.017    -4325520.021 5  -1049356.373 1
  24585291.247    -4388034.641 5  -4331286.532 2
  24566695.571     5473573.441 6   5030022.160 2
  21393894.345      -89939.700 9 -12181906.200 9
  25217099.835     1265838.620 4   -164159.426 1
  22403103.354     2167371.891 7 -11174571.685 5
 95  4 19 18 48  0.0010000  0  7 19 27 15 26 31  2  7
  22358657.174    31728998.250 7   5700076.537 4
  20655299.893   -14316072.276 8 -10228151.944 9
  24968199.245    -4375827.150 5  -1088556.731 1
  24570569.549    -4465392.592 5  -4391565.442 2
  24586661.898     5578479.326 6   5111766.900 2
  21392756.813      -95927.654 9 -12186572.137 9
  22387291.850     2084291.775 7 -11239309.377 5
 95  4 19 18 48 30.0010000  0  7 19 27 15 26 31  2  7
  22371606.229    31797055.532 7   5753108.145 4
  20657858.592   -14302621.154 8 -10217670.568 9
  24958701.550    -4425813.298 5  -1127506.923 1
  24555907.689    -4542459.771 5  -4451617.721 2
  24606664.141     5683616.241 5   5193691.774 2
  21391662.061     -101670.901 9 -12191047.370 9
  22371540.815     2001509.711 7 -11303814.855 5
 95  4 19 18 49  0.0010000  0  7 19 27 15 26 31  2  7
  22384613.714    31865397.198 7   5806361.347 4
  20660495.417   -14288789.867 8 -10206892.940 9
  24949235.813    -4475473.821 5  -1166203.418 1
  24541296.254    -4619239.053 5  -4511445.644 2
  24626721.156     5788989.148 5   5275800.496 2
  21390617.014     -107165.814 9 -12195329.124 9
  22355842.272     1919038.229 7 -11368078.296 5
 95  4 19 18 49 30.0010000  0  7 19 27 15 26 31  2  7
  22397672.284    31934034.672 7   5859845.037 4
  20663203.472   -14274553.895 8 -10195799.973 9
  24939848.562    -4524800.377 5  -1204639.706 1
  24526746.906    -4695711.579 6  -4571034.568 2
  24646807.730     5894597.125 5   5358092.340 2
  21389618.165     -112404.708 9 -12199411.367 9
  22340214.721     1836892.458 7 -11432087.946 6
 95  4 19 18 50  0.0010000  0  7 19 27 15 26 31  2  7
  22410786.106    32002954.157 7   5913548.476 4
  20665989.593   -14259905.978 8 -10184386.020 9
  24930535.060    -4573801.939 5  -1242822.675 1
  24512253.470    -4771874.483 6  -4630382.271 2
  24666961.908     6000448.948 5   5440574.239 2
  21388673.549     -117395.442 9 -12203300.245 9
  22324641.852     1755073.467 7 -11495842.946 6
 95  4 19 18 50 30.0010000  0  7 19 27 15 26 31  2  7
  22423952.571    32072133.023 7   5967454.050 4
  20668851.172   -14244858.099 8 -10172660.402 9
  24921260.920    -4622492.289 5  -1280763.187 1
  24497815.255    -4847744.607 6  -4689501.774 2
  24687138.630     6106535.923 5   5523239.329 2
  21387766.887     -122158.344 9 -12207011.597 9
  22309137.905     1673577.444 7 -11559346.293 6
 95  4 19 18 51  0.0010000  0  7 19 27 15 26 31  2  7
  22437170.060    32141583.208 7   6021571.018 4
  20671792.946   -14229394.779 8 -10160611.068 9
  24912057.801    -4670857.677 5  -1318450.438 1
  24483437.659    -4923306.823 6  -4748381.376 2
  24707381.276     6212848.598 5   5606080.299 2
  21386898.718     -126699.644 9 -12210550.257 9
  22293691.039     1592415.408 7 -11622589.398 6
 95  4 19 18 51 30.0010000  0  7 19 27 15 26 31  2  7
  22450433.448    32211303.764 7   6075898.668 4
  20674819.141   -14213494.700 8 -10148221.389 9
  24902918.928    -4718883.907 5  -1355873.497 1
  24469110.667    -4998549.645 6  -4807012.079 2
  24727657.319     6319397.612 5   5689105.499 2
  21386080.225     -131013.614 9 -12213911.789 9
  22278313.544     1511599.829 7 -11685562.507 6
 95  4 19 18 52  0.0010000  0  7 19 27 15 26 31  2  7
  22463751.698    32281278.155 7   6130424.163 4
  20677924.001   -14197191.089 8 -10135517.291 9
  24893835.127    -4766583.983 5  -1393042.225 1
  24454851.848    -5073496.487 6  -4865412.197 2
  24747967.539     6426170.807 5   5772305.356 2
  21385296.088     -135121.261 9 -12217112.543 9
  22262996.338     1431110.167 7 -11748281.687 6
 95  4 19 18 52 30.0010000  0  7 19 27 15 26 31  2  7
  22477116.236    32351498.150 7   6185140.978 4
  20681096.795   -14180520.147 8 -10122526.954 9
  24884829.211    -4813968.662 5  -1429965.325 1
  24440648.971    -5148164.175 6  -4923594.724 2
  24768332.170     6533139.819 5   5855657.746 2
  21384551.253     -139046.957 9 -12220171.528 9
  22247735.103     1350920.631 7 -11810766.988 6
 95  4 19 18 53  0.0010000  0  7 19 27 15 26 31  2  7
  22490524.514    32421982.096 7   6240063.489 4
  20684338.031   -14163475.953 8 -10109245.768 9
  24875865.567    -4861014.867 5  -1466624.553 1
  24426492.591    -5222521.089 6  -4981535.141 2
  24788720.066     6640312.970 5   5939169.234 2
  21383843.923     -142764.326 9 -12223068.167 9
  22232536.016     1271044.089 7 -11873008.402 6
 95  4 19 18 53 30.0010000  0  7 19 27 15 26 31  2  7
  22503992.390    32492753.062 7   6295209.669 4
  20687656.523   -14146038.545 8 -10095658.188 9
  24866998.155    -4907700.169 4  -1503002.729 1
  24412408.132    -5296546.478 6  -5039217.227 2
  24809168.250     6747710.763 5   6022855.775 2
  21383181.322     -146243.600 9 -12225779.278 9
  22217401.233     1191504.546 7 -11934987.209 6
 95  4 19 18 54  0.0010000  0  7 19 27 15 26 31  2  7
  22517515.788    32563836.334 7   6350599.145 4
  20691051.973   -14128207.547 8 -10081763.907 9
  24858171.486    -4954013.789 4  -1539091.215 1
  24398381.202    -5370224.620 6  -5096628.733 2
  24829632.953     6855324.872 5   6106710.812 2
  21382566.807     -149472.854 9 -12228295.576 9
  22202331.086     1112301.208 7 -11996704.046 6
 95  4 19 18 54 30.0010000  0  7 19 27 15 26 31  2  7
  22531108.318    32635238.466 7   6406237.145 4
  20694521.711   -14109972.990 8 -10067555.171 9
  24849428.039    -4999951.600 4  -1574886.803 1
  24384433.808    -5443541.214 6  -5153758.487 2
  24850155.935     6963151.491 5   6190731.540 2
  21381998.580     -152447.323 9 -12230613.337 9
  22187321.317     1033445.339 7 -12058150.125 6
 95  4 19 18 55  0.0010000  0  7 19 27 15 26 31  2  7
  22544755.381    32706955.565 7   6462120.548 4
  20698070.924   -14091317.007 8 -10053018.041 9
  24840766.375    -5045508.435 4  -1610385.530 1
  24370552.548    -5516496.337 6  -5210606.590 2
  24870710.216     7071190.333 5   6274917.618 2
  21381486.895     -155156.025 9 -12232724.021 9
  22172386.526      954956.654 7 -12119310.078 6
 95  4 19 18 55 30.0010000  0  7 19 27 15 26 31  2  7
  22558461.892    32778987.767 7   6518249.500 4
  20701702.160   -14072229.992 8 -10038145.059 9
  24832176.152    -5090685.439 4  -1645588.311 1
  24356734.454    -5589090.565 6  -5267173.436 2
  24891311.084     7179448.568 5   6359274.613 2
  21381018.409     -157607.814 9 -12234634.489 9
  22157521.497      876837.674 7 -12180181.976 6
 95  4 19 18 56  0.0010000  0  7 19 27 15 26 31  2  7
  22572227.552    32851319.708 7   6574612.008 4
  20705415.299   -14052725.424 8 -10022946.704 9
  24823622.324    -5135493.548 3  -1680503.603 1
  24342996.914    -5661326.535 6  -5323461.188 2
  24911953.773     7287924.057 5   6443800.913 2
  21380600.618     -159821.812 9 -12236359.685 9
  22142726.350      799075.809 7 -12240775.597 6
 95  4 19 18 56 30.0010000  0  7 19 27 15 26 31  2  7
  22586039.380    32923908.799 7   6631174.891 4
  20709207.854   -14032799.146 8 -10007419.748 9
  24815192.999    -5179946.402 3  -1715142.126 1
  24329312.857    -5733214.144 6  -5379477.414 2
  24932642.181     7396613.189 6   6528493.770 2
  21380215.325     -161829.554 9 -12237924.169 9
  22127996.197      721667.024 7 -12301094.088 6
 95  4 19 18 57  0.0010000  0  7 19 27 15 26 31  2  7
  22599896.897    32996725.311 7   6687914.999 4
  20713073.108   -14012465.603 8  -9991575.443 9
  24806788.558    -5224058.879 3  -1749515.412 1
  24315693.316    -5804776.587 6  -5435240.326 2
  24953357.540     7505497.333 5   6613338.589 2
  21379872.272     -163649.641 9 -12239342.405 9
  22113328.911      644592.693 7 -12361151.951 6
 95  4 19 18 57 30.0010000  0  7 19 27 15 26 31  2  7
  22613792.997    33069758.359 7   6744823.811 4
  20717024.642   -13991728.211 8  -9975416.445 9
  24798467.158    -5267837.329 4  -1783628.385 2
  24302138.679    -5876014.980 6  -5490750.704 3
  24974110.913     7614572.315 5   6698332.042 1
  21379550.655     -165297.123 9 -12240626.159 9
  22098721.703      567844.674 7 -12420955.556 6
 95  4 19 18 58  0.0010000  0  7 19 27 15 26 31  2  7
  22627729.599    33143000.505 7   6801895.567 4
  20721041.681   -13970590.864 8  -9958945.801 9
  24790187.131    -5311274.877 4  -1817475.752 2
  24288643.132    -5946932.213 6  -5546010.815 3
  24994906.676     7723828.595 5   6783466.781 1
  21379276.315     -166769.390 9 -12241773.375 9
  22084182.938      491424.382 7 -12480503.817 6
 95  4 19 18 58 30.0010000  0  7 19 27 15 26 31  2  7
  22641707.512    33216462.786 7   6859138.870 4
  20725142.362   -13949045.974 8  -9942157.591 9
  24782001.537    -5354357.234 4  -1851046.286 2
  24275204.905    -6017526.621 5  -5601019.390 3
  25015724.834     7833253.618 6   6868732.971 1
  21379036.961     -168040.246 9 -12242763.658 9
  22069700.954      415347.822 7 -12539784.209 6
 95  4 19 18 59  0.0010000  0  7 19 27 15 26 31  2  7
  22655740.377    33290187.433 7   6916586.603 4
  20729320.630   -13927094.105 8  -9925052.237 9
  24773868.738    -5397061.698 4  -1884322.487 2
  24261832.873    -6087783.101 5  -5655764.691 3
  25036586.672     7942858.829 6   6954139.712 2
  21378837.809     -169076.296 9 -12243570.968 9
  22055297.935      339630.403 7 -12598784.745 6
 95  4 19 18 59 30.0010000  0  7 19 27 15 26 31  2  7
  22669825.526    33364203.792 7   6974261.639 4
  20733578.372   -13904718.023 8  -9907616.348 9
  24765814.423    -5439363.326 4  -1917284.685 2
  24248541.784    -6157668.914 6  -5710221.088 3
  25057477.679     8052660.194 5   7039699.142 1
  21378689.801     -169859.276 9 -12244181.076 9
  22040958.082      264287.481 7 -12657493.492 6
 95  4 19 19  0  0.0010000  0  7 19 27 15 26 31  2  7
  22683968.805    33438517.532 7   7032168.433 4
  20737910.523   -13881941.107 8  -9889868.111 9
  24757843.751    -5481266.105 4  -1949936.148 2
  24235316.380    -6227187.708 6  -5764391.553 2
  25078407.989     8162635.675 5   7125394.268 1
  21378586.852     -170397.690 9 -12244600.620 9
  22026688.861      189303.353 7 -12715922.637 6
 95  4 19 19  0 30.0010000  0  7 19 27 15 26 31  2  7
  22698163.438    33513124.734 6   7090303.844 3
  20742321.070   -13858771.943 8  -9871814.235 9
  24749941.732    -5522784.069 5  -1982287.719 2
  24222153.722    -6296348.520 6  -5818283.047 2
  25099363.452     8272767.233 5   7211211.069 2
  21378523.656     -170711.396 9 -12244845.057 9
  22012484.364      114663.517 7 -12774083.520 6
 95  4 19 19  1  0.0010000  0  6 19 27 15 26  2  7
  22712414.493    33588016.736 6   7148661.193 3
  20746804.946   -13835215.997 8  -9853458.973 9
  24742119.307    -5563919.596 5  -2014341.292 2
  24209063.644    -6365148.276 6  -5871893.174 3
  21378504.979     -170829.560 9 -12244937.137 9
  21998343.724       40357.414 7 -12831984.344 6
 95  4 19 19  1 30.0010000  0  6 19 27 15 26  2  7
  22726716.871    33663178.407 6   7207228.696 3
  20751358.254   -13811276.508 8  -9834804.842 9
  24734371.201    -5604671.585 5  -2046096.056 2
  24196031.306    -6433584.441 6  -5925220.036 3
  21378519.039     -170752.919 9 -12244877.423 9
  21984270.206      -33609.007 7 -12889620.494 6
 95  4 19 19  2  0.0010000  0  6 19 27 15 26  2  7
  22741071.504    33738614.653 6   7266010.129 3
  20755992.925   -13786933.250 8  -9815836.075 9
  24726669.173    -5645028.263 5  -2077542.780 2
  24183086.208    -6501659.114 6  -5978265.185 3
  21378573.871     -170464.204 9 -12244652.435 9
  21970262.644     -107216.134 7 -12946976.673 6
 95  4 19 19  2 30.0010000  0  6 19 27 15 26  2  7
  22755479.949    33814321.258 6   7325002.234 3
  20760707.042   -13762155.588 8  -9796528.824 9
  24719074.801    -5684974.144 5  -2108669.373 2
  24170201.158    -6569362.666 6  -6031021.170 3
  21378670.315     -169944.734 9 -12244247.665 9
  21956329.909     -180435.780 7 -13004030.893 6
 95  4 19 19  3  0.0010000  0  6 19 27 15 26  2  7
  22769938.819    33890297.601 6   7384204.527 3
  20765508.727   -13736933.117 8  -9776874.970 9
  24711556.755    -5724499.701 5  -2139468.450 2
  24157389.078    -6636682.397 6  -6083478.077 3
  21378818.922     -169174.271 9 -12243647.301 9
  21942474.911     -253241.840 7 -13060762.882 6
 95  4 19 19  3 30.0010000  0  6 19 27 15 26  2  7
  22784446.016    33966526.948 6   7443603.969 3
  20770391.447   -13711267.372 8  -9756875.723 9
  24704110.540    -5763621.986 5  -2169953.340 2
  24144650.446    -6703633.871 6  -6135648.029 3
  21379009.710     -168157.048 9 -12242854.659 9
  21928696.959     -325642.066 7 -13117178.622 6
 95  4 19 19  4  0.0010000  0  6 19 27 15 26  2  7
  22798997.193    34042996.116 7   7503190.303 3
  20775358.319   -13685166.542 8  -9736537.424 9
  24696737.984    -5802361.282 5  -2200139.758 2
  24131972.433    -6770240.836 6  -6187549.503 3
  21379245.346     -166922.078 9 -12241892.344 9
  21914992.037     -397656.396 7 -13173293.647 7
 95  4 19 19  4 30.0010000  0  6 19 27 15 26  2  7
  22813595.107    34119706.192 6   7562964.335 3
  20780404.395   -13658645.326 8  -9715871.539 9
  24689436.329    -5840719.144 5  -2230028.929 2
  24119364.841    -6836491.304 6  -6239173.209 3
  21379520.286     -165491.573 9 -12240777.662 9
  21901361.583     -469283.398 7 -13229106.867 7
 95  4 19 19  5  0.0010000  0  7 19 27 15 26 12  2  7
  22828244.765    34196691.784 6   7622953.046 3
  20785535.193   -13631691.383 8  -9694868.486 9
  24682221.374    -5878675.206 6  -2259605.028 2
  24106834.626    -6902355.372 6  -6290495.819 3
  25040481.485   -10093632.70015   -174740.413
  21379827.693     -163860.891 9 -12239506.996 9
  21887806.977     -540518.461 7 -13284614.691 7
 95  4 19 19  5 30.0010000  0  7 19 27 15 26 12  2  7
  22842947.277    34273968.274 7   7683168.433 3
  20790743.907   -13604305.682 8  -9673529.002 9
  24675079.148    -5916222.383 5  -2288862.527 2
  24094368.116    -6967832.975 6  -6341517.299 2
  25027737.458   -10160596.804 5   -226920.039
  21380175.632     -162043.315 9 -12238090.697 9
  21874326.269     -611376.374 7 -13339828.611 7
 95  4 19 19  6  0.0010000  0  7 19 27 15 26 12  2  7
  22857710.047    34351539.703 7   7743613.688 3
  20796037.883   -13576501.281 8  -9651863.261 9
  24668006.415    -5953350.499 5  -2317793.559 2
  24081985.129    -7032921.016 6  -6392235.213 2
  25014998.527   -10227557.607 5   -279097.247 1
  21380554.090     -160044.099 9 -12236532.880 9
  21860911.156     -681855.858 7 -13394747.671 7
 95  4 19 19  6 30.0010000  0  7 19 27 15 26 12  2  7
  22872529.837    34429416.127 6   7804296.526 3
  20801413.041   -13548262.487 8  -9629859.021 9
  24661021.310    -5990039.094 5  -2346381.958 2
  24069679.068    -7097588.978 6  -6442625.801 3
  25002255.219   -10294497.316 5   -331258.030 1
  21380970.052     -157854.194 9 -12234826.451 9
  21847575.518     -751941.736 7 -13449360.024 7
 95  4 19 19  7  0.0010000  0  7 19 27 15 26 12  2  7
  22887403.710    34507586.567 7   7865208.513 3
  20806866.326   -13519593.611 8  -9607519.629 9
  24654122.606    -6026295.782 5  -2374633.895 2
  24057451.613    -7161852.106 6  -6492700.929 3
  24989525.072   -10361425.322 4   -383409.666 1
  21381424.928     -155460.641 9 -12232961.341 9
  21834313.329     -821636.961 8 -13503667.971 7
 95  4 19 19  7 30.0010000  0  7 19 27 15 26 12  2  7
  22902330.167    34586001.021 6   7926310.653 3
  20812397.827   -13490525.463 8  -9584869.179 8
  24647305.865    -6062150.228 5  -2402572.364 2
  24045289.752    -7225753.429 6  -6542494.159 3
  24976777.627   -10428374.165 4   -435577.529 1
  21381922.163     -152875.136 9 -12230946.665 9
  21821122.431     -890953.904 8 -13557681.136 7
 95  4 19 19  8  0.0010000  0  7 19 27 15 26 12  2  7
  22917288.821    34664622.538 6   7987574.094 3
  20818002.297   -13461070.038 8  -9561916.890 8
  24640552.201    -6097622.171 5  -2430212.838 2
  24033199.782    -7289308.365 6  -6592017.433 3
  24964030.271   -10495365.862 5   -487778.722 1
  21382446.980     -150110.266 9 -12228792.216 9
  21808000.965     -959900.130 8 -13611405.455 7
 95  4 19 19  8 30.0010000  0  7 19 27 15 26 12  2  7
  22932287.768    34743445.271 6   8048994.350 3
  20823682.644   -13431228.072 8  -9538663.436 8
  24633870.846    -6132720.857 5  -2457562.436 2
  24021166.263    -7352519.599 6  -6641272.916 3
  24951260.762   -10562411.826 4   -540022.323 1
  21383004.294     -147163.448 9 -12226496.005 9
  21794951.329    -1028473.274 8 -13664839.041 7
 95  4 19 19  9  0.0010000  0  7 19 27 15 26 12  2  7
  22947326.107    34822472.820 6   8110574.219 3
  20829432.154   -13401007.799 8  -9515115.181 8
  24627265.729    -6167444.329 5  -2484619.576 2
  24009202.355    -7415397.844 6  -6690268.920 3
  24938511.907   -10629512.808 4   -592308.782 1
  21383603.279     -144019.679 9 -12224046.317 9
  21781973.284    -1096675.083 7 -13717983.295 7
 95  4 19 19  9 30.0010000  0  7 19 27 15 26 12  2  7
  22962401.830    34901696.451 6   8172306.863 3
  20835255.383   -13370409.281 8  -9491272.193 8
  24620734.180    -6201791.966 5  -2511383.890 2
  23997304.402    -7477946.690 6  -6739008.251 3
  24925724.590   -10696670.259 4   -644639.206 1
  21384236.681     -140703.350 9 -12221462.163 9
  21769064.490    -1164518.933 8 -13770848.609 7
 95  4 19 19 10  0.0010000  0  7 19 27 15 26 12  2  7
  22977514.907    34981121.311 6   8234196.291 3
  20841145.075   -13339446.204 8  -9467145.151 8
  24614263.580    -6235768.100 5  -2537858.715 2
  23985458.523    -7540170.093 6  -6787494.008 3
  24912929.178   -10763890.325 4   -697018.498 1
  21384893.826     -137240.524 9 -12218763.852 9
  21756218.144    -1232023.543 8 -13823449.584 7
 95  4 19 19 10 30.0010000  0  7 19 27 15 26 12  2  7
  22992670.915    35060750.116 6   8296244.663 3
  20847106.179   -13308137.361 8  -9442748.655 8
  24607861.122    -6269374.871 5  -2564045.813 2
  23973683.184    -7602077.185 6  -6835733.276 3
  24900144.019   -10831177.849 5   -749450.271 1
  21385582.989     -133631.304 9 -12215951.468 9
  21743435.833    -1299198.009 8 -13875793.283 7
 95  4 19 19 11  0.0010000  0  7 19 27 15 26 12  2  7
  23007861.339    35140573.767 6   8358444.858 3
  20853127.150   -13276477.713 8  -9418078.809 8
  24601547.403    -6302608.653 5  -2589942.225 2
  23961961.209    -7663660.046 6  -6883719.895 3
  24887314.161   -10898531.387 5   -801933.530 1
  21386295.686     -129880.921 9 -12213029.102 9
  21730713.060    -1366053.328 8 -13927888.318 7
 95  4 19 19 11 30.0010000  0  7 19 27 15 26 12  2  7
  23023104.077    35220695.101 6   8420876.983 3
  20859242.587   -13244348.328 8  -9393042.947 8
  24595307.583    -6335364.301 5  -2615465.973 2
  23950322.936    -7724808.272 6  -6931367.844 3
  24874499.143   -10965847.915 4   -854387.833 1
  21387054.340     -125896.841 9 -12209924.623 9
  21718070.213    -1432489.917 8 -13979657.063 7
 95  4 19 19 12  0.0010000  0  7 19 27 15 26 12  2  7
  23038419.814    35301170.847 6   8483585.285 3
  20865459.353   -13211699.967 8  -9367602.698 8
  24589179.915    -6367585.456 5  -2640573.282 2
  23938786.593    -7785450.001 6  -6978621.115 3
  24861701.482   -11033073.309 5   -906771.204 1
  21387866.208     -121612.465 9 -12206586.148 9
  21705516.673    -1498455.489 8 -14031058.784 7
 95  4 19 19 12 30.0010000  0  7 19 27 15 26 12  2  7
  23053781.059    35381897.810 6   8546489.330 3
  20871751.967   -13178607.654 8  -9341816.505 8
  24583137.538    -6399361.936 5  -2665334.231 2
  23927326.487    -7845662.478 6  -7025539.889 3
  24848916.773   -11100299.570 4   -959155.297 1
  21388722.775     -117118.490 9 -12203084.346 9
  21693038.382    -1564039.995 8 -14082163.561 7
 95  4 19 19 13  0.0010000  0  7 19 27 15 26 12  2  7
  23069191.381    35462876.810 6   8609589.808 3
  20878138.775   -13145054.089 8  -9315670.884 8
  24577173.857    -6430686.688 5  -2689743.027 1
  23915948.703    -7905442.876 6  -7072122.003 3
  24836125.438   -11167521.758 4  -1011536.138 1
  21389614.658     -112423.683 9 -12199426.063 9
  21680628.923    -1629244.710 8 -14132972.404 7
 95  4 19 19 13 30.0010000  0  7 19 27 15 26 12  2  7
  23084646.162    35544096.858 6   8672878.067 3
  20884605.868   -13111067.228 8  -9289187.642 8
  24571293.607    -6461576.345 5  -2713812.796 1
  23904646.618    -7964824.983 6  -7118393.737 3
  24823327.118   -11234758.646 4  -1063928.428 1
  21390548.002     -107543.885 9 -12195623.630 9
  21668291.174    -1694072.358 8 -14183487.433 7
 95  4 19 19 14  0.0010000  0  7 19 27 15 26 12  2  7
  23100143.573    35625530.201 6   8736332.586 3
  20891148.539   -13076689.580 8  -9262399.882 8
  24565493.433    -6492053.479 5  -2737561.164 1
  23893422.568    -8023831.220 6  -7164372.620 3
  24810528.918   -11302034.468 5  -1116351.145 1
  21391508.117     -102493.307 9 -12191688.101 9
  21656028.643    -1758519.128 8 -14233705.668 7
 95  4 19 19 14 30.0010000  0  7 19 27 15 26 12  2  7
  23115685.354    35707181.551 6   8799956.947 3
  20897763.849   -13041919.118 8  -9235306.035 8
  24559772.583    -6522116.640 5  -2760986.923 1
  23882267.081    -8082475.190 6  -7210069.189 3
  24797718.247   -11369350.242 4  -1168804.927 1
  21392502.289      -97274.290 9 -12187621.350 9
  21643840.821    -1822570.442 8 -14283615.754 7
 95  4 19 19 15  0.0010000  0  7 19 27 15 26 12  2  7
  23131267.996    35789094.653 6   8863785.257 3
  20904456.986   -13006748.061 8  -9207900.063 8
  24554141.611    -6551734.946 5  -2784066.054 1
  23871169.783    -8140737.859 6  -7255468.654 3
  24784909.164   -11436677.455 5  -1221267.610 1
  21393534.025      -91846.792 9 -12183392.128 9
  21631735.111    -1886188.947 8 -14333188.577 7
 95  4 19 19 15 30.0010000  0  7 19 27 15 26 12  2  7
  23146912.666    35871289.432 6   8927833.070 3
  20911230.856   -12971159.772 8  -9180168.947 8
  24548590.175    -6580884.752 5  -2806780.206 1
  23860168.029    -8198579.708 6  -7300540.209 3
  24772097.144   -11503994.308 5  -1273722.269 1
  21394610.849      -86184.872 9 -12178980.245 9
  21619717.571    -1949339.259 8 -14382396.585 7
 95  4 19 19 16  0.0010000  0  7 19 27 15 26 12  2  7
  23162603.713    35953772.941 6   8992105.898 3
  20918087.619   -12935128.943 8  -9152092.997 8
  24543148.312    -6609544.871 5  -2829112.681 1
  23849245.301    -8255971.734 6  -7345261.240 3
  24759298.284   -11571281.530 5  -1326153.793 2
  21395731.503      -80279.091 9 -12174378.339 9
  21607791.677    -2012014.489 8 -14431234.408 7
 95  4 19 19 16 30.0010000  0  7 19 27 15 26 12  2  7
  23178358.946    36036556.828 6   9056612.742 3
  20925030.423   -12898618.249 8  -9123643.133 8
  24537778.969    -6637696.765 5  -2851049.142 1
  23838414.189    -8312896.493 6  -7389618.165 3
  24746496.847   -11638522.172 5  -1378549.056 2
  21396904.112      -74124.536 9 -12169582.592 9
  21595953.982    -2074218.456 8 -14479704.996 7
 95  4 19 19 17  0.0010000  0  7 19 27 15 26 12  2  7
  23194173.418    36119641.259 6   9121353.785 3
  20932073.477   -12861613.189 8  -9094808.054 8
  24532521.809    -6665324.853 5  -2872577.503 1
  23827677.452    -8369328.573 6  -7433591.219 3
  24733720.681   -11705702.697 5  -1430897.430 2
  21398126.395      -67714.344 9 -12164587.635 9
  21584210.332    -2135940.703 8 -14527800.231 7
 95  4 19 19 17 30.0010000  0  7 19 27 15 26 12  2  7
  23210037.745    36203009.164 6   9186315.737 3
  20939214.204   -12824101.708 8  -9065578.336 8
  24527364.119    -6692428.235 5  -2893697.044 1
  23817035.659    -8425251.350 6  -7477167.368 3
  24720946.165   -11772824.177 5  -1483199.807 2
  21399391.160      -61067.964 9 -12159408.630 9
  21572552.453    -2197182.641 8 -14575521.189 7
 95  4 19 19 18  0.0010000  0  7 19 27 15 26 12  2  7
  23225953.217    36286650.408 6   9251490.635 3
  20946445.408   -12786099.177 8  -9035965.984 8
  24522308.089    -6719019.950 5  -2914417.758 1
  23806493.218    -8480680.271 7  -7520358.711 3
  24708174.946   -11839901.318 5  -1535467.643 2
  21400695.857      -54206.853 9 -12154062.319 9
  21560987.059    -2257956.749 8 -14622877.609 7
 95  4 19 19 18 30.0010000  0  7 19 27 15 26 12  2  7
  23241917.675    36370561.436 6   9316875.784 3
  20953770.027   -12747625.103 8  -9005986.193 8
  24517342.027    -6745113.098 5  -2934750.044 1
  23796032.140    -8535617.134 6  -7563166.627 3
  24695419.017   -11906949.606 5  -1587712.969 2
  21402036.468      -47142.204 9 -12148557.401 9
  21549511.334    -2318273.367 8 -14669877.551 7
 95  4 19 19 19  0.0010000  0  7 19 27 15 26 12  2  7
  23257937.475    36454728.229 6   9382460.219 3
  20961169.534   -12708713.049 8  -8975665.160 8
  24512462.875    -6770721.970 5  -2954704.987 1
  23785671.852    -8590074.176 6  -7605600.702 3
  24682666.625   -11973984.895 5  -1639948.206 2
  21403421.779      -39893.457 9 -12142909.032 9
  21538120.390    -2378140.882 8 -14716527.534 8
 95  4 19 19 19 30.0010000  0  7 19 27 15 26 12  2  7
  23274000.025    36539153.770 6   9448246.288 3
  20968659.879   -12669372.679 8  -8945010.329 8
  24507686.851    -6795853.728 5  -2974288.173 1
  23775398.444    -8644066.011 6  -7647672.240 3
  24669913.454   -12041015.913 5  -1692180.136 2
  21404835.121      -32460.857 9 -12137117.405 9
  21526810.989    -2437568.862 8 -14762835.026 8
 95  4 19 19 20  0.0010000  0  7 19 27 15 26 12  2  7
  23290113.000    36623827.459 6   9514225.711 3
  20976222.533   -12629618.474 8  -8914033.066 8
  24502990.842    -6820522.280 5  -2993510.437 1
  23765206.850    -8697634.771 6  -7689414.106 3
  24657154.587   -12108058.501 5  -1744421.023 2
  21406283.268      -24841.281 9 -12131180.082 9
  21515577.166    -2496585.337 8 -14808821.868 8
 95  4 19 19 20 30.0010000  0  7 19 27 15 26 12  2  7
  23306271.934    36708751.916 6   9580400.521 3
  20983864.543   -12589449.810 8  -8882732.833 8
  24498386.930    -6844721.241 5  -3012366.685 1
  23755087.145    -8750789.415 6  -7730833.294 3
  24644381.690   -12175108.116 5  -1796667.418 2
  21407768.710      -17029.791 9 -12125093.201 9
  21504425.906    -2555189.950 8 -14854487.769 8
 95  4 19 19 21  0.0010000  0  7 19 27 15 26 12  2  7
  23322484.770    36793929.242 6   9646772.389 3
  20991591.424   -12548855.264 8  -8851100.735 8
  24493866.389    -6868439.977 4  -3030848.771 1
  23745048.055    -8803536.779 6  -7771935.114 3
  24631630.287   -12242155.999 5  -1848912.478 2
  21409297.712       -9012.914 9 -12118846.294 9
  21493356.579    -2613363.655 8 -14899817.905 8
 95  4 19 19 21 30.0010000  0  7 19 27 15 26 12  2  7
  23338738.498    36879365.388 6   9713345.924 3
  20999398.559   -12507823.462 8  -8819127.950 8
  24489445.710    -6891676.537 5  -3048955.167 1
  23735089.340    -8855885.945 6  -7812726.629 3
  24618871.630   -12309201.579 5  -1901155.743 2
  21410863.498        -776.125 9 -12112428.026 9
  21482367.057    -2671109.725 8 -14944814.826 8
 95  4 19 19 22  0.0010000  0  7 19 27 15 26 12  2  7
  23355042.860    36965037.738 6   9780103.504 2
  21007287.897   -12466370.299 8  -8786826.818 8
  24485106.573    -6914443.024 4  -3066695.307 1
  23725203.833    -8907837.933 6  -7853208.705 3
  24606108.805   -12376258.673 5  -1953407.952 2
  21412467.867        7658.056 9 -12105855.938 9
  21471461.357    -2728437.058 8 -14989485.443 8
 95  4 19 19 22 30.0010000  0  7 19 27 15 26 12  2  7
  23371389.943    37050945.912 6   9847044.919 2
  21015256.441   -12424500.533 8  -8754201.040 8
  24480876.832    -6936737.846 4  -3084067.858 1
  23715397.172    -8959360.714 6  -7893356.336 3
  24593352.426   -12443327.276 5  -2005669.157 2
  21414112.918       16280.601 9 -12099137.069 9
  21460632.523    -2785326.662 8 -15033814.986 8
 95  4 19 19 23  0.0010000  0  7 19 27 15 26 12  2  7
  23387779.567    37137084.775 6   9914165.997 2
  21023304.609   -12382208.492 8  -8721246.228 8
  24476723.447    -6958567.604 5  -3101078.042 1
  23705676.731    -9010439.752 6  -7933158.137 3
  24580587.833   -12510415.984 5  -2057946.074 2
  21415790.916       25095.307 9 -12092268.474 9
  21449890.959    -2841790.456 8 -15077812.717 8
 95  4 19 19 23 30.0010000  0  7 19 27 15 26 12  2  7
  23404212.721    37223439.494 6   9981455.289 2
  21031427.786   -12339506.887 8  -8687972.278 7
  24472648.818    -6979948.073 4  -3117738.130 1
  23696043.620    -9061074.826 6  -7972614.029 3
  24567806.212   -12577541.821 5  -2110251.795 2
  21417497.065       34073.490 9 -12085272.498 9
  21439220.686    -2897857.573 8 -15121501.362 8
 95  4 19 19 24  0.0010000  0  7 19 27 15 26 12  2  7
  23420688.505    37309996.230 6  10048902.054 2
  21039630.437   -12296409.156 8  -8654389.646 7
  24468674.079    -7000885.659 4  -3134053.063 1
  23686485.307    -9111263.632 6  -8011722.208 3
  24555027.678   -12644712.794 5  -2162592.736 2
  21419231.814       43190.573 9 -12078168.267 9
  21428626.171    -2953532.959 8 -15164884.754 8
 95  4 19 19 24 30.0010000  0  7 19 27 15 26 12  2  7
  23437198.855    37396753.755 6  10116505.221 2
  21047907.167   -12252905.317 8  -8620490.584 7
  24464764.036    -7021381.028 5  -3150023.467 2
  23677021.939    -9161023.169 7  -8050495.829 3
  24542233.975   -12711931.180 5  -2214970.711 2
  21420987.609       52441.173 9 -12070960.020 9
  21418104.265    -3008821.681 8 -15207966.850 8
 95  4 19 19 25  0.0010000  0  7 19 27 15 26 12  2  7
  23453750.546    37483714.745 6  10184266.964 2
  21056265.441   -12208987.018 8  -8586268.557 7
  24460952.565    -7041425.432 5  -3165642.472 1
  23667628.871    -9210372.009 7  -8088949.467 3
  24529437.814   -12779189.760 5  -2267379.930 2
  21422775.541       61827.586 9 -12063645.938 9
  21407657.397    -3063714.377 8 -15250740.363 8
 95  4 19 19 25 30.0010000  0  7 19 27 15 26 12  2  7
  23470328.230    37570869.315 6  10252179.529 2
  21064700.671   -12164661.727 8  -8551729.399 7
  24457226.594    -7061005.223 4  -3180899.449 1
  23658316.748    -9259318.681 7  -8127089.732 3
  24516633.498   -12846476.423 5  -2319811.025 2
  21424591.744       71352.783 9 -12056223.707 9
  21397290.214    -3118193.536 8 -15293191.632 9
 95  4 19 19 26  0.0010000  0  7 19 27 15 26 12  2  7
  23486954.959    37658206.001 6  10320233.995 2
  21073208.751   -12119952.875 8  -8516891.346 7
  24453592.210    -7080122.073 5  -3195795.625 2
  23649083.980    -9307869.184 7  -8164921.264 3
  24503819.499   -12913794.046 5  -2372266.255 2
  21426430.970       81023.579 9 -12048688.043 9
  21387003.346    -3172252.195 8 -15335315.240 9
 95  4 19 19 26 30.0010000  0  7 19 27 15 26 12  2  7
  23503602.585    37745711.252 6  10388419.830 2
  21081787.102   -12074870.468 8  -8481762.225 7
  24450041.319    -7098777.770 4  -3210332.485 2
  23639910.960    -9356021.305 6  -8202442.401 3
  24491007.298   -12981146.159 5  -2424748.394 2
  21428299.427       90850.020 9 -12041031.067 9
  21376799.640    -3225882.323 8 -15377104.925 9
 95  4 19 19 27  0.0010000  0  7 19 27 15 26 12  2  7
  23520286.125    37833388.715 6  10456739.864 2
  21090435.186   -12029430.364 8  -8446354.381 7
  24446571.880    -7116967.646 4  -3224506.445 2
  23630835.223    -9403753.294 7  -8239636.154 3
  24478187.214   -13048529.188 5  -2477254.584 2
  21430202.060      100845.679 9 -12033242.251 9
  21366676.937    -3279080.397 8 -15418557.956 9
 95  4 19 19 27 30.0010000  0  7 19 27 15 26 12  2  7
  23537005.580    37921239.661 6  10525195.070 2
  21099148.503   -11983637.087 8  -8410671.317 7
  24443209.198    -7134702.028 5  -3238325.432 2
  23621828.948    -9451055.362 6  -8276494.894 3
  24465359.334   -13115954.578 5  -2529793.771 2
  21432134.102      110994.882 9 -12025333.780 9
  21356630.952    -3331866.601 8 -15459690.038 9
 95  4 19 19 28  0.0010000  0  7 19 27 15 26 12  2  7
  23553758.672    38009278.041 6  10593796.317 2
  21107931.403   -11937481.228 8  -8374705.755 7
  24439902.907    -7151990.440 4  -3251796.813 2
  23612910.542    -9497927.305 7  -8313018.462 3
  24452508.491   -13183433.557 5  -2582374.763 2
  21434092.676      121279.004 9 -12017320.189 9
  21346663.662    -3384238.848 8 -15500499.555 9
 95  4 19 19 28 30.0010000  0  7 19 27 15 26 12  2  7
  23570546.001    38097513.752 6  10662551.340 2
  21116793.538   -11890927.468 8  -8338430.145 7
  24436706.820    -7168832.497 4  -3264920.484 2
  23604067.594    -9544380.169 7  -8349215.504 3
  24439658.486   -13250967.260 5  -2634998.388 2
  21436070.467      131686.084 9 -12009210.778 9
  21336777.526    -3436200.437 8 -15540989.078 9
 95  4 19 19 29  0.0010000  0  7 19 27 15 26 12  2  7
  23587380.996    38185976.766 6  10731483.470 2
  21125730.261   -11843955.164 8  -8301828.367 7
  24433590.417    -7185217.887 5  -3277688.320 2
  23595312.425    -9590417.964 7  -8385089.089 3
  24426798.619   -13318546.267 5  -2687657.275 2
  21438074.580      142213.389 9 -12001007.685 9
  21326965.409    -3487752.559 8 -15581159.543 9
 95  4 19 19 29 30.0010000  0  7 19 27 15 26 12  2  7
  23604264.288    38274680.484 6  10800603.143 2
  21134753.265   -11796537.484 8  -8264879.562 7
  24430552.620    -7201125.239 4  -3290083.625 2
  23586628.637    -9636039.448 7  -8420638.286 3
  24413930.088   -13386150.445 5  -2740335.776 2
  21440103.095      152876.196 9 -11992699.012 9
  21317240.382    -3538864.919 8 -15620987.323 9
 95  4 19 19 30  0.0010000  0  7 19 27 15 26 12  2  7
  23621180.437    38363592.546 6  10869885.155 2
  21143853.735   -11748700.166 8  -8227603.758 7
  24427622.149    -7216565.464 4  -3302114.857 2
  23578024.893    -9681268.698 7  -8455881.843 3
  24401064.285   -13453792.284 5  -2793043.598 2
  21442160.571      163674.057 9 -11984285.101 9
  21307592.551    -3589552.093 8 -15660483.802 9
 95  4 19 19 30 30.0010000  0  7 19 27 15 26 12  2  7
  23638137.628    38452695.938 6  10939316.278 2
  21153037.367   -11700465.758 8  -8190018.534 7
  24424770.433    -7231542.644 5  -3313785.360 2
  23569489.112    -9726105.242 6  -8490819.409 3
  24388175.847   -13521476.556 5  -2845784.575 2
  21444238.972      174612.897 9 -11975761.333 9
  21298026.173    -3639837.694 8 -15699667.367 9
 95  4 19 19 31  0.0010000  0  7 19 27 15 26 12  2  7
  23655129.385    38541970.594 6  11008880.847 2
  21162282.637   -11651868.305 8  -8152150.420 7
  24422018.548    -7246059.607 5  -3325097.325 2
  23561030.738    -9770543.954 6  -8525446.961 3
  24375291.517   -13589207.392 5  -2898561.791 2
  21446349.661      185695.396 9 -11967125.622 9
  21288533.185    -3689725.303 8 -15738540.802 9
 95  4 19 19 31 30.0010000  0  7 19 27 15 26 12  2  7
  23672147.553    38631406.653 6  11078571.192 3
  21171602.165   -11602902.661 8  -8113995.411 7
  24419327.311    -7260109.388 4  -3336045.161 2
  23552659.303    -9814558.993 6  -8559744.397 3
  24362398.642   -13656978.908 5  -2951370.714 2
  21448487.031      196933.089 9 -11958368.975 9
  21279115.145    -3739208.464 8 -15777099.093 9
 95  4 19 19 32  0.0010000  0  7 19 27 15 26 12  2  7
  23689200.768    38721029.274 6  11148406.882 3
  21180992.894   -11553539.681 8  -8075530.770 7
  24416757.550    -7273669.255 5  -3346611.312 2
  23544370.581    -9858098.754 6  -8593671.491 3
  24349497.074   -13724769.352 5  -3004194.356 2
  21450661.996      208350.941 9 -11949471.964 9
  21269777.539    -3788277.669 8 -15815334.806 9
 95  4 19 19 32 30.0010000  0  7 19 27 15 26 12  2  7
  23706298.951    38810880.641 6  11218420.841 3
  21190469.843   -11503745.188 8  -8036729.889 7
  24414279.706    -7286694.466 5  -3356760.788 2
  23536188.196    -9901114.643 7  -8627190.334 3
  24336607.947   -13792535.333 6  -3056998.954 2
  21452871.916      219986.343 9 -11940405.422 9
  21260528.972    -3836883.131 8 -15853209.182 9
 95  4 19 19 33  0.0010000  0  7 19 27 15 26 12  2  7
  23723444.741    38900989.936 6  11288635.798 3
  21200037.030   -11453480.241 8  -7997562.430 7
  24411916.712    -7299153.065 5  -3366468.795 2
  23528104.112    -9943571.136 6  -8660273.332 3
  24323707.847   -13860245.861 5  -3109760.325 2
  21455134.390      231863.027 9 -11931150.869 9
  21251373.400    -3884988.456 8 -15890693.825 9
 95  4 19 19 33 30.0010000  0  7 19 27 15 26 12  2  7
  23740643.235    38991368.338 6  11359060.421 3
  21209693.015   -11402730.127 8  -7958016.900 7
  24409649.771    -7311034.539 5  -3375727.039 2
  23520136.558    -9985448.759 7  -8692905.239 3
  24310838.417   -13927891.376 5  -3162471.083 2
  21457439.164      243985.640 9 -11921704.676 9
  21242320.058    -3932581.304 8 -15927779.143 9
 95  4 19 19 34  0.0010000  0  7 19 27 15 26 12  2  7
  23757897.220    39082008.351 6  11429688.902 3
  21219438.728   -11351514.970 8  -7918109.003 7
  24407499.570    -7322347.829 5  -3384542.565 2
  23512271.773   -10026777.235 7  -8725109.225 3
  24297977.830   -13995482.069 5  -3215139.103 2
  21459791.246      256328.003 9 -11912087.276 9
  21233360.131    -3979662.779 8 -15964465.986 9
 95  4 19 19 34 30.0010000  0  7 19 27 15 26 12  2  7
  23775193.566    39172907.161 6  11500519.066 3
  21229272.610   -11299842.384 8  -7877844.704 7
  24405451.537    -7333095.500 5  -3392917.418 2
  23504509.577   -10067582.645 7  -8756905.666 3
  24285131.633   -14063020.610 6  -3267766.462 2
  21462174.955      268873.458 9 -11902311.614 9
  21224498.026    -4026222.911 8 -16000746.596 9
 95  4 19 19 35  0.0010000  0  7 19 27 15 26 12  2  7
  23792543.215    39264081.918 6  11571564.226 2
  21239198.619   -11247675.612 8  -7837195.321 7
  24403508.493    -7343268.967 5  -3400844.791 2
  23496840.826   -10107858.757 7  -8788289.640 3
  24272292.751   -14130499.844 5  -3320347.611 2
  21464604.533      281630.698 9 -11892370.914 9
  21215737.431    -4072259.410 8 -16036619.176 9
 95  4 19 19 35 30.0010000  0  7 19 27 15 26 12  2  7
  23809945.778    39355549.562 6  11642837.634 2
  21249223.589   -11194990.641 8  -7796142.110 6
  24401687.553    -7352847.979 5  -3408308.916 2
  23489284.617   -10147601.343 7  -8819257.863 3
  24259459.596   -14197900.273 6  -3372867.434 2
  21467076.202      294626.004 9 -11882244.698 9
  21207080.444    -4117746.236 8 -16072063.435 9
 95  4 19 19 36  0.0010000  0  7 19 27 15 26 12  2  7
  23827408.658    39447328.293 6  11714353.431 3
  21259350.068   -11141772.125 8  -7754673.158 6
  24399983.653    -7361817.708 5  -3415298.365 2
  23481824.821   -10186800.899 7  -8849802.999 3
  24246648.954   -14265207.849 5  -3425314.798 2
  21469600.875      307882.291 9 -11871915.144 9
  21198533.720    -4162675.678 8 -16107073.364 9
 95  4 19 19 36 30.0010000  0  7 19 27 15 26 12  2  7
  23844932.547    39539406.198 6  11786102.391 2
  21269578.657   -11088016.712 8  -7712785.875 6
  24398387.977    -7370183.100 5  -3421816.818 2
  23474469.143   -10225445.473 6  -8879915.672 3
  24233867.183   -14332428.438 6  -3477694.394 2
  21472173.514      321416.990 9 -11861368.639 9
  21190087.098    -4207058.610 8 -16141657.452 9
 95  4 19 19 37  0.0010000  0  7 19 27 15 26 12  2  7
  23862509.858    39631767.786 6  11858072.353 2
  21279909.056   -11033740.974 8  -7670493.118 6
  24396916.176    -7377960.776 5  -3427877.320 2
  23467216.144   -10263546.069 6  -8909604.412 3
  24221089.848   -14399579.448 6  -3530019.803 2
  21474803.473      335220.751 9 -11850612.466 9
  21181741.865    -4250907.680 8 -16175825.541 9
 95  4 19 19 37 30.0010000  0  7 19 27 15 26 12  2  7
  23880134.147    39724387.648 6  11930243.558 2
  21290328.432   -10978993.966 8  -7627833.139 6
  24395532.125    -7385174.171 4  -3433498.164 2
  23460068.792   -10301124.150 7  -8938886.040 3
  24208314.553   -14466685.150 6  -3582309.905 2
  21477472.016      349257.320 9 -11839674.888 9
  21173499.731    -4294235.495 8 -16209587.462 9
 95  4 19 19 38  0.0010000  0  7 19 27 15 26 12  2  7
  23897807.212    39817244.542 6  12002599.483 2
  21300828.933   -10923810.296 8  -7584832.909 6
  24394263.883    -7391848.422 4  -3438698.892 2
  23453014.766   -10338197.502 6  -8967774.378 3
  24195549.660   -14533771.431 6  -3634584.863 2
  21480183.159      363491.670 9 -11828583.206 9
  21165347.055    -4337058.890 8 -16242956.323 9
 95  4 19 19 38 30.0010000  0  7 19 27 15 26 12  2  7
  23915525.426    39910340.994 5  12075142.049 2
  21311412.416   -10868189.866 8  -7541492.328 6
  24393093.643    -7397984.141 5  -3443479.930 2
  23446053.345   -10374768.723 6  -8996271.419 3
  24182790.433   -14600839.698 6  -3686845.794 2
  21482924.611      377907.135 9 -11817350.389 9
  21157295.229    -4379371.765 8 -16275927.380 9
 95  4 19 19 39  0.0010000  0  7 19 27 15 26 12  2  7
  23933284.412    40003670.930 5  12147866.592 2
  21322076.154   -10812142.721 8  -7497819.264 6
  24392043.020    -7403582.060 5  -3447841.921 2
  23439187.648   -10410843.175 7  -9024381.380 3
  24170021.822   -14667890.821 6  -3739093.357 2
  21485700.209      392490.297 9 -11805986.898 9
  21149343.234    -4421182.769 8 -16308507.374 9
 95  4 19 19 39 30.0010000  0  7 19 27 15 26 12  2  7
  23951083.450    40097218.855 5  12220760.953 2
  21332820.596   -10755670.811 8  -7453815.215 6
  24391083.774    -7408638.099 5  -3451781.675 2
  23432418.394   -10446415.189 7  -9052099.861 3
  24157268.531   -14734921.615 6  -3791325.098 2
  21488508.845      407246.720 9 -11794488.403 9
  21141475.751    -4462509.510 8 -16340710.011 9
 95  4 19 19 40  0.0010000  0  7 19 27 15 26 12  2  7
  23968921.461    40190955.562 5  12293802.452 2
  21343649.399   -10698785.866 8  -7409489.320 6
  24390213.656    -7413167.373 4  -3455310.953 2
  23425748.402   -10481494.427 7  -9079434.301 3
  24144518.658   -14801947.603 6  -3843553.066 2
  21491344.222      422166.427 9 -11782862.670 9
  21133697.246    -4503385.818 8 -16372561.658 9
 95  4 19 19 40 30.0010000  0  7 19 27 15 26 12  2  7
  23986787.083    40284841.946 5  12366960.577 2
  21354549.253   -10641517.919 8  -7364864.994 6
  24389439.442    -7417196.625 5  -3458450.576 2
  23419153.777   -10516110.611 7  -9106407.967 3
  24131760.330   -14868996.214 6  -3895798.686 2
  21494213.146      437219.784 9 -11771132.790 9
  21125994.348    -4543863.326 8 -16404102.557 9
 95  4 19 19 41  0.0010000  0  7 19 27 15 26 12  2  7
  24004680.495    40378877.046 5  12440234.596 2
  21365517.880   -10583861.470 8  -7319937.931 6
  24388775.252    -7420717.645 5  -3461194.215 2
  23412658.894   -10550262.633 7  -9133019.946 3
  24119002.122   -14936059.641 6  -3948055.846 2
  21497109.051      452427.311 9 -11759282.783 9
  21118366.279    -4583946.255 8 -16435335.986 9
 95  4 19 19 41 30.0010000  0  7 19 27 15 26 12  2  7
  24022610.723    40473098.029 5  12513653.392 2
  21376567.780   -10525795.114 8  -7274691.444 6
  24388209.634    -7423709.021 4  -3463525.169 2
  23406251.160   -10583937.774 7  -9159260.296 3
  24106231.263   -15003117.130 6  -4000308.400 2
  21500035.625      467803.206 9 -11747301.568 9
  21110819.754    -4623605.632 8 -16466239.393 9
 95  4 19 19 42  0.0010000  0  7 19 27 15 26 12  2  7
  24040569.400    40567515.993 5  12587225.750 2
  21387696.466   -10467318.566 8  -7229125.320 6
  24387734.733    -7426179.157 5  -3465449.918 2
  23399931.744   -10617137.084 7  -9185129.899 3
  24093476.054   -15070177.182 6  -4052562.930 2
  21502985.883      483334.241 9 -11735199.470 9
  21103355.521    -4662826.301 8 -16496800.925 9
 95  4 19 19 42 30.0010000  0  7 19 27 15 26 12  2  7
  24058583.509    40662131.747 5  12660952.197 2
  21398898.691   -10408448.123 8  -7183252.268 6
  24387361.221    -7428145.077 5  -3466981.770 2
  23393699.239   -10649882.777 7  -9210646.041 3
  24080709.302   -15137257.468 6  -4104833.196 2
  21505971.546      499006.196 9 -11722987.581 9
  21095977.359    -4701606.184 8 -16527019.005 9
 95  4 19 19 43  0.0010000  0  7 19 27 15 26 12  2  7
  24076620.522    40756936.976 5  12734826.315 2
  21410170.617   -10349197.142 8  -7137082.716 6
  24387092.997    -7429619.152 5  -3468130.320 2
  23387561.468   -10682180.848 7  -9235813.330 3
  24067944.649   -15204370.591 6  -4157129.075 2
  21508976.875      514806.666 9 -11710675.526 9
  21088683.648    -4739932.186 8 -16556883.410 9
 95  4 19 19 43 30.0010000  0  7 19 27 15 26 12  2  7
  24094694.950    40851923.932 5  12808841.997 2
  21421524.447   -10289564.416 8  -7090615.685 6
  24386892.885    -7430599.427 5  -3468894.156 2
  23381491.630   -10714013.211 7  -9260617.801 3
  24055157.931   -15271515.214 6  -4209449.536 2
  21512002.770      530726.756 9 -11698270.276 9
  21081479.575    -4777784.231 8 -16586378.496 9
 95  4 19 19 44  0.0010000  0  7 19 27 15 26 12  2  7
  24112806.192    40947087.633 5  12882995.400 2
  21432942.673   -10229548.943 8  -7043850.399 6
  24386798.511    -7431076.660 5  -3469266.055 2
  23375530.917   -10745365.913 7  -9285048.481 3
  24042378.078   -15338682.390 6  -4261787.542 2
  21515060.923      546787.217 9 -11685755.639 9
  21074372.096    -4815156.056 8 -16615499.385 9
 95  4 19 19 44 30.0010000  0  7 19 27 15 26 12  2  7
  24130946.513    41042425.700 5  12957284.691 2
  21444435.156   -10169156.963 8  -6996791.768 6
  24386808.973    -7431038.308 5  -3469236.083 2
  23369660.021   -10776242.491 7  -9309108.146 3
  24029595.707   -15405859.974 6  -4314133.654 2
  21518147.377      562996.980 9 -11673124.663 9
  21067346.070    -4852059.456 8 -16644255.261 9
 95  4 19 19 45  0.0010000  0  7 19 27 15 26 12  2  7
  24149130.785    41137937.436 5  13031709.290 2
  21456003.098   -10108365.445 8  -6949421.770 6
  24386921.336    -7430467.600 5  -3468791.351 2
  23363874.956   -10806626.861 7  -9332784.284 3
  24016815.794   -15473030.955 6  -4366474.626 2
  21521263.539      579373.104 9 -11660364.054 9
  21060414.209    -4888488.482 8 -16672641.496 9
 95  4 19 19 45 30.0010000  0  7 19 27 15 26 12  2  7
  24167337.360    41233639.788 5  13106282.408 2
  21467652.224   -10047151.810 8  -6901722.887 6
  24387129.032    -7429346.247 5  -3467917.537 2
  23358188.792   -10836498.447 7  -9356060.864 3
  24004039.479   -15540177.127 6  -4418796.278 2
  21524411.270      595938.671 9 -11647455.839 9
  21053575.313    -4924435.627 8 -16700652.243 9
 95  4 19 19 46  0.0010000  0  7 19 27 15 26 12  2  7
  24185589.535    41329554.078 5  13181020.723 2
  21479383.312    -9985501.721 8  -6853683.886 6
  24387446.902    -7427656.402 5  -3466600.782 2
  23352610.074   -10865844.965 7  -9378928.258 3
  23991272.428   -15607281.184 6  -4471085.100 2
  21527610.325      612711.428 9 -11634386.174 9
  21046828.814    -4959887.922 8 -16728277.386 9
 95  4 19 19 46 30.0010000  0  7 19 27 15 26 12  2  7
  24203880.982    41425692.803 5  13255933.875 2
  21491205.208    -9923380.964 8  -6805278.128 6
  24387893.772    -7425380.383 5  -3464827.203 2
  23347124.742   -10894640.593 7  -9401366.423 3
  23978513.890   -15674325.626 6  -4523327.449 2
  21530840.709      629700.951 9 -11621147.592 9
  21040176.779    -4994826.366 8 -16755502.139 9
 95  4 19 19 47  0.0010000  0  7 19 27 15 26 12  2  7
  24222213.800    41522040.341 5  13331009.792 2
  21503116.382    -9860779.816 8  -6756498.048 6
  24388432.649    -7422524.210 5  -3462601.626 2
  23341750.812   -10922869.623 7  -9423363.080 3
  23965761.109   -15741316.027 6  -4575527.728 2
  21534112.374      646899.306 9 -11607746.282 9
  21033630.181    -5029238.787 8 -16782316.990 9
 95  4 19 19 47 30.0010000  0  7 19 27 15 26 12  2  7
  24240591.618    41618590.377 5  13406243.428 2
  21515118.603    -9797713.532 8  -6707355.532 6
  24389085.897    -7419094.536 5  -3459929.139 2
  23336489.455   -10950537.141 7  -9444922.170 4
  23953023.377   -15808259.773 6  -4627691.633 2
  21537426.970      664296.686 9 -11594189.898 9
  21027182.425    -5063130.415 8 -16808726.047 9
 95  4 19 19 48  0.0010000  0  7 19 27 15 26 12  2  7
  24259001.243    41715339.932 5  13481632.608 2
  21527208.963    -9734181.374 8  -6657849.992 6
  24389845.391    -7415088.682 5  -3456807.726 2
  23331331.645   -10977652.727 7  -9466051.212 3
  23940291.881   -15875154.042 6  -4679816.946 2
  21540773.433      681892.148 9 -11580479.135 9
  21020827.664    -5096510.764 8 -16834736.675 9
 95  4 19 19 48 30.0010000  0  7 19 27 15 26 12  2  7
  24277449.332    41812288.172 5  13557176.548 2
  21539385.004    -9670183.078 8  -6607981.236 6
  24390720.366    -7410508.941 5  -3453239.036 2
  23326273.517   -11004218.051 7  -9486751.484 3
  23927573.186   -15942001.230 6  -4731905.618 2
  21544157.340      699686.360 9 -11566613.538 9
  21014569.616    -5129399.850 8 -16860364.541 9
 95  4 19 19 49  0.0010000  0  7 19 27 15 26 12  2  7
  24295936.453    41909447.568 5  13632885.087 2
  21551649.543    -9605737.773 8  -6557764.152 6
  24391701.706    -7405354.760 5  -3449222.794 2
  23321315.909   -11030243.015 7  -9507030.660 4
  23914861.686   -16008800.420 6  -4783956.895 2
  21547584.688      717688.674 9 -11552585.788 9
  21008407.262    -5161796.747 8 -16885608.863 9
 95  4 19 19 49 30.0010000  0  7 19 27 15 26 12  2  7
  24314465.036    42006835.235 5  13708771.442 2
  21563998.445    -9540849.954 8  -6507202.255 6
  24392788.574    -7399618.264 5  -3444752.806 2
  23316470.244   -11055740.092 7  -9526898.539 4
  23902160.199   -16075543.803 6  -4835964.671 2
  21551053.406      735908.046 9 -11538388.877 9
  21002334.576    -5193694.816 8 -16910464.486 9
 95  4 19 19 50  0.0010000  0  7 19 27 15 26 12  2  7
  24333046.233    42104465.103 5  13784846.544 2
  21576426.401    -9475520.800 8  -6456296.472 6
  24394001.684    -7393293.725 5  -3439824.604 2
  23311719.372   -11080698.045 7  -9546346.307 4
  23889468.665   -16142225.345 6  -4887924.263 2
  21554557.800      754338.983 9 -11524027.123 9
  20996364.060    -5225080.183 8 -16934920.606 9
 95  4 19 19 50 30.0010000  0  7 19 27 15 26 12  2  7
  24351673.207    42202345.211 5  13861116.559 2
  21588943.965    -9409751.740 7  -6405047.886 6
  24395313.366    -7386377.672 5  -3434435.451 2
  23307074.448   -11105100.274 7  -9565361.016 4
  23876790.982   -16208841.928 6  -4939833.242 2
  21558105.484      772977.826 9 -11509503.344 9
  20990492.265    -5255934.092 8 -16958962.598 9
 95  4 19 19 51  0.0010000  0  7 19 27 15 26 12  2  7
  24370353.935    42300482.046 5  13937586.763 2
  21601542.263    -9343541.541 7  -6353455.579 6
  24396744.066    -7378860.238 5  -3428577.742 2
  23302536.610   -11128953.214 7  -9583947.750 4
  23864131.585   -16275383.186 6  -4991683.522 2
  21561690.282      791823.117 9 -11494818.722 9
  20984728.425    -5286225.622 8 -16982566.378 9
 95  4 19 19 51 30.0010000  0  7 19 27 15 26 12  2  7
  24389072.466    42398846.385 5  14014234.164 2
  21614225.253    -9276895.510 7  -6301523.640 6
  24398284.309    -7370755.401 5  -3422262.280 2
  23298100.820   -11152267.463 7  -9602114.696 4
  23851481.813   -16341862.989 6  -5043485.929 2
  21565307.908      810844.047 9 -11479997.228 9
  20979065.645    -5315974.481 8 -17005747.299 9
 95  4 19 19 52  0.0010000  0  7 19 27 15 26 12  2  7
  24407826.433    42497419.049 5  14091043.862 2
  21626989.277    -9209829.689 7  -6249264.586 6
  24399934.757    -7362080.502 5  -3415502.607 2
  23293769.449   -11175049.306 7  -9619866.771 4
  23838837.436   -16408298.220 6  -5095253.594 2
  21568962.858      830028.532 9 -11465048.284 9
  20973502.486    -5345216.893 8 -17028533.580 9
 95  4 19 19 52 30.0010000  0  7 19 27 15 26 12  2  7
  24426618.654    42596174.986 5  14167996.389 2
  21639829.238    -9142350.097 7  -6196683.135 6
  24401690.012    -7352850.113 5  -3408310.081 2
  23289524.598   -11197330.148 7  -9637228.475 4
  23826200.405   -16474703.476 6  -5146997.890 2
  21572640.981      849373.865 9 -11449974.020 9
  20968028.486    -5373974.019 8 -17050941.723 9
 95  4 19 19 53  0.0020000  0  7 19 27 15 26 12  2  7
  24445444.181    42695100.223 5  14245080.868 2
  21652747.685    -9074461.388 7  -6143782.876 6
  24403549.504    -7343069.046 5  -3400688.524 2
  23285378.498   -11219119.315 7  -9654207.083 4
  23813571.198   -16541085.604 6  -5198724.200 3
  21576356.879      868887.310 9 -11434768.738 9
  20962648.770    -5402254.162 8 -17072978.183 9
 95  4 19 19 53 30.0020000  0  7 19 27 15 26 12  2  7
  24464296.150    42794167.054 6  14322275.675 2
  21665744.767    -9006164.090 7  -6090564.267 6
  24405519.650    -7332750.107 5  -3392647.794 2
  23281327.552   -11240398.410 7  -9670788.170 4
  23800944.389   -16607451.773 6  -5250438.038 3
  21580097.180      888563.010 9 -11419437.032 9
  20957351.947    -5430077.919 8 -17094659.020 9
 95  4 19 19 54  0.0020000  0  7 19 27 15 26 12  2  7
  24483172.073    42893378.439 5  14399583.084 2
  21678815.179    -8937467.263 7  -6037034.324 6
  24407576.287    -7321899.836 5  -3384193.021 2
  23277380.545   -11261165.630 7  -9686970.448 4
  23788314.493   -16673811.026 6  -5302146.512 3
  21583875.944      908403.806 9 -11403976.695 9
  20952146.891    -5457448.067 8 -17115986.408 9
 95  4 19 19 54 30.0020000  0  7 19 27 15 26 12  2  7
  24502082.351    42992729.220 5  14476999.145 2
  21691966.924    -8868376.689 7  -5983197.552 6
  24409749.362    -7310520.281 5  -3375325.868 2
  23273521.047   -11281417.501 7  -9702751.132 4
  23775691.821   -16740164.958 6  -5353850.820 3
  21587682.558      928406.752 9 -11388389.985 9
  20947026.675    -5484344.287 8 -17136944.491 9
 95  4 19 19 55  0.0020000  0  7 19 27 15 26 12  2  7
  24521010.498    43092218.196 5  14554522.823 2
  21705182.945    -8798896.380 7  -5929057.108 6
  24412013.275    -7298609.810 5  -3366044.983 2
  23269772.262   -11301136.978 7  -9718116.954 4
  23763061.475   -16806511.471 6  -5405549.373 3
  21591521.551      948573.130 9 -11372675.942 9
  20941999.815    -5510764.280 8 -17157531.484 9
 95  4 19 19 55 30.0020000  0  7 19 27 15 26 12  2  7
  24539973.330    43191869.564 5  14632173.134 2
  21718486.055    -8729017.905 7  -5874606.381 6
  24414386.162    -7286160.327 5  -3356344.091 2
  23266124.537   -11320323.551 7  -9733067.545 4
  23750440.422   -16872841.935 6  -5457235.406 3
  21595385.156      968898.858 9 -11356837.728 8
  20937063.612    -5536706.592 8 -17177746.267 9
 95  4 19 19 56  0.0020000  0  7 19 27 15 26 12  2  7
  24558972.107    43291713.294 5  14709973.295 2
  21731862.675    -8658733.238 7  -5819839.158 6
  24416859.480    -7273151.827 5  -3346207.588 2
  23262570.887   -11338980.796 7  -9747605.687 4
  23737821.498   -16939135.891 6  -5508893.001 3
  21599292.501      989405.932 9 -11340858.205 8
  20932220.345    -5562150.005 8 -17197572.291 9
 95  4 19 19 56 30.0020000  0  7 19 27 15 26 12  2  7
  24578017.413    43391773.504 5  14787942.136 2
  21745316.341    -8588001.874 7  -5764723.836 6
  24419444.680    -7259553.899 5  -3335611.840 2
  23259121.835   -11357097.907 7  -9761722.902 4
  23725216.964   -17005362.240 6  -5560497.925 3
  21603229.525     1010112.104 9 -11324723.532 8
  20927479.967    -5587070.454 8 -17216990.813 9
 95  4 19 19 57  0.0020000  0  7 19 27 15 26 12  2  7
  24597101.541    43492060.869 5  14866087.956 2
  21758866.930    -8516798.366 7  -5709240.634 6
  24422154.234    -7245352.100 5  -3324545.517 2
  23255773.993   -11374678.896 7  -9775422.393 4
  23712631.287   -17071505.921 6  -5612038.425 2
  21607207.262     1031014.814 9 -11308435.724 8
  20922835.013    -5611466.613 8 -17236000.795 9
 95  4 19 19 57 30.0020000  0  7 19 27 15 26 12  2  7
  24616220.355    43592574.554 4  14944410.192 2
  21772508.806    -8445122.530 7  -5653389.373 6
  24424968.986    -7230546.948 5  -3313009.066 1
  23252532.517   -11391727.073 7  -9788706.713 4
  23700062.758   -17137566.791 6  -5663514.383 2
  21611222.892     1052103.910 9 -11292002.682 8
  20918293.607    -5635336.799 8 -17254600.933 9
 95  4 19 19 58  0.0020000  0  7 19 27 15 26 12  2  7
  24635392.443    43693288.015 5  15022888.048 2
  21786234.204    -8372993.781 7  -5597185.206 6
  24427892.022    -7215155.247 5  -3301015.536 2
  23249388.683   -11408244.379 7  -9801577.329 4
  23687496.777   -17203560.997 6  -5714938.394 2
  21615264.514     1073366.430 9 -11275434.495 8
  20913850.772    -5658688.817 8 -17272797.287 9
 95  4 19 19 58 30.0020000  0  7 19 27 15 26 12  2  7
  24654592.891    43794185.990 4  15101509.670 1
  21800041.775    -8300430.563 7  -5540642.516 6
  24430938.034    -7199187.584 5  -3288573.226 2
  23246348.878   -11424231.643 7  -9814034.965 4
  23674955.020   -17269498.603 6  -5766318.290 2
  21619343.130     1094783.191 9 -11258746.116 8
  20909505.401    -5681523.184 8 -17290590.298 9
 95  4 19 19 59  0.0020000  0  7 19 27 15 26 12  2  7
  24673827.245    43895260.771 4  15180269.093 2
  21813930.290    -8227458.634 7  -5483781.327 6
  24434074.612    -7182654.421 5  -3275690.283 2
  23243408.513   -11439671.236 7  -9826065.835 4
  23662420.547   -17335389.396 6  -5817661.751 2
  21623448.968     1116365.802 9 -11241928.518 8
  20905260.969    -5703837.804 8 -17307978.317 9
 95  4 19 19 59 30.0020000  0  7 19 27 15 26 12  2  7
  24693099.583    43996515.288 5  15259168.510 2
  21827890.006    -8154105.138 7  -5426622.813 6
  24437333.086    -7165563.362 5  -3262372.592 1
  23240579.701   -11454547.124 7  -9837657.412 4
  23649883.227   -17401240.063 6  -5868973.916 3
  21627590.571     1138123.867 9 -11224974.184 8
  20901109.443    -5725636.527 8 -17324964.321 9
 95  4 19 20  0  0.0020000  0  7 19 27 15 26 12  2  7
  24712392.966    44097930.509 5  15338193.207 2
  21841915.227    -8080378.784 7  -5369173.770 6
  24440691.661    -7147921.877 5  -3248625.980 1
  23237849.372   -11468862.663 7  -9848812.413 4
  23637356.399   -17467057.339 6  -5920260.069 3
  21631765.271     1160051.251 9 -11207887.934 8
  20897058.917    -5746931.400 8 -17341557.724 9
 95  4 19 20  0 30.0020000  0  7 19 27 15 26 12  2  7
  24731719.657    44199509.881 5  15417345.815 2
  21856018.363    -8006265.402 7  -5311423.128 6
  24444152.675    -7129719.008 5  -3234441.888 1
  23235239.708   -11482610.423 7  -9859524.976 4
  23624841.023   -17532829.582 6  -5971511.162 3
  21635970.309     1182166.614 8 -11190655.204 8
  20893104.565    -5767716.202 8 -17357753.656 9
 95  4 19 20  1  0.0020000  0  7 19 27 15 26 12  2  7
  24751093.594    44301266.244 5  15496636.334 2
  21870199.926    -7931741.646 7  -5253352.714 6
  24447721.015    -7110933.904 4  -3219804.144 2
  23232734.403   -11495770.318 7  -9869779.426 4
  23612340.277   -17598534.843 6  -6022710.020 3
  21640219.538     1204497.718 9 -11173254.353 9
  20889243.747    -5787991.764 8 -17373552.784 9
 95  4 19 20  1 30.0020000  0  7 19 27 15 26 12  2  7
  24770492.415    44403196.872 5  15576062.579 2
  21884461.563    -7856796.527 7  -5194953.959 6
  24451406.004    -7091556.388 5  -3204704.824 2
  23230339.211   -11508360.255 7  -9879589.774 4
  23599856.769   -17664162.078 6  -6073848.078 3
  21644512.086     1227035.299 9 -11155692.623 8
  20885483.241    -5807757.515 8 -17388954.677 9
 95  4 19 20  2  0.0020000  0  7 19 27 15 26 12  2  7
  24789917.317    44505286.302 5  15655612.655 2
  21898805.552    -7781422.104 7  -5136220.690 6
  24455207.972    -7071591.873 4  -3189148.023 2
  23228044.839   -11520408.871 7  -9888978.354 4
  23587382.705   -17729715.440 6  -6124928.591 3
  21648833.385     1249764.266 9 -11137981.763 8
  20881817.559    -5827012.999 8 -17403958.940 9
 95  4 19 20  2 30.0020000  0  7 19 27 15 26 12  2  7
  24809371.030    44607539.242 5  15735290.074 2
  21913229.437    -7705632.185 7  -5077163.662 6
  24459121.103    -7051050.629 5  -3173141.900 2
  23225852.217   -11531943.945 7  -9897966.719 4
  23574917.634   -17795204.536 6  -6175959.020 3
  21653193.986     1272677.515 9 -11120127.287 8
  20878247.660    -5845779.587 8 -17418582.246 9
 95  4 19 20  3  0.0020000  0  7 19 27 15 26 12  2  7
  24828861.347    44709961.364 5  15815099.345 2
  21927728.989    -7629423.833 7  -5017780.582 6
  24463135.444    -7029925.269 4  -3156680.606 2
  23223751.092   -11542978.341 7  -9906564.963 4
  23562470.311   -17860620.931 6  -6226932.801 3
  21657590.322     1295770.769 9 -11102132.565 8
  20874773.245    -5864043.695 8 -17432814.009 9
 95  4 19 20  3 30.0020000  0  7 19 27 15 26 12  2  7
  24848386.830    44812565.606 5  15895050.535 2
  21942315.661    -7552784.853 7  -4958061.940 6
  24467270.721    -7008217.462 5  -3139765.422 2
  23221747.819   -11553512.752 7  -9914773.631 4
  23550036.269   -17925965.387 6  -6277850.522 3
  21662013.970     1319038.237 9 -11084002.084 8
  20871397.402    -5881782.960 8 -17446636.805 9
 95  4 19 20  4  0.0020000  0  7 19 27 15 26 12  2  7
  24867942.652    44915350.837 5  15975142.686 2
  21956980.279    -7475719.703 7  -4898011.235 5
  24471510.596    -6985943.697 5  -3122409.283 1
  23219837.841   -11563537.035 7  -9922584.754 4
  23537610.351   -17991253.216 6  -6328724.121 3
  21666478.539     1342469.806 9 -11065743.741 8
  20868116.504    -5899012.832 8 -17460062.679 9
 95  4 19 20  4 30.0020000  0  7 19 27 15 26 12  2  7
  24887538.945    45018305.905 5  16055367.272 2
  21971722.033    -7398249.204 7  -4837644.679 5
  24475849.492    -6963120.555 5  -3104625.005 1
  23218029.163   -11573046.686 7  -9929994.905 4
  23525193.547   -18056499.276 6  -6379565.156 3
  21670963.524     1366057.569 9 -11047363.703 8
  20864934.327    -5915757.396 8 -17473110.393 9
 95  4 19 20  5  0.0020000  0  7 19 27 15 26 12  2  7
  24907158.923    45121421.491 5  16135716.874 2
  21986540.775    -7320373.117 7  -4776962.054 5
  24480301.920    -6939751.167 5  -3086415.181 1
  23216324.393   -11582024.930 7  -9936990.969 4
  23512787.956   -18121706.243 6  -6430375.742 3
  21675483.105     1389804.198 9 -11028859.847 8
  20861837.800    -5932001.484 8 -17485768.115 9
 95  4 19 20  5 30.0020000  0  7 19 27 15 26 12  2  7
  24926807.590    45224701.683 4  16216194.737 2
  22001434.554    -7242098.441 7  -4715968.859 5
  24484847.883    -6915834.658 4  -3067778.881 1
  23214719.244   -11590439.005 7  -9943547.395 4
  23500387.760   -18186872.047 6  -6481154.247 3
  21680032.006     1413715.850 9 -11010227.421 8
  20858840.805    -5947763.257 8 -17498050.012 9
 95  4 19 20  6  0.0020000  0  7 19 27 15 26 12  2  7
  24946497.539    45328147.112 4  16296801.399 2
  22016407.418    -7163432.056 7  -4654670.433 5
  24489513.912    -6891352.129 5  -3048701.621 1
  23213229.755   -11598273.814 7  -9949652.467 4
  23488000.486   -18251976.351 6  -6531884.847 3
  21684619.161     1437812.523 9 -10991450.813 8
  20855935.546    -5963047.650 8 -17509959.921 9
 95  4 19 20  6 30.0020000  0  7 19 27 15 26 12  2  7
  24966212.041    45431759.085 4  16377537.798 2
  22031449.895    -7084373.867 7  -4593066.709 5
  24494280.373    -6866287.748 5  -3029170.939 1
  23211848.402   -11605536.222 7  -9955311.514 4
  23475624.693   -18317002.176 6  -6582554.293 3
  21689248.915     1462122.114 9 -10972508.284 8
  20853118.397    -5977836.388 8 -17521483.615 9
 95  4 19 20  7  0.0020000  0  7 19 27 15 26 12  2  7
  24985943.511    45535523.931 4  16458393.326 2
  22046570.767    -7004929.637 7  -4531162.173 5
  24499163.362    -6840640.704 5  -3009186.194 1
  23210573.744   -11612229.956 7  -9960527.410 4
  23463262.721   -18381947.041 6  -6633160.639 3
  21693910.778     1486637.894 9 -10953405.099 8
  20850400.808    -5992123.972 8 -17532616.782 9
 95  4 19 20  7 30.0020000  0  7 19 27 15 26 12  2  7
  25005729.514    45639429.455 4  16539358.467 2
  22061758.822    -6925115.508 7  -4468969.403 5
  24504150.380    -6814425.584 5  -2988758.955 1
  23209409.680   -11618379.721 7  -9965319.457 4
  23450917.777   -18446824.765 6  -6683714.670 3
  21698616.350     1511336.107 9 -10934159.751 8
  20847767.941    -6005933.413 8 -17543377.393 9
 95  4 19 20  8  0.0020000  0  7 19 27 15 26 12  2  7
  25025526.638    45743455.041 4  16620417.172 2
  22077013.252    -6844936.053 7  -4406491.964 5
  24509246.132    -6787658.467 5  -2967901.402 1
  23208323.832   -11624024.146 7  -9969717.721 4
  23438581.108   -18511649.611 6  -6734227.504 3
  21703342.848     1536204.427 9 -10914781.855 8
  20845235.774    -6019259.940 8 -17553761.688 9
 95  4 19 20  8 30.0020000  0  7 19 27 15 26 12  2  7
  25045338.963    45847585.069 4  16701557.273 2
  22092343.439    -6764379.484 7  -4343720.691 5
  24514434.970    -6760352.444 5  -2946624.015 2
  23207350.705   -11629172.201 7  -9973729.211 4
  23426259.068   -18576433.479 6  -6784708.404 3
  21708104.662     1561239.676 9 -10895273.879 8
  20842793.874    -6032098.472 8 -17563765.738 9
 95  4 19 20  9  0.0020000  0  7 19 27 15 26 12  2  7
  25065175.990    45951816.667 5  16782776.443 2
  22107750.133    -6683443.348 7  -4280653.634 5
  24519738.418    -6732510.612 6  -2924929.028 2
  23206461.821   -11633816.675 7  -9977348.289 4
  23413929.384   -18641178.128 6  -6835158.740 3
  21712902.390     1586431.259 9 -10875644.095 8
  20840442.992    -6044448.579 8 -17573389.183 9
 95  4 19 20  9 30.0020000  0  7 19 27 15 26 12  2  7
  25085036.820    46056167.899 5  16864088.868 2
  22123222.002    -6602108.262 7  -4217275.714 5
  24525139.269    -6704118.560 6  -2902805.417 2
  23205677.084   -11637957.102 7  -9980574.630 4
  23401625.062   -18705867.506 6  -6885566.017 3
  21717729.978     1611801.848 9 -10855874.844 8
  20838187.293    -6056299.854 8 -17582623.949 9
 95  4 19 20 10  0.0020000  0  7 19 27 15 26 12  2  7
  25104925.981    46160648.347 5  16945502.034 2
  22138780.601    -6520357.483 7  -4153573.863 5
  24530655.870    -6675155.808 6  -2880237.005 2
  23204988.611   -11641563.648 7  -9983384.922 4
  23389328.925   -18770479.706 7  -6935913.167 3
  21722595.850     1637370.661 9 -10835951.104 8
  20836032.805    -6067630.312 8 -17591452.864 9
 95  4 19 20 10 30.0020000  0  7 19 27 15 26 12  2  7
  25124826.055    46265283.605 4  17027035.804 2
  22154416.277    -6438187.337 7  -4089545.244 5
  24536276.529    -6645608.505 6  -2857213.167 2
  23204412.380   -11644610.255 7  -9985758.945 4
  23377049.306   -18834999.301 6  -6986188.151 3
  21727498.776     1663146.170 9 -10815866.314 8
  20833972.901    -6078441.251 8 -17599876.970 9
 95  4 19 20 11  0.0020000  0  7 19 27 15 26 12  2  7
  25144784.228    46370111.576 4  17108719.733 2
  22170135.265    -6355597.967 7  -4025189.945 5
  24542010.839    -6615455.530 6  -2833717.330 2
  23203937.029   -11647079.662 7  -9987683.180 4
  23364796.008   -18899403.284 7  -7036373.038 3
  21732444.961     1689134.090 9 -10795616.007 8
  20832019.003    -6088727.217 8 -17607891.997 9
 95  4 19 20 11 30.0020000  0  7 19 27 15 26 12  2  7
  25164762.697    46475153.601 4  17190570.407 2
  22185930.940    -6272582.082 7  -3960502.316 5
  24547870.943    -6584686.111 6  -2809741.178 2
  23203583.513   -11648961.904 7  -9989149.872 4
  23352565.975   -18963679.661 7  -7086458.485 3
  21737432.009     1715338.692 9 -10775196.852 8
  20830158.311    -6098487.483 8 -17615497.398 9
 95  4 19 20 12  0.0020000  0  7 19 27 15 26 12  2  7
  25184801.695    46580419.331 4  17272595.441 2
  22201805.970    -6189145.196 7  -3895486.617 5
  24553844.008    -6553296.645 6  -2785281.892 2
  23203337.474   -11650236.474 7  -9990143.079 4
  23340355.068   -19027823.001 7  -7136440.305 3
  21742460.038     1741760.866 9 -10754608.163 8
  20828402.877    -6107715.619 8 -17622688.157 9
 95  4 19 20 12 30.0020000  0  8 19 27 15 26 12  2  4  7
  25204872.260    46685898.228 5  17354786.577 1
  22217761.104    -6105308.127 7  -3830159.095 5
  24559925.837    -6521300.839 6  -2760350.098 2
  23203209.672   -11650931.405 7  -9990684.615 4
  23328173.871   -19091845.284 7  -7186327.786 3
  21747526.381     1768389.371 9 -10733858.692 8
  25239573.057   -34708718.16615  -2779268.199 2
  20826743.885    -6116431.937 8 -17629480.084 9
 95  4 19 20 13  0.0020000  0  7 27 15 26 12  2  4  7
  22233786.840    -6021094.508 7  -3764538.151 5
  24566130.042    -6488724.874 6  -2734966.249 2
  23203175.826   -11651075.511 7  -9990796.909 4
  23316007.754   -19155770.949 7  -7236139.924 3
  21752627.020     1795190.995 9 -10712974.334 8
  25221368.430   -34804355.139 5  -2853790.297 2
  20825179.898    -6124653.700 8 -17635886.652 9
 95  4 19 20 13 30.0020000  0  7 27 15 26 12  2  4  7
  22249885.425    -5936508.249 7  -3698626.847 5
  24572437.496    -6455584.243 6  -2709142.396 2
  23203260.097   -11650675.967 7  -9990485.621 4
  23303861.992   -19219613.912 7  -7285887.671 3
  21757758.807     1822154.009 9 -10691964.212 8
  25203161.614   -34900060.488 5  -2928365.695 2
  20823707.587    -6132378.364 8 -17641905.874 9
 95  4 19 20 14  0.0020000  0  7 27 15 26 12  2  4  7
  22266051.883    -5851535.938 7  -3632414.723 5
  24578847.328    -6421872.542 6  -2682873.542 2
  23203441.352   -11649718.212 7  -9989739.352 4
  23291728.762   -19283366.051 7  -7335564.631 4
  21762920.094     1849282.012 9 -10670825.523 8
  25184936.122   -34995822.521 5  -3002985.270 2
  20822341.883    -6139578.683 8 -17647516.521 9
 95  4 19 20 14 30.0020000  0  7 27 15 26 12  2  4  7
  22282300.185    -5766154.015 7  -3565883.428 5
  24585374.529    -6387580.288 6  -2656152.340 2
  23203729.272   -11648190.278 7  -9988548.771 4
  23279617.026   -19347016.319 7  -7385162.219 4
  21768114.868     1876583.101 9 -10649551.963 8
  25166707.511   -35091623.094 5  -3077634.870 2
  20821074.060    -6146239.048 8 -17652706.409 9
 95  4 19 20 15  0.0020000  0  7 27 15 26 12  2  4  7
  22298627.631    -5680348.780 7  -3499022.270 5
  24592015.532    -6352710.815 6  -2628981.334 2
  23204133.812   -11646084.211 7  -9986907.712 4
  23267525.257   -19410565.892 7  -7434681.335 4
  21773345.377     1904065.797 9 -10628136.899 8
  25148468.438   -35187453.213 5  -3152307.441 2
  20819909.577    -6152346.229 8 -17657465.270 9
 95  4 19 20 15 30.0020000  0  7 27 15 26 12  2  4  7
  22315037.281    -5594123.910 7  -3431834.134 5
  24598760.323    -6317273.925 6  -2601368.212 2
  23204643.070   -11643405.204 7  -9984820.188 4
  23255452.076   -19474022.675 7  -7484128.155 4
  21778609.193     1931733.220 9 -10606577.864 8
  25130222.769   -35283331.905 5  -3227017.910 2
  20818851.639    -6157905.865 8 -17661797.437 9
 95  4 19 20 16  0.0020000  0  7 27 15 26 12  2  4  7
  22331522.449    -5507494.282 7  -3364330.600 5
  24605600.447    -6281275.798 6  -2573317.725 2
  23205256.145   -11640176.599 7  -9982304.420 4
  23243389.686   -19537390.620 7  -7533505.732 4
  21783912.551     1959588.790 9 -10584872.247 8
  25111968.676   -35379276.144 5  -3301779.464 2
  20817892.183    -6162941.247 8 -17665721.115 9
 95  4 19 20 16 30.0020000  0  7 27 15 26 12  2  4  7
  22348081.125    -5420465.677 7  -3296516.174 5
  24612564.866    -6244712.304 6  -2544826.707 2
  23205973.579   -11636406.364 7  -9979366.635 4
  23231346.454   -19600664.078 7  -7582809.714 4
  21789250.626     1987651.197 9 -10563005.457 8
  25093703.161   -35475261.550 5  -3376573.069 2
  20817034.177    -6167474.101 8 -17669253.215 9
 95  4 19 20 17  0.0020000  0  7 27 15 26 12  2  4  7
  22364716.879    -5333049.443 7  -3228399.686 4
  24619625.818    -6207583.372 6  -2515895.068 2
  23206788.385   -11632114.654 7  -9976022.441 4
  23219326.695   -19663840.725 7  -7632038.226 4
  21794630.821     2015921.108 9 -10540976.956 8
  25075425.684   -35571280.675 5  -3451392.902 2
  20816264.430    -6171504.154 8 -17672393.514 9
 95  4 19 20 17 30.0020000  0  7 27 15 26 12  2  4  7
  22381421.015    -5245276.464 7  -3160005.229 4
  24626803.359    -6169898.359 6  -2486530.155 2
  23207701.223   -11627315.196 7  -9972282.643 4
  23207319.917   -19726928.220 7  -7681197.292 4
  21800047.621     2044378.708 9 -10518802.227 8
  25057154.143   -35667339.062 5  -3526243.457 2
  20815588.548    -6175051.158 8 -17675157.422 9
 95  4 19 20 18  0.0020000  0  8 27 15 26  9 12  2  4  7
  22398185.319    -5157166.195 7  -3091347.952 4
  24634078.602    -6131669.774 6  -2456741.657 2
  23208715.361   -11622019.389 7  -9968156.081 4
  25323757.328     -676688.57715  -1314501.020 1
  23195333.285   -19789936.946 7  -7730294.974 4
  21805496.169     2073013.639 9 -10496489.316 8
  25038866.983   -35763426.141 5  -3601116.273 2
  20815005.751    -6178136.157 8 -17677561.317 9
 95  4 19 20 18 30.0020000  0  8 27 15 26  9 12  2  4  7
  22415020.704    -5068721.961 7  -3022430.431 4
  24641454.876    -6092905.974 6  -2426536.129 2
  23209812.751   -11616217.056 7  -9963634.785 4
  25305756.649     -771300.674 5  -1388224.644 1
  23183356.157   -19852872.756 7  -7779335.830 4
  21810976.375     2101816.625 9 -10474045.447 8
  25020574.157   -35859539.263 5  -3676009.414 2
  20814499.372    -6180761.423 8 -17679606.979 9
 95  4 19 20 19  0.0020000  0  8 27 15 26  9 12  2  4  7
  22431912.690    -4979944.247 7  -2953253.030 4
  24648932.449    -6053613.306 6  -2395918.452 2
  23211010.392   -11609905.377 7  -9958716.627 4
  25287752.313     -865898.689 4  -1461937.287 1
  23171389.401   -19915740.122 7  -7828323.377 4
  21816486.411     2130774.155 9 -10451481.158 8
  25002269.489   -35955708.707 5  -3750946.433 2
  20814091.025    -6182925.196 8 -17681293.031 9
 95  4 19 20 19 30.0020000  0  8 27 15 26  9 12  2  4  7
  22448866.943    -4890825.728 7  -2883810.129 4
  24656509.434    -6013791.084 6  -2364888.183 2
  23212315.778   -11603062.095 7  -9953384.254 4
  25269746.628     -960473.834 4  -1535632.156 1
  23159443.181   -19978536.400 7  -7877255.514 4
  21822028.554     2159890.670 9 -10428792.984 8
  24983961.044   -36051947.477 5  -3825937.492 2
  20813763.262    -6184645.442 8 -17682633.474 9
 95  4 19 20 20  0.0020000  0  8 27 15 26  9 12  2  4  7
  22465895.514    -4801363.917 7  -2814099.691 4
  24664187.538    -5973445.434 5  -2333450.054 2
  23213721.235   -11595689.812 7  -9947639.634 4
  25251764.117    -1055019.067 5  -1609303.703 1
  23147509.852   -20041265.804 7  -7926135.542 4
  21827596.719     2189161.937 9 -10405984.226 8
  24965630.684   -36148258.622 5  -3900984.957 2
  20813519.021    -6185926.550 8 -17683631.746 9
 95  4 19 20 20 30.0020000  0  8 27 15 26  9 12  2  4  7
  22482983.414    -4711567.657 7  -2744128.632 4
  24671956.090    -5932584.517 5  -2301610.383 2
  23215220.947   -11587806.301 7  -9941496.687 4
  25233767.037    -1149540.292 5  -1682956.519 2
  23135580.331   -20103934.035 7  -7974967.891 4
  21833193.844     2218572.100 9 -10383067.236 8
  24947290.130   -36244672.572 5  -3976112.523 2
  20813358.692    -6186767.406 8 -17684286.966 9
 95  4 19 20 21  0.0020000  0  8 27 15 26  9 12  2  4  7
  22500131.543    -4621444.019 7  -2673902.515 4
  24679827.351    -5891220.293 5  -2269378.506 2
  23216815.633   -11579435.527 7  -9934974.030 4
  25215786.204    -1244061.171 5  -1756609.049 2
  23123663.311   -20166550.430 7  -8023759.866 4
  21838817.261     2248111.150 9 -10360049.811 7
  24928919.478   -36341196.082 5  -4051325.448 2
  20813282.664    -6187173.293 8 -17684603.242 9
 95  4 19 20 21 30.0020000  0  8 27 15 26  9 12  2  4  7
  22517343.917    -4531005.732 7  -2603431.202 4
  24687803.209    -5849359.495 5  -2236759.752 2
  23218497.049   -11570596.129 7  -9928086.187 4
  25197796.169    -1338600.880 5  -1830276.313 2
  23111758.672   -20229119.593 7  -8072515.033 4
  21844459.236     2277775.903 9 -10336934.444 7
  24910541.601   -36437799.120 5  -4126600.390 2
  20813289.380    -6187141.831 8 -17684578.720 9
 95  4 19 20 22  0.0020000  0  8 27 15 26  9 12  2  4  7
  22534610.704    -4440256.700 7  -2532717.723 4
  24695855.245    -5806998.980 5  -2203751.636 2
  23220268.403   -11561290.601 7  -9920835.158 4
  25179806.073    -1433169.400 5  -1903966.057 2
  23099857.391   -20291635.830 7  -8121228.959 4
  21850129.810     2307574.953 8 -10313714.417 7
  24892142.378   -36534457.720 5  -4201918.553 2
  20813383.335    -6186652.222 8 -17684197.207 9
 95  4 19 20 22 30.0020000  0  8 27 15 26  9 12  2  4  7
  22551937.598    -4349194.794 7  -2461760.461 4
  24704012.448    -5764138.279 5  -2170353.677 2
  23222124.897   -11551520.157 7  -9913221.864 4
  25161800.598    -1527780.660 6  -1977689.030 2
  23087978.685   -20354096.865 7  -8169899.857 4
  21855827.036     2337514.156 9 -10290385.189 7
  24873737.790   -36631167.516 5  -4277276.617 2
  20813561.741    -6185706.941 8 -17683460.633 9
 95  4 19 20 23  0.0020000  0  8 27 15 26  9 12  2  4  7
  22569327.450    -4257818.137 7  -2390557.967 4
  24712265.315    -5720769.746 5  -2136560.065 2
  23224075.497   -11541268.851 7  -9905233.857 4
  25143790.266    -1622421.643 5  -2051435.128 2
  23076105.974   -20416492.387 7  -8218519.749 4
  21861552.202     2367604.959 9 -10266937.851 7
  24855331.972   -36727893.922 5  -4352647.668 2
  20813830.745    -6184301.455 8 -17682365.447 9
 95  4 19 20 23 30.0020000  0  8 27 15 26  9 12  2  4  7
  22586779.538    -4166123.035 7  -2319107.311 4
  24720615.734    -5676877.386 5  -2102358.247 2
  23226126.347   -11530510.340 7  -9896850.636 4
  25125784.371    -1717050.849 5  -2125172.125 2
  23064245.585   -20478804.313 7  -8267074.439 4
  21867311.335     2397851.984 9 -10243368.740 7
  24836926.214   -36824620.834 5  -4428019.076 2
  20814188.937    -6182419.275 8 -17680898.800 9
 95  4 19 20 24  0.0020000  0  8 27 15 26  9 12  2  4  7
  22604286.788    -4074108.769 7  -2247407.980 4
  24729063.526    -5632461.091 4  -2067748.200 2
  23228270.823   -11519234.089 7  -9888063.991 4
  25107782.524    -1811635.701 5  -2198874.704 2
  23052400.036   -20541029.350 7  -8315561.475 4
  21873091.634     2428253.365 9 -10219679.375 7
  24818513.171   -36921371.031 5  -4503408.622 2
  20814635.628    -6180068.022 8 -17679066.663 9
 95  4 19 20 24 30.0020000  0  8 27 15 26  9 12  2  4  7
  22621861.821    -3981764.961 7  -2175451.823 4
  24737614.236    -5587510.299 4  -2032721.599 2
  23230515.489   -11507439.150 7  -9878873.149 4
  25089800.223    -1906147.963 5  -2272520.490 2
  23040583.626   -20603155.173 7  -8363971.176 5
  21878905.419     2458810.466 9 -10195868.672 7
  24800096.411   -37018139.077 5  -4578812.123 2
  20815173.455    -6177245.454 8 -17676867.243 9
 95  4 19 20 25  0.0020000  0  8 27 15 26  9 12  2  4  7
  22639497.562    -3889076.067 7  -2103226.803 4
  24746283.874    -5542016.128 4  -1997271.620 2
  23232862.714   -11495113.477 7  -9869268.744 4
  25071825.686    -2000563.646 5  -2346091.066 2
  23028780.827   -20665170.033 7  -8412294.428 5
  21884752.691     2489522.425 9 -10171937.298 7
  24781689.933   -37114919.538 5  -4654225.273 2
  20815799.332    -6173950.995 8 -17674300.143 9
 95  4 19 20 25 30.0020000  0  8 27 15 26  9 12  2  4  7
  22657204.384    -3796039.248 6  -2030730.668 4
  24755044.919    -5495984.844 4  -1961403.075 2
  23235309.590   -11482247.825 7  -9859243.601 4
  25053876.512    -2094888.617 5  -2419591.043 2
  23016998.084   -20727077.848 7  -8460534.252 5
  21890631.171     2520390.107 9 -10147884.580 7
  24763267.027   -37211732.402 5  -4729663.684 2
  20816513.677    -6170198.929 8 -17671376.446 9
 95  4 19 20 26  0.0020000  0  8 27 15 26  9 12  2  4  7
  22674976.051    -3702641.291 6  -1957953.109 4
  24763896.351    -5449415.021 4  -1925115.015 2
  23237860.524   -11468836.031 7  -9848792.866 4
  25035942.688    -2189158.976 5  -2493048.399 2
  23005235.487   -20788874.623 7  -8508687.558 5
  21896529.168     2551429.377 9 -10123698.157 7
  24744836.266   -37308572.094 6  -4805123.002 2
  20817311.545    -6165998.254 8 -17668103.200 9
 95  4 19 20 26 30.0020000  0  8 27 15 26  9 12  2  4  7
  22692820.267    -3608865.101 6  -1884880.845 4
  24772862.904    -5402300.983 5  -1888402.749 2
  23240518.724   -11454871.689 7  -9837911.616 4
  25018010.242    -2283397.893 5  -2566481.219 2
  22993507.156   -20850552.203 7  -8556747.996 5
  21902478.190     2582651.247 9 -10099369.452 7
  24726406.885   -37405419.774 6  -4880588.538 2
  20818200.879    -6161340.932 8 -17664474.117 9
 95  4 19 20 27  0.0020000  0  8 27 15 26  9 12  2  4  7
  22710734.516    -3514712.652 6  -1811515.394 4
  24781945.416    -5354646.565 5  -1851269.448 2
  23243281.131   -11440345.149 7  -9826592.251 4
  25000080.255    -2377610.074 5  -2639893.269 2
  22981785.871   -20912111.672 7  -8604716.391 5
  21908452.274     2614058.865 9 -10074896.008 7
  24707972.377   -37502268.419 6  -4956054.882 2
  20819174.365    -6156217.620 8 -17660481.927 9
 95  4 19 20 27 30.0020000  0  8 27 15 26  9 12  2  4  7
  22728724.072    -3420184.356 6  -1737857.069 4
  24791117.806    -5306436.764 5  -1813703.435 2
  23246157.010   -11425254.357 7  -9814833.217 4
  24982161.749    -2471789.990 5  -2713280.248 1
  22970098.222   -20973535.146 7  -8652578.810 5
  21914465.541     2645676.161 9 -10050259.168 7
  24689553.098   -37599084.781 6  -5031496.072 2
  20820244.115    -6150594.561 8 -17656100.322 9
 95  4 19 20 28  0.0020000  0  8 27 15 26  9 12  2  4  7
  22746786.298    -3325283.209 7  -1663908.216 4
  24800391.886    -5257663.631 5  -1775698.382 2
  23249124.236   -11409629.908 7  -9802658.367 4
  24964245.522    -2565919.143 5  -2786627.496 2
  22958442.861   -21034812.076 7  -8700327.044 5
  21920527.405     2677508.665 9 -10025454.655 7
  24671135.798   -37695845.939 6  -5106894.236 2
  20821409.318    -6144457.692 8 -17651318.353 9
 95  4 19 20 28 30.0020000  0  8 27 15 26  9 12  2  4  7
  22764912.799    -3230035.984 7  -1589689.668 4
  24809780.247    -5208334.258 5  -1737259.951 2
  23252201.366   -11393492.872 7  -9790084.045 4
  24946344.945    -2659962.390 5  -2859907.851 2
  22946807.466   -21095946.918 7  -8747964.538 5
  21926621.706     2709543.476 9 -10000492.489 7
  24652736.156   -37792552.470 6  -5182249.845 2
  20822678.370    -6137808.662 8 -17646137.282 9
 95  4 19 20 29  0.0020000  0  8 27 15 26  9 12  2  4  7
  22783099.379    -3134452.729 6  -1515209.298 4
  24819281.599    -5158444.254 5  -1698384.606 2
  23255370.262   -11376837.225 7  -9777105.675 4
  24928471.408    -2753895.036 5  -2933102.079 2
  22935200.791   -21156932.760 7  -8795485.964 5
  21932760.436     2741783.297 9  -9975370.561 7
  24634341.460   -37889190.594 6  -5257552.183 2
  20824038.558    -6130642.641 8 -17640553.379 9
 95  4 19 20 29 30.0020000  0  8 27 15 26  9 12  2  4  7
  22801349.574    -3038531.391 6  -1440465.487 4
  24828871.390    -5107991.990 5  -1659071.208 2
  23258637.131   -11359673.935 7  -9763731.708 4
  24910627.312    -2847716.049 5  -3006209.321 1
  22923622.866   -21217765.037 7  -8842887.717 5
  21938932.533     2774229.225 9  -9950088.065 7
  24615961.784   -37985758.697 6  -5332799.912 2
  20825502.984    -6122969.156 8 -17634574.040 9
 95  4 19 20 30  0.0020000  0  8 27 15 26  9 12  2  4  7
  22819670.461    -2942273.400 7  -1365459.330 4
  24838581.398    -5056980.711 5  -1619322.129 2
  23262000.832   -11341989.931 7  -9749951.984 4
  24892798.504    -2941419.046 5  -3079224.569 2
  22912078.098   -21278444.020 7  -8890170.005 5
  21945147.620     2806878.382 8  -9924647.174 7
  24597598.987   -38082264.718 6  -5407999.289 2
  20827051.262    -6114808.986 8 -17628215.472 9
 95  4 19 20 30 30.0020000  0  8 27 15 26  9 12  2  4  7
  22838049.987    -2845676.394 7  -1290189.015 4
  24848393.005    -5005422.957 5  -1579147.333 2
  23265466.763   -11323771.656 7  -9735755.970 4
  24874977.911    -3035014.422 5  -3152155.953 2
  22900556.175   -21338979.420 7  -8937340.433 5
  21951395.745     2839723.630 8  -9899053.503 7
  24579243.804   -38178727.174 6  -5483164.764 2
  20828694.965    -6106168.857 8 -17621482.900 9
 95  4 19 20 31  0.0020000  0  8 27 15 26  9 12  2  4  7
  22856500.804    -2748737.110 7  -1214651.995 4
  24858310.770    -4953327.646 5  -1538553.579 2
  23269032.794   -11305022.646 7  -9721146.406 4
  24857192.394    -3128522.346 5  -3225019.211 2
  22889069.567   -21399377.589 7  -8984403.909 5
  21957681.583     2872762.314 8  -9873309.107 7
  24560898.874   -38275155.805 6  -5558303.825 2
  20830431.482    -6097058.842 8 -17614384.189 9
 95  4 19 20 31 30.0020000  0  8 27 15 26  9 12  2  4  7
  22875008.101    -2651468.888 7  -1138858.637 3
  24868314.184    -4900708.466 5  -1497551.634 2
  23272692.121   -11285765.408 7  -9706140.758 4
  24839408.885    -3221958.083 6  -3297826.236 2
  22877593.032   -21459648.902 7  -9031368.545 5
  21964006.305     2905981.777 9  -9847423.830 7
  24542555.622   -38371568.709 5  -5633430.655 2
  20832250.563    -6087495.809 8 -17606932.474 9
 95  4 19 20 32  0.0020000  0  8 27 15 26  9 12  2  4  7
  22893581.533    -2553870.880 7  -1062808.342 3
  24878431.460    -4847568.787 5  -1456144.102 2
  23276463.090   -11265988.719 7  -9690730.408 4
  24821633.321    -3315313.776 5  -3370570.849 2
  22866149.384   -21519794.058 7  -9078234.899 5
  21970362.834     2939390.013 9  -9821391.466 7
  24524207.574   -38467965.497 5  -5708544.926 2
  20834157.423    -6077479.805 8 -17599127.808 9
 95  4 19 20 32 30.0020000  0  8 27 15 26  9 12  2  4  7
  22912214.954    -2455942.680 7   -986500.694 3
  24888638.074    -4793917.408 5  -1414337.837 2
  23280324.087   -11245700.552 7  -9674921.491 3
  24803891.123    -3408597.635 6  -3443259.495 2
  22854730.319   -21579818.761 7  -9125007.356 5
  21976754.080     2972978.244 9  -9795218.847 7
  24505858.897   -38564343.971 5  -5783644.955 2
  20836149.574    -6066998.338 8 -17590960.424 9
 95  4 19 20 33  0.0020000  0  8 27 15 26  9 12  2  4  7
  22930909.981    -2357690.226 6   -909940.446 3
  24898942.211    -4739756.236 5  -1372134.373 2
  23284281.617   -11224894.778 7  -9658709.217 3
  24786150.305    -3501816.865 6  -3515897.817 2
  22843327.533   -21639722.034 7  -9171685.206 5
  21983180.401     3006733.086 9  -9768916.390 7
  24487530.036   -38660685.905 5  -5858716.503 2
  20838233.521    -6056053.453 8 -17582431.932 9
 95  4 19 20 33 30.0020000  0  8 27 15 26  9 12  2  4  7
  22949673.002    -2259105.609 6   -833121.343 3
  24909351.665    -4685084.116 5  -1329532.726 2
  23288336.370   -11203565.632 7  -9642089.141 3
  24768425.736    -3594966.445 6  -3588481.851 2
  22831951.519   -21699499.786 7  -9218265.251 5
  21989630.765     3040658.834 8  -9742480.765 7
  24469212.866   -38756976.649 5  -5933748.141 2
  20840408.935    -6044639.815 8 -17573538.200 9
 95  4 19 20 34  0.0020000  0  8 27 15 26  9 12  2  4  7
  22968497.000    -2160179.930 6   -756036.463 3
  24919841.043    -4629897.196 4  -1286529.938 2
  23292500.158   -11181698.282 7  -9625049.694 3
  24750715.376    -3688037.559 6  -3661004.731 2
  22820605.544   -21759144.589 7  -9264741.698 5
  21996121.032     3074765.392 8  -9715904.257 7
  24450893.359   -38853207.930 5  -6008733.427 2
  20842670.509    -6032743.406 8 -17564268.267 9
 95  4 19 20 34 30.0020000  0  8 27 15 26  9 12  2  4  7
  22987385.034    -2060915.907 6   -678687.978 3
  24930449.589    -4574194.156 4  -1243125.053 2
  23296762.037   -11159300.930 7  -9607597.207 3
  24733006.306    -3781023.462 5  -3733461.171 2
  22809276.087   -21818652.534 7  -9311111.490 5
  22002647.724     3109047.180 8  -9689191.197 7
  24432592.858   -38949379.897 5  -6083672.514 2
  20845028.467    -6020354.282 8 -17554614.412 9
 95  4 19 20 35  0.0020000  0  8 27 15 26  9 12  2  4  7
  23006335.425    -1961333.616 6   -601091.462 3
  24941150.051    -4517989.901 5  -1199329.545 2
  23301124.257   -11136401.676 7  -9589753.692 3
  24715336.539    -3873928.036 5  -3805854.339 2
  22797978.108   -21878035.561 7  -9357383.957 5
  22009200.318     3143501.368 8  -9662343.809 7
  24414302.610   -39045512.150 5  -6158580.643 2
  20847474.204    -6007503.332 8 -17544600.692 9
 95  4 19 20 35 30.0020000  0  8 27 15 26  9 12  2  4  7
  23025344.905    -1861455.856 6   -523264.721 3
  24951938.502    -4461293.763 5  -1155150.741 2
  23305569.880   -11113031.115 7  -9571542.900 3
  24697671.838    -3966757.289 5  -3878188.737 2
  22786704.263   -21937299.439 7  -9403563.564 5
  22015794.762     3178139.216 8  -9635353.291 7
  24396013.951   -39141626.944 6  -6233475.200 2
  20850005.202    -5994202.327 8 -17534236.271 9
 95  4 19 20 36  0.0020000  0  8 27 15 26  9 12  2  4  7
  23044402.652    -1761285.593 6   -445210.068 3
  24962822.138    -4404095.049 5  -1110580.384 2
  23310101.243   -11089186.020 6  -9552962.321 3
  24680026.593    -4059508.863 6  -3950462.625 2
  22775451.223   -21996430.597 7  -9449639.776 5
  22022416.488     3212954.806 8  -9608224.284 7
  24377729.549   -39237711.997 6  -6308346.624 2
  20852624.788    -5980446.727 8 -17523517.623 9
 95  4 19 20 36 30.0020000  0  8 27 15 26  9 12  2  4  7
  23063520.147    -1660830.513 6   -366933.466 3
  24973804.825    -4346393.746 5  -1065618.340 2
  23314731.867   -11064876.218 7  -9534019.664 3
  24662392.951    -4152185.049 6  -4022677.756 2
  22764220.548   -22055425.604 7  -9495609.874 5
  22029076.048     3247943.831 8  -9580960.143 7
  24359451.173   -39333744.763 6  -6383177.223 2
  20855324.569    -5966245.651 8 -17512451.856 9
 95  4 19 20 37  0.0020000  0  8 27 15 26  9 12  2  4  7
  23082693.494    -1560088.384 6   -288433.210 3
  24984867.346    -4288187.888 5  -1020263.178 2
  23319448.592   -11040096.024 7  -9514710.463 3
  24644761.916    -4244803.058 5  -4094847.593 2
  22753021.381   -22114279.529 7  -9541470.071 5
  22035768.225     3283107.272 8  -9553560.076 7
  24341192.433   -39429704.193 6  -6457950.698 2
  20858107.573    -5951615.236 8 -17501051.540 9
 95  4 19 20 37 30.0020000  0  8 27 15 26  9 12  2  4  7
  23101922.182    -1459042.151 6   -209695.984 3
  24996051.044    -4229464.492 5   -974504.703 1
  23324256.903   -11014825.485 7  -9495019.164 3
  24627153.456    -4337350.815 6  -4166962.736 2
  22741851.594   -22172975.977 7  -9587207.525 5
  22042492.150     3318441.762 8  -9526026.740 7
  24322952.101   -39525559.972 6  -6532643.411 2
  20860978.805    -5936545.423 8 -17489308.837 9
 95  4 19 20 38  0.0020000  0  8 27 15 26  9 12  2  4  7
  23121211.938    -1357664.192 6   -130700.264 3
  25007325.369    -4170216.039 5   -928337.088 1
  23329163.846   -10989040.091 7  -9474926.696 3
  24609557.168    -4429804.637 6  -4239004.548 2
  22730715.713   -22231504.370 8  -9632814.041 5
  22049247.733     3353947.073 8  -9498360.284 7
  24304730.925   -39621297.569 6  -6607244.028 2
  20863930.382    -5921032.247 8 -17477220.653 9
 95  4 19 20 38 30.0020000  0  8 27 15 26  9 12  2  4  7
  23140567.558    -1255950.589 6    -51442.994 3
  25018694.578    -4110445.964 5   -881763.036 1
  23334170.440   -10962736.037 7  -9454430.066 3
  24591988.221    -4522146.499 6  -4310959.178 2
  22719609.811   -22289864.749 8  -9678289.637 5
  22056041.870     3389649.081 8  -9470540.560 7
  24286534.542   -39716928.053 6  -6681761.183 2
  20866967.129    -5905075.367 8 -17464786.720 9
 95  4 19 20 39  0.0020000  0  8 27 15 26  9 12  2  4  7
  23159980.799    -1153913.623 6     28066.244 3
  25030169.344    -4050171.239 6   -834795.686 1
  23339270.269   -10935925.081 7  -9433538.434 3
  24574442.418    -4614373.276 5  -4382824.166 2
  22708536.917   -22348070.587 8  -9723644.790 5
  22062870.752     3425535.857 8  -9442576.863 7
  24268352.010   -39812488.311 6  -6756223.656 2
  20870082.812    -5888685.401 8 -17452015.321 9
 95  4 19 20 39 30.0020000  0  8 27 15 26  9 12  2  4  7
  23179458.165    -1051566.113 6    107817.435 3
  25041734.678    -3989397.612 5   -787439.634 1
  23344469.060   -10908612.678 7  -9412256.105 3
  24556917.030    -4706467.623 5  -4454585.935 2
  22697485.218   -22406124.420 8  -9768881.535 5
  22069735.430     3461608.038 8  -9414468.692 7
  24250177.841   -39907995.906 6  -6830645.060 2
  20873292.270    -5871849.226 8 -17438896.239 9
 95  4 19 20 40  0.0020000  0  8 27 15 26  9 12  2  4  7
  23198991.772     -948915.204 6    187805.064 3
  25053398.793    -3928124.242 6   -739694.246 1
  23349767.802   -10880790.248 7  -9390576.325 3
  24539414.307    -4798428.803 6  -4526243.923 2
  22686473.511   -22464022.115 8  -9813996.588 5
  22076638.481     3497887.129 8  -9386199.292 7
  24232006.401   -40003456.502 6  -6905029.812 2
  20876579.675    -5854542.668 8 -17425410.611 9
 95  4 19 20 40 30.0020000  0  8 27 15 26  9 12  2  4  7
  23218578.982     -845980.372 6    268013.922 3
  25065154.135    -3866351.853 6   -691559.859 1
  23355150.216   -10852469.829 7  -9368508.513 3
  24521928.372    -4890263.271 5  -4597803.151 2
  22675481.591   -22521760.891 7  -9858987.833 5
  22083581.764     3534376.637 8  -9357765.941 7
  24213857.685   -40098856.578 6  -6979367.410 2
  20879964.601    -5836757.226 8 -17411551.821 9
 95  4 19 20 41  0.0020000  0  8 27 15 26  9 12  2  4  7
  23238225.341     -742760.121 6    348445.190 3
  25077003.072    -3804078.880 5   -643035.451 1
  23360636.748   -10823649.706 7  -9346051.313 3
  24504487.316    -4981974.293 6  -4669266.277 2
  22664523.337   -22579335.533 7  -9903851.163 5
  22090564.321     3571064.971 8  -9329177.647 7
  24195717.244   -40194176.342 6  -7053642.469 2
  20883439.646    -5818495.808 8 -17397322.155 9
 95  4 19 20 41 30.0020000  0  8 27 15 26  9 12  2  4  7
  23257921.226     -639252.417 6    429100.455 3
  25088946.414    -3741303.553 5   -594119.634 1
  23366213.667   -10794319.364 7  -9323196.517 3
  24487053.725    -5073574.725 6  -4740643.166 2
  22653602.168   -22636741.138 7  -9948582.781 5
  22097586.149     3607951.291 8  -9300435.085 7
  24177602.824   -40289392.178 6  -7127836.535 2
  20887005.797    -5799755.962 8 -17382719.678 9
 95  4 19 20 42  0.0020000  0  8 27 15 26  9 12  2  4  7
  23277674.641     -535456.728 6    509980.111 3
  25100990.186    -3678027.794 5   -544813.805 1
  23371896.473   -10764484.268 7  -9299948.429 3
  24469650.204    -5165061.034 6  -4811931.122 2
  22642712.506   -22693975.798 8  -9993181.198 5
  22104638.887     3645028.671 8  -9271543.647 6
  24159501.355   -40384490.694 6  -7201939.195 2
  20890660.057    -5780552.838 8 -17367756.201 9
 95  4 19 20 42 30.0020000  0  8 27 15 26  9 12  2  4  7
  23297481.179     -431373.803 6    591083.598 3
  25113132.350    -3614251.750 5   -495118.262 1
  23377659.683   -10734153.264 7  -9276313.949 3
  24452261.582    -5256423.695 6  -4883122.721 2
  22631853.604   -22751036.532 8 -10037644.087 6
  22111732.786     3682294.723 8  -9242505.183 7
  24141432.444   -40479454.872 6  -7275937.140 2
  20894396.820    -5760908.436 8 -17352448.894 9
 95  4 19 20 43  0.0020000  0  8 27 15 26  9 12  2  4  7
  23317343.479     -326990.889 6    672420.843 3
  25125350.152    -3549970.677 5   -445029.149 1
  23383535.375   -10703305.154 7  -9252276.481 3
  24434903.298    -5347653.248 6  -4954210.644 2
  22621030.077   -22807915.264 8 -10081965.143 6
  22118860.771     3719753.359 8  -9213316.659 6
  24123391.114   -40574275.140 6  -7349822.951 2
  20898220.313    -5740824.695 8 -17336799.229 9
 95  4 19 20 43 30.0020000  0  8 27 15 26  9 12  2  4  7
  23337264.598     -222301.213 6    753997.098 3
  25137685.562    -3485179.306 5   -394542.349 1
  23389508.740   -10671934.636 7  -9227831.964 3
  24417572.266    -5438735.462 6  -5025183.734 2
  22610241.865   -22864602.815 8 -10126137.233 6
  22126024.852     3757419.356 8  -9183966.573 6
  24105376.375   -40668940.038 6  -7423587.755 2
  20902129.577    -5720279.221 8 -17320789.768 9
 95  4 19 20 44  0.0020000  0  8 27 15 26  9 12  2  4  7
  23357245.405     -117303.193 6    835813.660 3
  25150110.761    -3419876.078 5   -343656.699 2
  23395572.462   -10640054.781 7  -9202990.568 3
  24400265.458    -5529651.929 6  -5096027.683 2
  22599490.228   -22921094.420 8 -10170156.637 6
  22133237.588     3795310.831 8  -9154440.766 6
  24087390.836   -40763451.637 6  -7497233.066 2
  20906125.840    -5699279.696 8 -17304426.503 9
 95  4 19 20 44 30.0020000  0  8 27 15 26  9 12  2  4  7
  23377284.673      -11995.033 6    917871.868 3
  25162640.766    -3354065.538 5   -292375.824 2
  23401739.643   -10607664.224 7  -9177751.205 3
  24382998.911    -5620406.184 6  -5166745.210 2
  22588776.366   -22977390.604 7 -10214023.782 6
  22140493.555     3833432.320 8  -9124735.742 6
  24069432.489   -40857809.876 6  -7570758.874 3
  20910210.453    -5677820.979 8 -17287705.438 9
 95  4 19 20 45  0.0020000  0  7 27 26  9 12  2  4  7
  23397378.922       93623.743 6   1000172.120 3
  23407999.009   -10574767.893 7  -9152117.740 3
  24365759.945    -5711002.858 6  -5237340.015 2
  22578102.435   -23033496.144 8 -10257742.357 6
  22147785.047     3871766.004 8  -9094865.370 6
  24051501.092   -40952031.528 6  -7644178.235 3
  20914384.583    -5655898.309 8 -17270622.831 9
 95  4 19 20 45 30.0020000  0  7 27 26  9 12  2  4  7
  23417539.035      199547.625 6   1082710.112 3
  23414348.824   -10541399.957 7  -9126116.793 3
  24348554.437    -5801433.828 6  -5307805.634 2
  22567462.831   -23089414.832 8 -10301315.353 6
  22155124.566     3910311.399 8  -9064830.023 6
  24033594.699   -41046137.924 6  -7717507.821 3
  20918638.668    -5633526.071 8 -17253189.926 9
 95  4 19 20 46  0.0020000  0  7 27 26  9 12  2  4  7
  23437751.882      305762.075 6   1165474.510 3
  23420780.421   -10507578.220 7  -9099762.230 3
  24331370.543    -5891699.772 6  -5378142.655 2
  22556855.874   -23145152.365 8 -10344747.165 6
  22162494.544     3949051.825 8  -9034642.708 6
  24015706.772   -41140135.786 6  -7790752.787 3
  20922976.635    -5610736.054 8 -17235431.466 9
 95  4 19 20 46 30.0020000  0  7 27 26  9 12  2  4  7
  23458020.580      412261.246 6   1248460.790 2
  23427295.211   -10473306.983 7  -9073057.413 3
  24314220.316    -5981824.685 6  -5448369.786 2
  22546282.344   -23200717.128 8 -10388044.349 6
  22169895.940     3987956.576 8  -9004327.333 6
  23997842.140   -41234027.555 6  -7863915.108 3
  20927390.719    -5587536.113 8 -17217353.585 9
 95  4 19 20 47  0.0020000  0  7 27 26  9 12  2  4  7
  23478333.918      519043.526 6   1331667.644 2
  23433910.341   -10438591.821 7  -9046006.660 3
  24297093.892    -6071813.010 6  -5518490.526 2
  22535737.084   -23256105.933 8 -10431204.443 6
  22177329.654     4027022.544 8  -8973886.366 6
  23979993.366   -41327816.753 6  -7936997.531 3
  20931886.017    -5563925.732 8 -17198955.906 9
 95  4 19 20 47 30.0020000  0  7 27 26  9 12  2  4  7
  23498711.021      626106.199 6   1415093.017 2
  23440602.998   -10403433.525 7  -9018610.635 3
  24279997.448    -6161675.832 6  -5588513.441 2
  22525232.926   -23311317.403 8 -10474226.348 6
  22184797.095     4066253.925 8  -8943316.468 6
  23962173.492   -41421487.697 6  -8009987.776 3
  20936453.985    -5539911.129 8 -17180243.235 9
 95  4 19 20 48  0.0020000  0  7 27 26  9 12  2  4  7
  23519141.907      733460.828 6   1498745.890 2
  23447385.053   -10367789.336 7  -8990835.982 3
  24262919.111    -6251420.972 6  -5658444.625 2
  22514762.284   -23366338.438 8 -10517099.860 6
  22192294.274     4105650.755 8  -8912617.681 6
  23944370.947   -41515008.380 6  -8082860.931 3
  20941105.384    -5515459.897 8 -17161190.336 9
 95  4 19 20 48 30.0020000  0  7 27 26  9 12  2  4  7
  23539625.287      841110.689 6   1582628.737 2
  23454260.373   -10331643.567 6  -8962670.476 3
  24245859.121    -6341052.593 6  -5728287.415 2
  22504328.578   -23421163.683 8 -10559820.819 6
  22199823.922     4145222.584 8  -8881782.503 6
  23926602.308   -41608378.896 6  -8155617.074 3
  20945847.082    -5490543.831 8 -17141775.227 9
 95  4 19 20 49  0.0020000  0  7 27 26  9 12  2  4  7
  23560165.927      949052.953 6   1666739.553 2
  23461239.122   -10294992.228 7  -8934111.036 3
  24228831.239    -6430539.334 6  -5798017.310 2
  22493936.902   -23475783.549 8 -10602381.716 6
  22207395.180     4184999.194 8  -8850787.774 6
  23908859.091   -41701597.805 6  -8228255.090 3
  20950681.775    -5465143.709 8 -17121982.921 9
 95  4 19 20 49 30.0020000  0  7 27 26  9 12  2  4  7
  23580763.437     1057259.032 6   1751055.844 2
  23468303.072   -10257848.596 6  -8905167.990 3
  24211835.495    -6519879.111 6  -5867632.628 3
  22483581.590   -23530211.896 8 -10644793.410 6
  22214999.596     4224967.595 8  -8819643.575 6
  23891157.156   -41794668.030 6  -8300777.259 3
  20955604.937    -5439277.446 8 -17101827.407 9
 95  4 19 20 50  0.0020000  0  7 27 26  9 12  2  4  7
  23601388.349     1165689.525 6   1835547.033 2
  23475458.788   -10220240.502 6  -8875863.018 3
  24194862.115    -6609071.149 6  -5937132.818 3
  22473253.500   -23584467.738 8 -10687070.663 6
  22222636.749     4265114.105 8  -8788360.606 6
  23873464.544   -41887608.112 6  -8373198.020 3
  20960610.032    -5412962.156 8 -17081321.978 9
 95  4 19 20 50 30.0020000  0  7 27 26  9 12  2  4  7
  23622060.928     1274330.535 6   1920202.277 2
  23482701.294   -10182198.412 6  -8846219.879 3
  24177915.807    -6698100.904 6  -6006506.623 2
  22462961.026   -23638552.157 8 -10729214.343 6
  22230315.573     4305459.883 8  -8756922.361 6
  23855805.899   -41980411.855 6  -8445512.524 3
  20965697.959    -5386217.622 8 -17060482.102 9
 95  4 19 20 51  0.0020000  0  7 27 26  9 12  2  4  7
  23642782.192     1383177.361 6   2005017.869 2
  23490027.292   -10143726.678 6  -8816241.960 3
  24161006.673    -6786958.169 6  -6075746.037 2
  22452704.226   -23692458.880 8 -10771219.574 6
  22238032.171     4346020.048 8  -8725317.060 6
  23838178.043   -42073057.664 6  -8517703.986 3
  20970867.820    -5359066.130 8 -17039325.094 9
 95  4 19 20 51 30.0020000  0  7 27 26  9 12  2  4  7
  23663525.282     1492216.467 6   2089983.298 2
  23497422.153   -10104824.043 6  -8785928.252 3
  24144124.550    -6875665.621 6  -6144868.652 2
  22442481.184   -23746193.001 8 -10813090.306 6
  22245788.941     4386775.364 8  -8693559.716 6
  23820576.058   -42165537.986 6  -8589766.490 3
  20976107.653    -5331532.949 8 -17017870.670 9
 95  4 19 20 52  0.0020000  0  7 27 26  9 12  2  4  7
  23684314.840     1601462.631 6   2175110.042 2
  23504909.740   -10065499.498 6  -8755285.784 3
  24127277.293    -6964235.986 6  -6213884.446 3
  22432286.801   -23799758.757 8 -10854829.842 6
  22253584.474     4427725.166 8  -8661650.794 6
  23803011.068   -42257863.057 6  -8661708.033 3
  20981414.579    -5303634.194 8 -16996131.391 9
 95  4 19 20 52 30.0020000  0  7 27 26  9 12  2  4  7
  23705153.923     1710928.174 6   2260407.749 2
  23512473.174   -10025752.291 6  -8724314.001 3
  24110443.857    -7052679.684 6  -6282801.581 2
  22422125.635   -23853159.119 8 -10896440.498 6
  22261408.368     4468852.855 8  -8629603.273 6
  23785465.625   -42350058.373 6  -8733548.445 3
  20986787.849    -5275393.458 8 -16974125.624 9
 95  4 19 20 53  0.0020000  0  7 27 26  9 12  2  4  7
  23726021.337     1820618.205 6   2345880.390 2
  23520115.603    -9985565.306 6  -8692999.484 3
  24093641.119    -7140989.506 6  -6351614.373 2
  22411996.847   -23906384.135 8 -10937914.509 7
  22269262.840     4510130.791 8  -8597438.667 6
  23767945.664   -42442133.488 6  -8805295.217 3
  20992229.922    -5246803.433 8 -16951847.690 9
 95  4 19 20 53 30.0020000  0  7 27 26  9 12  2  4  7
  23746945.831     1930566.702 6   2431554.419 2
  23527848.000    -9944933.048 6  -8661338.030 3
  24076866.592    -7229145.799 6  -6420307.517 2
  22401903.495   -23959415.867 8 -10979237.934 7
  22277142.915     4551557.649 8  -8565158.020 6
  23750446.178   -42534088.580 6  -8876948.464 3
  20997743.315    -5217841.229 8 -16929279.746 9
 95  4 19 20 54  0.0020000  0  7 27 26  9 12  2  4  7
  23767916.314     2040789.394 6   2517442.155 2
  23535662.600    -9903866.675 6  -8629338.341 3
  24060116.708    -7317137.191 6  -6488872.173 3
  22391853.972   -24012243.551 8 -11020402.338 6
  22285057.226     4593144.562 8  -8532752.646 6
  23732969.327   -42625921.225 6  -8948506.336 3
  21003327.339    -5188491.738 8 -16906410.019 9
 95  4 19 20 54 30.0020000  0  7 27 26  9 12  2  4  7
  23788938.630     2151249.772 6   2603515.030 2
  23543563.240    -9862372.047 6  -8597004.844 3
  24043397.762    -7404981.457 6  -6557322.196 2
  22381836.767   -24064874.503 8 -11061413.440 6
  22293004.424     4634879.225 8  -8500232.158 6
  23715518.588   -42717632.111 6  -9019969.291 3
  21008987.301    -5158753.642 8 -16883237.473 9
 95  4 19 20 55  0.0020000  0  7 27 26  9 12  2  4  7
  23809998.991     2261930.845 6   2689759.913 2
  23551531.304    -9820467.862 6  -8564352.325 3
  24026707.866    -7492693.730 6  -6625669.351 3
  22371854.787   -24117319.234 8 -11102279.442 6
  22300972.758     4676769.441 8  -8467590.468 6
  23698090.843   -42809201.045 6  -9091321.595 3
  21014718.913    -5128619.662 8 -16859756.463 9
 95  4 19 20 55 30.0020000  0  7 27 26  9 12  2  4  7
  23831110.196     2372868.675 6   2776204.829 2
  23559591.494    -9778133.498 6  -8531364.554 3
  24010047.920    -7580260.078 6  -6693902.811 3
  22361918.166   -24169557.256 8 -11142984.375 6
  22308981.384     4718865.502 8  -8434788.367 6
  23680699.553   -42900592.844 6  -9162535.952 3
  21020533.627    -5098073.982 8 -16835954.631 9
 95  4 19 20 56  0.0020000  0  7 27 26  9 12  2  4  7
  23852259.894     2484024.391 6   2862819.567 2
  23567728.221    -9735368.390 6  -8498041.127 3
  23993410.607    -7667693.721 6  -6762032.831 3
  22352015.122   -24221603.602 8 -11183539.944 6
  22317031.411     4761152.774 8  -8401837.262 6
  23663342.499   -42991810.525 6  -9233614.624 3
  21026418.943    -5067133.940 8 -16811845.514 9
 95  4 19 20 56 30.0020000  0  7 27 26  9 12  2  4  7
  23873454.951     2595375.650 6   2949586.620 2
  23575944.333    -9692183.068 6  -8464390.291 3
  23976800.546    -7755003.662 7  -6830066.537 3
  22342139.629   -24273481.932 8 -11223964.597 6
  22325111.207     4803606.071 8  -8368756.807 6
  23646020.191   -43082871.021 6  -9304570.757 3
  21032379.207    -5035825.363 8 -16787449.226 9
 95  4 19 20 57  0.0020000  0  7 27 26  9 12  2  4  7
  23894681.786     2706941.147 6   3036520.683 2
  23584240.640    -9648584.048 6  -8430417.065 3
  23960205.985    -7842161.116 6  -6897981.366 3
  22332299.031   -24325182.187 8 -11264250.491 7
  22333221.852     4846228.905 8  -8335544.219 6
  23628717.939   -43173766.799 6  -9375398.591 3
  21038402.277    -5004153.738 8 -16762770.044 9
 95  4 19 20 57 30.0020000  0  7 27 26  9 12  2  4  7
  23915952.211     2818710.405 6   3123613.462 2
  23592620.049    -9604567.202 6  -8396118.257 3
  23943658.430    -7929152.149 7  -6965766.520 3
  22322502.173   -24376693.885 8 -11304389.474 7
  22341366.074     4889009.780 8  -8302208.497 6
  23611452.292   -43264501.379 6  -9446100.817 3
  21044496.818    -4972126.713 8 -16737813.927 9
 95  4 19 20 58  0.0020000  0  7 27 26  9 12  2  4  7
  23937260.529     2930666.942 6   3210852.224 2
  23601067.301    -9560140.436 6  -8361500.082 3
  23927137.078    -8015954.018 7  -7033404.272 3
  22312735.744   -24428012.311 8 -11344377.850 7
  22349533.920     4931940.826 8  -8268755.771 6
  23594217.073   -43355062.384 6  -9516667.779 3
  21050663.819    -4939726.424 8 -16712566.949 9
 95  4 19 20 58 30.0020000  0  7 27 26  9 12  2  4  7
  23958600.836     3042813.633 5   3298239.106 2
  23609603.622    -9515324.583 6  -8326578.669 3
  23910652.120    -8102578.485 6  -7100903.821 3
  22303002.263   -24479139.517 8 -11384217.211 7
  22357733.513     4975028.141 8  -8235181.252 6
  23577021.997   -43445440.008 6  -9587091.823 3
  21056902.200    -4906955.533 8 -16687031.196 9
 95  4 19 20 59  0.0020000  0  7 27 26  9 12  2  4  7
  23979963.807     3155121.628 5   3385751.684 2
  23618200.680    -9470147.132 6  -8291375.497 3
  23894200.079    -8189043.791 6  -7168279.333 3
  22293310.542   -24530086.210 8 -11423915.927 7
  22365957.330     5018263.435 8  -8201491.452 6
  23559857.470   -43535637.083 6  -9657375.217 3
  21063206.326    -4873827.591 8 -16661217.228 9
 95  4 19 20 59 30.0020000  0  7 27 26  9 12  2  4  7
  24001375.913     3267589.676 5   3473388.982 2
  23626867.770    -9424596.293 6  -8255881.416 3
  23877777.419    -8275357.412 6  -7235536.625 3
  22283649.610   -24580850.116 8 -11463472.205 7
  22374216.073     5061654.108 8  -8167680.567 6
  23542727.749   -43625647.062 6  -9727512.807 3
  21069580.333    -4840330.050 8 -16635115.258 9
 95  4 19 21  0  0.0020000  0  7 27 26  9 12  2  4  7
  24022805.738     3380236.786 5   3561165.829 2
  23635610.407    -9378664.989 6  -8220090.818 3
  23861383.508    -8361515.984 6  -7302673.130 3
  22274027.801   -24631426.936 8 -11502882.693 7
  22382506.683     5105213.562 8  -8133738.161 6
  23525637.510   -43715454.626 6  -9797492.668 3
  21076023.173    -4806459.485 8 -16608722.606 9
 95  4 19 21  0 30.0020000  0  7 27 26  9 12  2  4  7
  24044278.462     3493069.601 5   3649087.346 2
  23644423.436    -9332340.478 6  -8183993.815 3
  23845013.401    -8447531.210 6  -7369697.953 3
  22264439.539   -24681810.431 8 -11542142.543 7
  22390829.491     5148945.298 8  -8099661.524 6
  23508585.375   -43805068.605 6  -9867321.663 3
  21082535.744    -4772236.011 8 -16582054.971 9
 95  4 19 21  1  0.0020000  0  7 27 26  9 12  2  4  7
  24065789.351     3606092.703 5   3737157.133 2
  23653318.338    -9285612.019 6  -8147582.129 3
  23828678.759    -8533386.722 6  -7436598.280 3
  22254888.002   -24731995.355 8 -11581247.668 7
  22399182.549     5192847.264 8  -8065452.213 6
  23491566.727   -43894502.453 6  -9937010.314 3
  21089116.968    -4737654.831 8 -16555108.595 9
 95  4 19 21  1 30.0020000  0  7 27 26  9 12  2  4  7
  24087330.728     3719309.018 5   3825377.543 2
  23662284.591    -9238474.731 6  -8110851.768 3
  23812367.921    -8619080.843 6  -7503372.866 3
  22245374.178   -24781983.492 8 -11620199.450 7
  22407567.834     5236914.872 7  -8031113.864 6
  23474581.326   -43983765.532 6 -10006565.881 3
  21095764.176    -4702722.662 8 -16527888.727 9
 95  4 19 21  2  0.0020000  0  7 27 26  9 12  2  4  7
  24108908.770     3832716.794 5   3913747.071 2
  23671329.150    -9190945.067 6  -8073815.740 3
  23796096.265    -8704605.370 6  -7570015.330 3
  22235899.267   -24831776.827 8 -11658999.439 7
  22415980.759     5281143.471 7  -7996650.043 6
  23457624.494   -44072864.473 6 -10075993.569 3
  21102476.380    -4667450.382 8 -16500403.838 9
 95  4 19 21  2 30.0020000  0  7 27 26  9 12  2  4  7
  24130529.682     3946306.451 5   4002258.376 2
  23680447.607    -9143030.640 6  -8036479.886 3
  23779852.880    -8789942.846 6  -7636511.992 3
  22226463.270   -24881370.394 8 -11697643.761 7
  22424428.551     5325537.247 7  -7962057.518 6
  23440704.238   -44161800.668 6 -10145294.423 3
  21109256.636    -4631831.597 8 -16472648.943 9
 95  4 19 21  3  0.0020000  0  7 27 26  9 12  2  4  7
  24152177.545     4060084.522 5   4090916.448 2
  23689633.368    -9094748.329 6  -7998857.315 3
  23763647.899    -8875067.095 6  -7702842.532 3
  22217065.196   -24930752.918 8 -11736123.649 7
  22432909.890     5370101.810 7  -7927331.927 6
  23423812.372   -44250553.862 6 -10214452.684 3
  21116103.296    -4595851.544 8 -16444612.548 9
 95  4 19 21  3 30.0020000  0  7 27 26  9 12  2  4  7
  24173864.352     4174053.483 5   4179723.294 2
  23698893.987    -9046096.527 6  -7960946.899 3
  23747498.679    -8959969.119 6  -7768999.886 3
  22207710.472   -24979905.455 8 -11774424.312 7
  22441425.554     5414852.242 7  -7892461.481 6
  23406966.075   -44339093.228 6 -10283444.333 3
  21123020.767    -4559507.390 8 -16416292.424 9
 95  4 19 21  4  0.0020000  0  7 27 26  9 12  2  4  7
  24195596.337     4288219.889 5   4268683.968 2
  23708223.019    -8997073.489 6  -7922747.186 3
  23731387.892    -9044644.298 6  -7834980.536 3
  22198404.554   -25028812.785 8 -11812533.921 7
  22449981.841     5459795.866 7  -7857440.499 5
  23390156.861   -44427397.834 6 -10352253.055 3
  21130001.734    -4522789.728 8 -16387681.274 9
 95  4 19 21  4 30.0020000  0  7 27 26  9 12  2  4  7
  24217348.858     4402560.880 5   4357780.730 2
  23717623.701    -8947689.188 6  -7884265.936 3
  23715307.354    -9129110.151 6  -7900798.039 3
  22189143.755   -25077481.680 9 -11850457.725 7
  22458566.338     5504922.658 7  -7822276.789 5
  23373400.112   -44515474.486 6 -10420884.127 4
  21137060.527    -4485707.492 8 -16358786.026 9
 95  4 19 21  5  0.0020000  0  7 27 26  9 12  2  4  7
  24239140.982     4517070.266 5   4447008.637 2
  23727089.168    -8897944.893 6  -7845504.219 2
  23699274.724    -9213400.002 6  -7966478.378 3
  22179930.983   -25125920.291 9 -11888202.083 7
  22467184.112     5550218.364 7  -7786981.469 5
  23356684.614   -44603326.759 6 -10489340.387 4
  21144186.594    -4448270.163 8 -16329614.095 9
 95  4 19 21  5 30.0020000  0  7 27 26  9 12  2  4  7
  24260964.614     4631758.247 5   4536375.773 2
  23736625.746    -8847799.419 6  -7806429.882 3
  23683270.273    -9297501.862 6  -8032012.261 3
  22170756.225   -25174114.902 9 -11925756.318 7
  22475841.998     5595702.573 7  -7751539.252 5
  23340009.018   -44690939.227 6 -10557609.769 4
  21151381.373    -4410459.619 8 -16300151.337 9
 95  4 19 21  6  0.0020000  0  7 27 26  9 12  2  4  7
  24282828.747     4746640.697 5   4625894.373 2
  23746249.564    -8797241.521 6  -7767034.135 3
  23667301.528    -9381397.720 6  -8097385.614 3
  22161630.812   -25222064.449 9 -11963119.591 7
  22484534.960     5641376.371 7  -7715949.316 5
  23323383.218   -44778323.453 6 -10625701.326 4
  21158650.741    -4372266.311 8 -16270390.317 9
 95  4 19 21  6 30.0020000  0  7 27 26  9 12  2  4  7
  24304723.670     4861705.321 5   4715554.989 2
  23755942.243    -8746277.807 6  -7727322.240 3
  23651379.910    -9465088.966 7  -8162599.508 3
  22152550.548   -25269781.477 9 -12000301.676 7
  22493257.662     5687226.078 7  -7680222.314 5
  23306788.716   -44865491.274 6 -10693624.208 4
  21165984.684    -4333706.416 8 -16240343.661 9
 95  4 19 21  7  0.0020000  0  7 27 26  9 12  2  4  7
  24326647.582     4976956.241 5   4805360.699 2
  23765718.625    -8694916.626 6  -7687300.566 3
  23635490.880    -9548579.339 6  -8227656.905 3
  22143513.934   -25317272.376 8 -12037307.567 7
  22502015.379     5733236.842 7  -7644369.788 5
  23290246.438   -44952437.781 6 -10761374.697 4
  21173391.956    -4294800.941 8 -16210027.718 9
 95  4 19 21  7 30.0020000  0  7 27 26  9 12  2  4  7
  24348619.402     5092389.280 5   4895308.428 2
  23775563.510    -8643174.785 6  -7646982.277 3
  23619646.369    -9631840.022 7  -8292535.322 3
  22134519.261   -25364537.819 8 -12074137.760 7
  22510802.626     5779412.317 7  -7608388.945 5
  23273745.171   -45039166.483 6 -10828955.425 4
  21180857.627    -4255562.765 8 -16179452.534 9
 95  4 19 21  8  0.0020000  0  7 27 26  9 12  2  4  7
  24370621.410     5208004.160 5   4985397.751 2
  23785483.193    -8591072.416 6  -7606383.129 3
  23603846.107    -9714872.188 7  -8357235.664 4
  22125568.538   -25411573.355 8 -12110788.813 7
  22519617.693     5825762.649 7  -7572271.839 5
  23257282.249   -45125670.251 6 -10896360.921 4
  21188383.857    -4216005.252 8 -16148628.502 9
 95  4 19 21  8 30.0020000  0  7 27 26  9 12  2  4  7
  24392649.560     5323782.178 5   5075614.292 2
  23795464.423    -8538626.703 6  -7565516.348 3
  23588083.979    -9797686.990 7  -8421766.625 4
  22116662.663   -25458376.804 8 -12147259.029 7
  22528476.710     5872293.254 7  -7536014.247 5
  23240870.320   -45211927.580 6 -10963574.359 4
  21195970.735    -4176136.126 8 -16117561.665 9
 95  4 19 21  9  0.0020000  0  7 27 26  9 12  2  4  7
  24414715.604     5439706.804 6   5165944.941 2
  23805506.301    -8485850.081 6  -7524391.753 3
  23572365.111    -9880287.805 7  -8486130.844 4
  22107801.068   -25504947.775 8 -12183548.078 7
  22537370.173     5919018.484 7  -7499605.010 5
  23224500.213   -45297946.778 6 -11030602.237 4
  21203620.329    -4135949.548 8 -16086247.451 9
 95  4 19 21  9 30.0020000  0  7 27 26  9 12  2  4  7
  24436800.265     5555764.982 6   5256379.779 2
  23815613.354    -8432745.866 6  -7483011.931 3
  23556692.471    -9962677.141 7  -8550330.313 4
  22098981.923   -25551285.681 8 -12219655.523 7
  22546298.053     5965947.013 7  -7463037.361 5
  23208174.145   -45383725.612 7 -11097442.843 4
  21211326.644    -4095441.436 8 -16054682.713 9
 95  4 19 21 10  0.0020000  0  8 27 26  9 12  2 24  4  7
  24458904.083     5671951.055 5   5346914.173 2
  23825780.635    -8379303.195 6  -7441368.317 3
  23541051.759   -10044860.274 6  -8614369.067 4
  22090210.865   -25597379.468 9 -12255572.750 8
  22555268.832     6013075.391 7  -7426313.989 5
  25189915.524    -5705411.61515  -1805910.800 2
  23191900.541   -45469243.432 7 -11164080.048 4
  21219097.355    -4054607.016 8 -16022863.693 9
 95  4 19 21 10 30.0020000  0  8 27 26  9 12  2 24  4  7
  24481048.733     5788288.568 5   5437566.688 2
  23836025.203    -8325483.059 6  -7399430.606 3
  23525455.266   -10126802.765 6  -8678220.303 4
  22081494.220   -25643194.212 9 -12291272.532 8
  22564273.608     6060418.289 7  -7389423.449 5
  25170289.101    -5808551.815 4  -1886279.584 2
  23175683.358   -45554466.252 7 -11230487.355 4
  21226934.649    -4013407.370 8 -15990760.080 9
 95  4 19 21 11  0.0020000  0  8 27 26  9 12  2 24  4  7
  24503219.524     5904808.611 5   5528361.325 2
  23846343.610    -8271243.546 6  -7357166.115 3
  23509913.815   -10208477.333 6  -8741862.813 3
  22072831.687   -25688705.703 9 -12326736.022 8
  22573327.311     6107994.294 7  -7352351.273 5
  25150666.576    -5911668.102 4  -1966629.806 2
  23159527.962   -45639374.894 7 -11296649.878 4
  21234848.480    -3971832.142 8 -15958363.813 9
 95  4 19 21 11 30.0020000  0  8 27 26  9 12  2 24  4  7
  24525430.098     6021531.061 5   5619313.772 2
  23856747.337    -8216581.768 6  -7314572.550 3
  23494424.378   -10289878.823 6  -8805292.492 3
  22064229.532   -25733910.824 9 -12361960.771 8
  22582420.705     6155784.550 7  -7315112.141 5
  25131064.166    -6014759.550 4  -2046960.593 2
  23143431.056   -45723957.666 7 -11362558.466 4
  21242830.784    -3929896.086 8 -15925686.375 9
 95  4 19 21 12  0.0020000  0  8 27 26  9 12  2 24  4  7
  24547682.133     6138445.520 5   5710415.721 2
  23867225.683    -8161509.588 6  -7271659.274 3
  23478977.872   -10371013.305 6  -8868514.133 4
  22055681.190   -25778821.738 9 -12396956.270 8
  22591552.743     6203774.041 7  -7277717.780 5
  25111434.146    -6117849.344 4  -2127290.160 2
  23127395.397   -45808235.019 7 -11428229.078 4
  21250876.075    -3887608.305 8 -15892734.880 9
 95  4 19 21 12 30.0020000  0  8 27 26  9 12  2 24  4  7
  24569964.957     6255556.121 5   5801670.586 2
  23877776.190    -8106035.319 6  -7228432.618 3
  23463595.881   -10451892.833 6  -8931537.098 3
  22047191.697   -25823449.729 9 -12431731.315 8
  22600721.446     6251969.962 7  -7240162.547 5
  25091820.374    -6220965.394 5  -2207640.225 2
  23111413.491   -45892232.145 7 -11493681.318 4
  21258987.349    -3844977.757 8 -15859516.291 9
 95  4 19 21 13  0.0020000  0  8 27 26  9 12  2 24  4  7
  24592293.949     6372880.343 5   5893091.866 2
  23888415.944    -8050165.634 6  -7184897.849 3
  23448255.201   -10532504.567 6  -8994351.432 3
  22038751.190   -25867790.928 8 -12466282.870 8
  22609937.876     6300379.184 7  -7202441.113 5
  25072189.305    -6324114.486 5  -2288016.000 2
  23095479.852   -45975948.297 7 -11558914.597 4
  21267167.217    -3802000.615 8 -15826027.618 9
 95  4 19 21 13 30.0020000  0  8 27 26  9 12  2 24  4  7
  24614659.486     6490424.584 5   5984684.578 2
  23899117.125    -7993910.197 6  -7141062.536 3
  23432964.766   -10612823.549 6  -9056937.600 3
  22030371.271   -25911829.724 8 -12500598.805 8
  22619196.576     6349017.856 7  -7164540.876 5
  25052553.138    -6427280.514 4  -2368404.965 2
  23079606.711   -46059370.127 7 -11623918.554 5
  21275416.366    -3758644.266 8 -15792243.470 9
 95  4 19 21 14  0.0020000  0  8 27 26  9 12  2 24  4  7
  24637063.336     6608170.149 5   6076434.215 2
  23909902.279    -7937269.827 6  -7096927.194 3
  23417744.693   -10692838.246 7  -9119286.669 4
  22022049.902   -25955561.571 8 -12534675.554 8
  22628495.958     6397900.811 7  -7126450.294 5
  25032917.512    -6530453.747 4  -2448799.524 1
  23063787.982   -46142494.899 7 -11688691.041 5
  21283745.799    -3714887.419 8 -15758147.227 9
 95  4 19 21 14 30.0020000  0  8 27 26  9 12  2 24  4  7
  24659507.898     6726108.860 5   6168334.321 2
  23920745.922    -7880239.885 6  -7052488.336 3
  23402574.954   -10772530.887 7  -9181384.829 3
  22013786.513   -25998975.327 9 -12568504.449 8
  22637847.894     6447038.480 7  -7088161.242 5
  25013292.468    -6633614.679 5  -2529184.619 1
  23048026.273   -46225308.252 7 -11753220.841 5
  21292151.170    -3670717.365 8 -15723729.021 9
 95  4 19 21 15  0.0020000  0  8 27 26  9 12  2 24  4  7
  24681983.219     6844240.531 5   6260384.769 2
  23931678.364    -7822813.902 6  -7007740.911 3
  23387478.546   -10851882.123 7  -9243216.932 4
  22005593.545   -26042052.692 9 -12602071.215 8
  22647242.910     6496438.058 7  -7049668.113 5
  24993670.182    -6736733.878 5  -2609537.076 1
  23032334.087   -46307770.660 7 -11817477.194 5
  21300636.316    -3626117.544 8 -15688975.924 9
 95  4 19 21 15 30.0020000  0  8 27 26  9 12  2 24  4  7
  24704505.247     6962563.337 5   6352584.189 2
  23942686.593    -7764981.390 6  -6962676.629 3
  23372443.504   -10930882.647 7  -9304775.735 4
  21997460.745   -26084778.382 9 -12635363.944 8
  22656704.300     6546122.506 7  -7010952.967 5
  24974043.729    -6839791.733 5  -2689841.719 1
  23016714.300   -46389860.781 7 -11881443.433 5
  21309207.443    -3581072.504 8 -15653875.901 9
 95  4 19 21 16  0.0020000  0  8 27 26  9 12  2 24  4  7
  24727064.599     7081087.515 5   6444940.514 2
  23953768.631    -7706726.157 6  -6917283.055 3
  23357478.854   -11009536.251 7  -9366064.243 4
  21989400.885   -26127138.260 9 -12668371.629 8
  22666210.719     6596102.171 7  -6972007.813 5
  24954467.672    -6942771.555 5  -2770085.589 2
  23001166.644   -46471561.543 7 -11945106.296 5
  21317864.609    -3535587.316 8 -15618432.904 9
 95  4 19 21 16 30.0020000  0  8 27 26  9 12  2 24  4  7
  24749648.925     7199820.769 5   6537459.767 2
  23964930.924    -7648067.811 6  -6871575.316 3
  23342573.413   -11087863.058 7  -9427098.075 4
  21981410.246   -26169139.849 9 -12701100.133 8
  22675777.036     6646362.456 7  -6932843.970 5
  24934881.930    -7045683.990 5  -2850276.919 2
  22985698.072   -46552862.234 7 -12008457.409 5
  21326593.816    -3489707.177 8 -15582682.155 9
 95  4 19 21 17  0.0020000  0  8 27 26  9 12  2 24  4  7
  24772289.971     7318777.500 5   6630153.102 2
  23976166.216    -7589025.231 6  -6825568.173 3
  23327726.341   -11165875.371 7  -9487886.848 4
  21973482.475   -26210783.723 8 -12733549.887 8
  22685391.051     6696890.673 7  -6893471.366 5
  24915301.226    -7148532.235 5  -2930418.238 2
  22970303.460   -46633768.289 7 -12071501.001 5
  21335396.143    -3443451.198 8 -15546638.548 9
 95  4 19 21 17 30.0020000  0  8 27 26  9 12  2 24  4  7
  24794974.187     7437947.816 5   6723012.922 2
  23987474.087    -7529617.785 6  -6779276.763 2
  23312942.496   -11243580.182 7  -9548436.033 4
  21965624.644   -26252080.179 9 -12765728.940 8
  22695053.991     6747665.769 7  -6853906.392 5
  24895741.657    -7251324.975 5  -3010516.243 2
  22954971.684   -46714307.259 7 -12134258.566 5
  21344265.922    -3396839.814 8 -15510317.992 9
 95  4 19 21 18  0.0020000  0  8 27 26  9 12  2 24  4  7
  24817693.808     7557333.101 5   6816040.193 2
  23998838.080    -7469845.676 6  -6732701.088 3
  23298210.125   -11320969.856 7  -9608739.652 4
  21957834.837   -26293028.978 9 -12797637.076 8
  22704759.232     6798675.367 7  -6814158.686 5
  24876195.758    -7354062.640 5  -3090571.358 2
  22939720.012   -46794477.477 7 -12196728.789 5
  21353200.667    -3349893.698 8 -15473736.615 9
 95  4 19 21 18 30.0020000  0  8 27 26  9 12  2 24  4  7
  24840444.428     7676921.442 5   6909225.738 2
  24010291.351    -7409710.658 6  -6685842.729 2
  23283547.456   -11398022.736 7  -9668780.800 4
  21950106.697   -26333630.646 9 -12829274.726 8
  22714511.961     6849911.776 7  -6774234.242 5
  24856647.971    -7456743.560 5  -3170582.308 2
  22924531.867   -46874284.878 7 -12258916.306 5
  21362199.987    -3302606.681 8 -15436889.597 9
 95  4 19 21 19  0.0020000  0  8 27 26  9 12  2 24  4  7
  24863232.822     7796693.549 5   7002554.395 2
  24021807.009    -7349196.759 6  -6638689.141 2
  23268953.019   -11474725.305 7  -9728548.977 4
  21942447.570   -26373884.307 9 -12860641.202 8
  22724305.760     6901377.706 7  -6734130.947 5
  24837120.030    -7559375.177 5  -3250554.770 2
  22909408.357   -46953752.962 7 -12320839.412 5
  21371266.700    -3254956.283 8 -15399759.438 9
 95  4 19 21 19 30.0020000  0  8 27 26  9 12  2 24  4  7
  24886060.849     7916627.045 5   7096008.881 2
  24033393.508    -7288290.109 6  -6591229.448 3
  23254428.704   -11551071.744 7  -9788039.706 4
  21934851.159   -26413798.313 9 -12891743.023 8
  22734139.882     6953074.493 7  -6693847.776 4
  24817598.234    -7661964.344 5  -3330494.185 2
  22894352.270   -47032867.503 7 -12382487.015 5
  21380401.616    -3206952.484 8 -15362353.885 9
 95  4 19 21 20  0.0020000  0  8 27 26  9 12  2 24  4  7
  24908910.190     8036705.331 5   7189576.224 2
  24045061.880    -7226989.501 6  -6543462.838 2
  23239965.667   -11627071.018 7  -9847259.878 4
  21927320.732   -26453378.898 9 -12922585.032 8
  22744022.121     7005007.357 7  -6653380.643 4
  24798079.167    -7764523.488 5  -3410410.233 2
  22879366.874   -47111615.092 7 -12443848.727 5
  21389600.778    -3158612.419 8 -15324686.319 9
 95  4 19 21 20 30.0020000  0  8 27 26  9 12  2 24  4  7
  24931785.674     8156923.595 5   7283252.543 2
  24056799.264    -7165300.982 6  -6495393.895 3
  23225568.224   -11702727.483 7  -9906212.918 4
  21919851.133   -26492626.374 9 -12953167.465 8
  22753957.843     7057192.257 7  -6612717.116 4
  24778574.100    -7867058.445 5  -3490307.399 2
  22864452.979   -47189999.469 7 -12504927.384 5
  21398865.803    -3109920.828 8 -15286744.833 9
 95  4 19 21 21  0.0020000  0  8 27 26  9 12  2 24  4  7
  24954695.844     8277315.605 5   7377064.316 2
  24068616.603    -7103215.445 6  -6447015.618 2
  23211236.226   -11778035.216 7  -9964894.257 4
  21912448.927   -26531520.484 9 -12983474.554 8
  22763940.992     7109666.070 7  -6571828.461 4
  24759073.380    -7969551.391 5  -3570171.812 2
  22849612.502   -47267985.162 7 -12565695.421 5
  21408201.311    -3060863.829 8 -15248518.616 9
 95  4 19 21 21 30.0020000  0  8 27 26  9 12  2 24  4  7
  24977645.256     8397894.738 5   7471021.904 2
  24080497.768    -7040752.773 6  -6398343.536 2
  23196976.267   -11852997.916 7 -10023306.698 4
  21905115.974   -26570052.823 9 -13013499.752 8
  22773982.120     7162433.641 7  -6530710.908 4
  24739575.688    -8071974.629 5  -3649981.952 2
  22834854.109   -47345547.031 7 -12626133.148 5
  21417604.991    -3011446.261 8 -15210011.431 9
 95  4 19 21 22  0.0020000  0  9  5 27 26  9 12  2 24  4  7
  25469527.573   -31519688.20114  -2569962.819 1
  25000624.558     8518649.445 5   7565116.247 2
  24092452.262    -6977948.781 6  -6349405.376 2
  23182765.835   -11927642.638 7 -10081471.380 4
  21897851.193   -26608232.769 9 -13043250.346 8
  22784078.261     7215482.464 7  -6489374.180 4
  24720098.922    -8174331.740 5  -3729740.571 2
  22820167.847   -47422721.476 7 -12686269.025 5
  21427079.122    -2961662.722 8 -15171219.079 9
 95  4 19 21 22 30.0020000  0  9  5 27 26  9 12  2 24  4  7
  25455342.653   -31594245.907 4  -2628059.618 1
  25023630.001     8639562.447 5   7659333.988 2
  24104462.848    -6914824.407 6  -6300217.623 2
  23168621.207   -12001983.421 7 -10139399.231 4
  21890653.536   -26646074.286 9 -13072737.230 8
  22794216.163     7268787.073 7  -6447838.146 4
  24700633.187    -8276628.771 5  -3809452.382 2
  22805547.958   -47499542.910 7 -12746129.833 5
  21436620.886    -2911513.121 8 -15132141.484 9
 95  4 19 21 23  0.0020000  0  9  5 27 26  9 12  2 24  4  7
  25441149.189   -31668804.545 4  -2686157.140 1
  25046676.936     8760625.189 5   7753668.348 2
  24116534.770    -6851382.539 6  -6250782.513 2
  23154530.752   -12076029.454 7 -10197097.427 4
  21883512.210   -26683579.093 9 -13101961.754 8
  22804401.701     7322321.553 7  -6406123.008 4
  24681179.445    -8378858.598 5  -3889111.830 2
  22790994.833   -47576008.675 7 -12805713.513 5
  21446230.554    -2861019.143 8 -15092795.536 9
 95  4 19 21 23 30.0020000  0  9  5 27 26  9 12  2 24  4  7
  25426964.599   -31743363.628 4  -2744254.950 1
  25069726.509     8881817.714 5   7848103.929 2
  24128669.110    -6787618.560 6  -6201096.328 2
  23140495.878   -12149770.015 7 -10254557.552 4
  21876441.245   -26720745.687 9 -13130922.729 8
  22814638.474     7376069.230 7  -6364241.737 4
  24661733.647    -8481020.688 5  -3968718.516 2
  22776511.829   -47652133.002 7 -12865031.087 5
  21455904.616    -2810179.636 8 -15053180.353 9
 95  4 19 21 24  0.0020000  0  9  5 27 26  9 12  2 24  4  7
  25412774.822   -31817916.658 4  -2802348.143 1
  25092819.942     9003127.524 4   7942630.830 2
  24140863.708    -6723518.954 6  -6151148.695 2
  23126524.980   -12223189.648 7 -10311767.621 5
  21869433.536   -26757572.344 9 -13159618.809 8
  22824901.809     7430030.849 7  -6322193.747 4
  24642309.284    -8583127.675 5  -4048282.260 2
  22762090.403   -47727919.427 7 -12924085.380 5
  21465642.085    -2758995.137 8 -15013296.341 9
 95  4 19 21 24 30.0020000  0  9  5 27 26  9 12  2 24  4  7
  25398593.350   -31892472.786 4  -2860443.712 1
  25115922.788     9124549.311 4   8037244.912 1
  24153128.817    -6659083.260 6  -6100939.116 2
  23112619.197   -12296272.561 7 -10368715.331 5
  21862489.324   -26794062.372 9 -13188052.594 8
  22835215.989     7484201.855 7  -6279982.628 4
  24622883.632    -8685189.361 5  -4127810.686 2
  22747732.413   -47803351.209 7 -12982863.363 5
  21475446.198    -2707494.221 8 -14973165.774 9
 95  4 19 21 25  0.0020000  0  9  5 27 26  9 12  2 24  4  7
  25384404.982   -31967027.517 4  -2918537.929 1
  25139035.648     9246087.050 4   8131949.518 1
  24165449.957    -6594324.164 6  -6050477.552 2
  23098777.239   -12369013.886 7 -10425396.852 5
  21855610.196   -26830214.945 9 -13216223.417 8
  22845562.576     7538584.835 7  -6237606.312 4
  24603470.272    -8787204.117 5  -4207302.562 2
  22733452.638   -47878410.338 7 -13041350.925 5
  21485303.044    -2655691.856 8 -14932800.301 9
 95  4 19 21 25 30.0020000  0  9  5 27 26  9 12  2 24  4  7
  25370214.816   -32041576.941 4  -2976628.167 1
  25162205.618     9367744.364 4   8226747.099 1
  24177835.133    -6529242.964 6  -5999765.016 2
  23085002.825   -12441401.887 7 -10481803.044 5
  21848794.025   -26866024.259 9 -13244126.769 8
  22855951.854     7593198.669 7  -6195050.107 4
  24584070.882    -8889164.893 5  -4286752.382 2
  22719242.146   -47953083.447 7 -13099537.690 5
  21495219.069    -2603578.192 8 -14892192.264 9
 95  4 19 21 26  0.0020000  0  9  5 27 26  9 12  2 24  4  7
  25356036.161   -32116130.396 4  -3034721.583 1
  25185371.570     9489519.591 4   8321636.651 1
  24190281.017    -6463854.537 6  -5948813.035 2
  23071287.620   -12513449.282 7 -10537943.853 5
  21842045.067   -26901495.074 9 -13271766.360 8
  22866394.974     7648037.755 7  -6152318.391 4
  24564668.974    -8991086.957 5  -4366172.016 2
  22705108.790   -48027361.920 7 -13157416.950 5
  21505191.156    -2551174.476 8 -14851358.215 9
 95  4 19 21 26 30.0020000  0  9  5 27 26  9 12  2 24  4  7
  25341830.945   -32190687.685 4  -3092818.056 1
  25208565.463     9611413.457 4   8416618.762 1
  24202784.101    -6398171.146 6  -5897631.324 2
  23057644.335   -12585166.633 7 -10593827.463 5
  21835359.006   -26936630.759 9 -13299144.803 8
  22876867.264     7703088.934 7  -6109421.424 4
  24545292.877    -9092966.989 5  -4445558.878 2
  22691047.954   -48101237.365 7 -13214982.165 5
  21515215.256    -2498488.094 8 -14810303.904 9
 95  4 19 21 27  0.0020000  0  9  5 27 26  9 12  2 24  4  7
  25327647.405   -32265256.081 4  -3150923.224 1
  25231781.001     9733414.498 4   8511684.283 1
  24215329.007    -6332213.917 6  -5846236.124 2
  23044054.083   -12656576.541 7 -10649471.518 5
  21828733.442   -26971442.995 9 -13326271.216 8
  22887381.016     7758335.526 7  -6066372.157 5
  24525914.293    -9194815.523 5  -4524921.219 2
  22677064.015   -48174724.330 7 -13272244.684 5
  21525297.637    -2445526.107 8 -14769034.833 9
 95  4 19 21 27 30.0020000  0  9  5 27 26  9 12  2 24  4  7
  25313451.092   -32339845.603 4  -3209044.833 1
  25255012.788     9855493.864 4   8606810.961 1
  24227933.031    -6265993.797 5  -5794636.117 2
  23030520.852   -12727689.410 7 -10704884.111 5
  21822170.386   -27005940.909 9 -13353152.696 8
  22897925.736     7813770.809 7  -6023175.895 5
  24506519.639    -9296650.124 5  -4604272.719 2
  22663150.108   -48247840.513 7 -13329218.262 5
  21535423.786    -2392294.370 8 -14727555.575 9
 95  4 19 21 28  0.0020000  0  9  5 27 26  9 12  2 24  4  7
  25299242.519   -32414457.119 3  -3267183.568 1
  25278265.171     9977645.803 5   8701994.044 1
  24240587.091    -6199520.845 6  -5742839.110 2
  23017048.509   -12798490.173 7 -10760053.507 5
  21815665.879   -27040121.504 9 -13379786.919 8
  22908507.540     7869387.149 7  -5979838.509 5
  24487159.372    -9398455.618 5  -4683601.505 2
  22649304.823   -48320595.231 7 -13385910.178 5
  21545606.837    -2338796.001 8 -14685868.560 9
 95  4 19 21 28 30.0020000  0  9  5 27 26  9 12  2 24  4  7
  25285061.586   -32489076.766 3  -3325328.692 1
  25301520.552    10099876.009 5   8797238.036 1
  24253274.787    -6132792.487 5  -5690843.048 2
  23003641.460   -12868960.635 7 -10814965.523 5
  21809224.508   -27073970.161 9 -13406162.493 8
  22919132.065     7925204.995 7  -5936344.126 5
  24467793.889    -9500195.765 5  -4762879.404 2
  22635531.398   -48392982.528 7 -13442315.825 5
  21555842.441    -2285006.629 8 -14643954.757 9
 95  4 19 21 29  0.0020000  0  8  5 26  9 12  2 24  4  7
  25270861.736   -32563708.720 4  -3383483.358 2
  24266028.948    -6065804.000 5  -5638644.340 2
  22990296.379   -12939090.071 7 -10869611.809 5
  21802847.323   -27107477.310 9 -13432271.955 9
  22929799.400     7981241.840 7  -5892679.100 5
  24448439.468    -9601864.072 5  -4842101.277 2
  22621823.837   -48465005.929 7 -13498437.885 5
  21566135.365    -2230916.303 8 -14601806.476 9
 95  4 19 21 29 30.0020000  0  8  5 26  9 12  2 24  4  7
  25256643.959   -32638354.448 4  -3441648.709 2
  24278829.456    -5998545.038 5  -5586234.812 2
  22977017.762   -13008863.967 7 -10923981.056 5
  21796539.630   -27140634.293 9 -13458108.555 9
  22940499.143     8037503.452 7  -5848838.921 5
  24429120.242    -9703447.758 5  -4921257.268 2
  22608189.576   -48536664.866 7 -13554275.968 5
  21576483.511    -2176525.662 8 -14559424.172 9
 95  4 19 21 30  0.0020000  0  8  5 26  9 12  2 24  4  7
  25242438.264   -32713022.521 4  -3499831.547 2
  24291677.332    -5931005.987 5  -5533607.042 2
  22963808.396   -13078276.237 7 -10978068.495 5
  21790298.700   -27173434.513 9 -13483667.166 9
  22951243.974     8093986.206 7  -5804826.441 5
  24409800.327    -9804938.771 5  -5000341.033 2
  22594623.458   -48607947.553 7 -13609820.843 5
  21586890.986    -2121845.878 8 -14516816.557 9
 95  4 19 21 30 30.0020000  0  8  5 26  9 12  2 24  4  7
  25228234.966   -32787712.277 4  -3558031.234 2
  24304587.774    -5863178.981 5  -5480754.950 2
  22950666.904   -13147336.082 7 -11031881.336 5
  21784123.365   -27205880.049 9 -13508949.391 9
  22962040.970     8150693.326 7  -5760639.121 5
  24390507.303    -9906363.961 5  -5079373.533 2
  22581134.776   -48678841.609 7 -13665062.921 5
  21597349.756    -2066879.312 8 -14473985.476 9
 95  4 19 21 31  0.0020000  0  8  5 26  9 12  2 24  4  7
  25214012.512   -32862420.548 4  -3616245.421 1
  24317553.828    -5795054.221 5  -5427670.779 2
  22937591.786   -13216045.343 7 -11085421.004 5
  21778018.242   -27237973.286 9 -13533957.106 9
  22972879.936     8207617.109 7  -5716282.974 5
  24371217.607   -10007731.784 5  -5158361.338 2
  22567716.605   -48749341.472 7 -13719997.833 5
  21607862.248    -2011635.414 8 -14430938.297 9
 95  4 19 21 31 30.0020000  0  8  5 26  9 12  2 24  4  7
  25199797.433   -32937140.260 4  -3674468.485 1
  24330563.951    -5726638.253 5  -5374359.764 2
  22924587.898   -13284402.604 7 -11138686.377 5
  21771980.392   -27269714.314 9 -13558690.368 9
  22983747.683     8264754.823 7  -5671760.111 5
  24351937.474   -10109032.933 6  -5237297.187 2
  22554380.158   -48819441.449 7 -13774621.143 5
  21618427.204    -1956123.424 8 -14387682.225 9
 95  4 19 21 32  0.0020000  0  8  5 26  9 12  2 24  4  7
  25185576.238   -33011871.416 5  -3732700.451 1
  24343642.667    -5657950.819 5  -5320837.117 2
  22911640.341   -13352423.062 7 -11191689.286 5
  21766001.121   -27301108.885 9 -13583153.659 9
  22994661.387     8322105.087 7  -5627071.635 4
  24332672.242   -10210272.154 6  -5316184.772 2
  22541115.211   -48889144.322 7 -13828935.006 5
  21629042.915    -1900343.217 8 -14344217.129 9
 95  4 19 21 32 30.0020000  0  8  5 26  9 12  2 24  4  7
  25171350.786   -33086613.020 5  -3790940.565 1
  24356768.450    -5589008.577 5  -5267115.977 2
  22898755.801   -13420121.396 7 -11244441.208 5
  21760091.372   -27332163.828 9 -13607352.311 9
  23005614.964     8379675.259 7  -5582211.827 4
  24313420.259   -10311446.412 6  -5395021.707 2
  22527923.353   -48958462.481 7 -13882949.107 5
  21639709.111    -1844291.434 9 -14300540.434 9
 95  4 19 21 33  0.0020000  0  8  5 26  9 12  2 24  4  7
  25157125.424   -33161387.385 5  -3849206.261 2
  24369914.409    -5519838.750 5  -5213217.549 2
  22885933.408   -13487515.078 7 -11296955.756 5
  21754245.929   -27362889.497 9 -13631294.381 9
  23016612.491     8437454.722 7  -5537188.900 4
  24294184.586   -10412542.616 6  -5473797.829 2
  22514804.345   -49027417.622 7 -13936680.350 5
  21650422.015    -1787989.836 8 -14256669.081 9
 95  4 19 21 33 30.0020000  0  8  5 26  9 12  2 24  4  7
  25142883.244   -33236204.525 5  -3907505.178 1
  24383124.824    -5450459.761 5  -5159156.016 2
  22873168.215   -13554602.783 7 -11349231.872 5
  21748460.654   -27393286.866 9 -13654980.648 9
  23027638.378     8495442.669 6  -5492003.526 4
  24274952.750   -10513566.384 6  -5552517.531 2
  22501750.722   -49096010.105 7 -13990128.983 5
  21661182.106    -1731443.892 8 -14212607.324 9
 95  4 19 21 34  0.0020000  0  8  5 26  9 12  2 24  4  7
  25128642.353   -33311066.997 5  -3965839.544 1
  24396362.640    -5380878.404 5  -5104936.917 2
  22860462.171   -13621383.023 7 -11401268.389 5
  21742735.308   -27423360.716 9 -13678414.814 9
  23038723.054     8553632.216 6  -5446661.048 4
  24255749.874   -10614528.782 6  -5631189.456 2
  22488761.524   -49164242.667 7 -14043297.171 5
  21671988.964    -1674655.897 8 -14168356.945 8
 95  4 19 21 34 30.0020000  0  8  5 26  9 12  2 24  4  7
  25114378.168   -33385980.007 5  -4024213.237 2
  24409644.045    -5311100.500 6  -5050564.559 2
  22847813.358   -13687840.496 7 -11453053.414 5
  21737074.117   -27453121.885 9 -13701605.319 9
  23049829.945     8612004.628 6  -5401176.110 4
  24236540.672   -10715437.561 5  -5709819.545 2
  22475850.632   -49232112.098 7 -14096182.393 5
  21682838.993    -1617642.938 8 -14123931.282 8
 95  4 19 21 35  0.0020000  0  8  5 26  9 12  2 24  4  7
  25100121.747   -33460954.566 5  -4082634.836 2
  24422958.158    -5241131.337 6  -4996043.225 2
  22835225.432   -13753960.196 7 -11504575.241 5
  21731466.529   -27482577.130 9 -13724557.461 9
  23060968.794     8670532.252 6  -5355570.199 4
  24217345.890   -10816308.467 5  -5788420.069 2
  22463005.035   -49299612.087 7 -14148779.753 5
  21693731.502    -1560415.648 8 -14079338.594 8
 95  4 19 21 35 30.0020000  0  8  5 26  9 12  2 24  4  7
  25085843.142   -33535961.537 5  -4141081.703 2
  24436313.192    -5170951.948 6  -4941358.088 2
  22822721.419   -13819710.124 7 -11555808.926 5
  21725926.574   -27511709.337 9 -13747257.882 9
  23072136.542     8729223.703 7  -5309836.650 4
  24198153.927   -10917142.291 5  -5866991.742 2
  22450233.097   -49366723.742 7 -14201074.505 6
  21704663.824    -1502946.019 8 -14034557.086 8
 95  4 19 21 36  0.0020000  0  8  5 26  9 12  2 24  4  7
  25071563.038   -33611013.752 5  -4199563.864 2
  24449711.217    -5100564.106 6  -4886510.451 2
  22810276.854   -13885100.053 7 -11606762.119 5
  21720444.719   -27540519.459 9 -13769707.323 9
  23083326.745     8788071.703 6  -5263981.105 4
  24178976.443   -11017940.466 5  -5945535.617 2
  22437536.617   -49433456.770 7 -14253074.221 6
  21715647.710    -1445237.495 8 -13989589.422 8
 95  4 19 21 36 30.0020000  0  8  5 26  9 12  2 24  4  7
  25057264.527   -33686135.670 5  -4258100.451 1
  24463133.315    -5029988.552 6  -4831516.622 2
  22797893.807   -13950153.361 7 -11657452.974 5
  21715020.724   -27569015.603 9 -13791912.107 9
  23094554.303     8847055.789 6  -5218019.522 4
  24159795.422   -11118711.168 5  -6024058.095 2
  22424909.628   -49499821.660 7 -14304787.092 6
  21726668.500    -1387303.813 8 -13944446.309 8
 95  4 19 21 37  0.0020000  0  8  5 26  9 12  2 24  4  7
  25042958.371   -33761332.994 5  -4316695.624 1
  24476597.174    -4959238.389 5  -4776386.689 2
  22785577.163   -14014898.515 7 -11707903.717 5
  21709659.296   -27597192.178 9 -13813867.877 9
  23105804.704     8906184.331 6  -5171945.384 4
  24140634.726   -11219445.925 5  -6102552.551 2
  22412345.956   -49565833.170 7 -14356224.580 6
  21737736.748    -1329149.046 8 -13899130.920 8
 95  4 19 21 37 30.0020000  0  8  5 26  9 12  2 24  4  7
  25028619.597   -33836612.110 5  -4375354.609 2
  24490096.289    -4888341.769 5  -4721142.659 2
  22773309.206   -14079368.733 7 -11758140.236 5
  21704357.436   -27625054.695 9 -13835578.930 9
  23117083.796     8965460.261 6  -5125756.395 4
  24121466.956   -11320137.953 5  -6181013.701 3
  22399848.927   -49631504.373 7 -14407396.901 6
  21748839.352    -1270793.177 8 -13853658.829 8
 95  4 19 21 38  0.0020000  0  8  5 26  9 12  2 24  4  7
  25014286.610   -33911981.584 5  -4434084.011 2
  24503611.473    -4817304.747 5  -4665789.216 2
  22761091.914   -14143575.676 7 -11808171.588 5
  21699117.004   -27652604.440 9 -13857046.260 9
  23128396.614     9024886.145 6  -5079450.551 4
  24102317.503   -11420774.513 5  -6259431.647 3
  22387414.795   -49696821.071 7 -14458292.991 6
  21759979.580    -1212252.814 8 -13808042.979 8
 95  4 19 21 38 30.0020000  0  8  5 26  9 12  2 24  4  7
  24999928.470   -33987420.315 5  -4492867.319 2
  24517168.298    -4746126.871 5  -4610325.984 2
  22748919.021   -14207504.909 7 -11857986.553 5
  21693931.824   -27679840.516 9 -13878269.175 9
  23139728.439     9084462.946 6  -5033027.122 3
  24083185.048   -11521346.402 5  -6337799.204 3
  22375061.367   -49761769.611 7 -14508902.203 6
  21771153.354    -1153536.428 8 -13762289.963 8
 95  4 19 21 39  0.0020000  0  8  5 26  9 12  2 24  4  7
  24985561.636   -34062906.946 5  -4551688.033 2
  24530739.812    -4674781.438 5  -4554732.277 2
  22736820.747   -14271124.380 8 -11907560.153 5
  21688810.349   -27706749.657 9 -13899237.323 9
  23151105.503     9144216.560 7  -4986465.908 4
  24064055.321   -11621845.448 6  -6416110.002 3
  22362771.945   -49826329.026 7 -14559208.196 6
  21782359.656    -1094644.635 8 -13716400.263 8
 95  4 19 21 39 30.0020000  0  8  5 26  9 12  2 24  4  7
  24971204.935   -34138411.407 5  -4610522.594 2
  24544344.724    -4603230.127 5  -4498978.071 2
  22724779.822   -14334382.167 7 -11956851.899 5
  21683758.666   -27733307.087 9 -13919931.421 9
  23162508.619     9204169.272 6  -4939749.564 3
  24044949.008   -11722257.951 6  -6494353.358 3
  22350570.362   -49890458.755 7 -14609179.365 6
  21793605.351    -1035553.215 8 -13670355.022 8
 95  4 19 21 40  0.0020000  0  8  5 26  9 12  2 24  4  7
  24956834.653   -34213914.362 5  -4669355.989 2
  24558007.645    -4531436.000 5  -4443034.725 2
  22712820.502   -14397227.229 8 -12005822.051 6
  21678775.756   -27759488.148 9 -13940332.235 9
  23173966.777     9264343.773 6  -4892860.384 4
  24025862.242   -11822564.227 6  -6572513.938 3
  22338453.710   -49954134.078 7 -14658796.447 6
  21804894.576     -976239.552 8 -13624136.611 8
 95  4 19 21 40 30.0020000  0  8  5 26  9 12  2 24  4  7
  24942472.316   -34289392.068 5  -4728169.732 2
  24571723.360    -4459386.114 5  -4386892.020 2
  22700942.904   -14459637.160 8 -12054453.136 6
  21673871.511   -27785272.051 9 -13960423.591 9
  23185458.121     9324757.870 6  -4845784.507 4
  24006797.120   -11922745.700 6  -6650577.319 3
  22326424.658   -50017345.879 7 -14708052.356 6
  21816221.634     -916694.688 8 -13577738.020 8
 95  4 19 21 41  0.0020000  0  8  5 26  9 12  2 24  4  7
  24928117.563   -34364848.134 5  -4786966.694 2
  24585483.084    -4387086.456 5  -4330554.662 2
  22689149.099   -14521613.180 8 -12102746.117 6
  21669039.966   -27810651.202 9 -13980199.538 9
  23197002.080     9385419.811 6  -4798515.530 4
  23987756.312   -12022792.899 6  -6728536.047 2
  22314487.012   -50080089.954 7 -14756943.786 6
  21827602.985     -856908.065 8 -13531151.064 8
 95  4 19 21 41 30.0020000  0  8  5 26  9 12  2 24  4  7
  24913759.753   -34440271.990 5  -4845738.381 2
  24599283.251    -4314553.774 5  -4274035.856 2
  22677439.355   -14583158.989 8 -12150703.861 6
  21664285.917   -27835616.361 9 -13999652.896 9
  23208594.035     9446332.389 6  -4751051.218 4
  23968751.659   -12122687.703 6  -6806376.026 2
  22302639.034   -50142355.369 7 -14805462.260 6
  21839027.626     -796857.056 8 -13484358.078 8
 95  4 19 21 42  0.0020000  0  8  5 26  9 12  2 24  4  7
  24899407.189   -34515671.374 5  -4904491.032 2
  24613130.904    -4241793.497 5  -4217339.603 2
  22665806.749   -14644278.013 8 -12198329.043 6
  21659614.431   -27860160.878 9 -14018778.476 9
  23220228.290     9507492.951 6  -4703393.699 4
  23949778.034   -12222411.995 6  -6884083.156 3
  22290881.204   -50204137.678 7 -14853604.246 6
  21850505.210     -736534.526 8 -13437353.533 8
 95  4 19 21 42 30.0020000  0  8  5 26  9 12  2 24  4  7
  24885064.219   -34591053.237 5  -4963230.101 2
  24627012.134    -4168822.925 5  -4160479.554 2
  22654251.908   -14704990.442 8 -12245637.419 6
  21655025.658   -27884292.562 9 -14037582.381 9
  23231921.186     9568891.693 6  -4655550.571 4
  23930827.883   -12321978.056 6  -6961666.984 3
  22279214.960   -50265444.002 7 -14901375.373 6
  21862037.896     -675943.411 8 -13390139.693 7
 95  4 19 21 43  0.0020000  0  8  5 26  9 12  2 24  4  7
  24870715.912   -34666439.033 5  -5021972.244 2
  24640940.582    -4095646.462 5  -4103458.987 2
  22642781.309   -14765290.365 8 -12292624.340 6
  21650511.203   -27908015.904 9 -14056068.104 9
  23243650.326     9630523.792 6  -4607525.623 4
  23911909.989   -12421390.732 6  -7039131.302 2
  22267634.847   -50326280.722 7 -14948780.554 6
  21873620.797     -615075.637 8 -13342710.280 7
